Wetterdaten: Donnerstag, 03.10.2019
Datum Zeit Temp. A. Feuchte A. Luftdruck Regen Wind Richtung Richtung Sonnenschein ET UV Solar Taupunkt Windchill Windböen
03.10.2019 00:00 3,5 °C 94 % 1015,4 hPa 0,0 mm 0,0 km/h (0 Bft) S-SW 204 ° 0 min 0,000 mm 0,0 UV-I 0 W/m² 2,6 °C 3,5 °C 0,0 km/h (0 Bft)
03.10.2019 00:01 3,5 °C 94 % 1015,4 hPa 0,0 mm 0,0 km/h (0 Bft) S-SW 204 ° 0 min 0,000 mm 0,0 UV-I 0 W/m² 2,6 °C 3,5 °C 0,0 km/h (0 Bft)
03.10.2019 00:03 3,6 °C 94 % 1015,5 hPa 0,0 mm 1,2 km/h (1 Bft) S-SW 204 ° 0 min 0,000 mm 0,0 UV-I 0 W/m² 2,7 °C 3,6 °C 3,2 km/h (1 Bft)
03.10.2019 00:04 3,6 °C 94 % 1015,5 hPa 0,0 mm 1,0 km/h (0 Bft) S-SW 204 ° 0 min 0,000 mm 0,0 UV-I 0 W/m² 2,7 °C 3,6 °C 3,2 km/h (1 Bft)
03.10.2019 00:05 3,7 °C 94 % 1015,5 hPa 0,0 mm 0,0 km/h (0 Bft) S-SW 204 ° 0 min 0,000 mm 0,0 UV-I 0 W/m² 2,8 °C 3,7 °C 0,0 km/h (0 Bft)
03.10.2019 00:06 3,7 °C 94 % 1015,5 hPa 0,0 mm 0,0 km/h (0 Bft) S-SW 204 ° 0 min 0,000 mm 0,0 UV-I 0 W/m² 2,8 °C 3,7 °C 0,0 km/h (0 Bft)
03.10.2019 00:07 3,7 °C 94 % 1015,6 hPa 0,0 mm 0,7 km/h (0 Bft) S-SW 204 ° 0 min 0,000 mm 0,0 UV-I 0 W/m² 2,8 °C 3,7 °C 1,6 km/h (1 Bft)
03.10.2019 00:08 3,7 °C 94 % 1015,6 hPa 0,0 mm 0,5 km/h (0 Bft) S-SW 204 ° 0 min 0,000 mm 0,0 UV-I 0 W/m² 2,8 °C 3,7 °C 1,6 km/h (1 Bft)
03.10.2019 00:09 3,7 °C 94 % 1015,6 hPa 0,0 mm 0,8 km/h (0 Bft) S-SW 204 ° 0 min 0,000 mm 0,0 UV-I 0 W/m² 2,8 °C 3,7 °C 1,6 km/h (1 Bft)
03.10.2019 00:10 3,7 °C 94 % 1015,6 hPa 0,0 mm 0,0 km/h (0 Bft) S-SW 204 ° 0 min 0,000 mm 0,0 UV-I 0 W/m² 2,8 °C 3,7 °C 0,0 km/h (0 Bft)
03.10.2019 00:11 3,7 °C 94 % 1015,6 hPa 0,0 mm 0,3 km/h (0 Bft) S-SW 204 ° 0 min 0,000 mm 0,0 UV-I 0 W/m² 2,8 °C 3,7 °C 3,2 km/h (1 Bft)
03.10.2019 00:12 3,7 °C 94 % 1015,6 hPa 0,0 mm 1,6 km/h (1 Bft) S-SW 204 ° 0 min 0,000 mm 0,0 UV-I 0 W/m² 2,8 °C 3,7 °C 3,2 km/h (1 Bft)
03.10.2019 00:13 3,7 °C 94 % 1015,6 hPa 0,0 mm 1,3 km/h (1 Bft) S-SW 204 ° 0 min 0,000 mm 0,0 UV-I 0 W/m² 2,8 °C 3,7 °C 3,2 km/h (1 Bft)
03.10.2019 00:14 3,7 °C 94 % 1015,6 hPa 0,0 mm 0,0 km/h (0 Bft) S-SW 204 ° 0 min 0,000 mm 0,0 UV-I 0 W/m² 2,8 °C 3,7 °C 0,0 km/h (0 Bft)
03.10.2019 00:15 3,7 °C 94 % 1015,6 hPa 0,0 mm 0,5 km/h (0 Bft) S-SW 204 ° 0 min 0,000 mm 0,0 UV-I 0 W/m² 2,8 °C 3,7 °C 3,2 km/h (1 Bft)
03.10.2019 00:16 3,6 °C 94 % 1015,7 hPa 0,0 mm 1,6 km/h (1 Bft) S-SW 204 ° 0 min 0,000 mm 0,0 UV-I 0 W/m² 2,7 °C 3,6 °C 3,2 km/h (1 Bft)
03.10.2019 00:17 3,6 °C 94 % 1015,7 hPa 0,0 mm 0,7 km/h (0 Bft) S-SW 204 ° 0 min 0,000 mm 0,0 UV-I 0 W/m² 2,7 °C 3,6 °C 3,2 km/h (1 Bft)
03.10.2019 00:18 3,6 °C 94 % 1015,7 hPa 0,0 mm 1,1 km/h (1 Bft) S-SW 204 ° 0 min 0,000 mm 0,0 UV-I 0 W/m² 2,7 °C 3,6 °C 3,2 km/h (1 Bft)
03.10.2019 00:19 3,6 °C 94 % 1015,7 hPa 0,0 mm 2,9 km/h (1 Bft) S-SW 203 ° 0 min 0,000 mm 0,0 UV-I 0 W/m² 2,7 °C 3,6 °C 6,4 km/h (2 Bft)
03.10.2019 00:20 3,6 °C 94 % 1015,7 hPa 0,0 mm 3,0 km/h (1 Bft) S-SW 203 ° 0 min 0,000 mm 0,0 UV-I 0 W/m² 2,7 °C 3,6 °C 4,8 km/h (1 Bft)
03.10.2019 00:21 3,6 °C 94 % 1015,7 hPa 0,0 mm 4,8 km/h (1 Bft) S 180 ° 0 min 0,000 mm 0,0 UV-I 0 W/m² 2,7 °C 2,6 °C 6,4 km/h (2 Bft)
03.10.2019 00:22 3,6 °C 94 % 1015,7 hPa 0,0 mm 5,4 km/h (1 Bft) S-SW 202 ° 0 min 0,000 mm 0,0 UV-I 0 W/m² 2,7 °C 2,3 °C 8,0 km/h (2 Bft)
03.10.2019 00:23 3,6 °C 94 % 1015,7 hPa 0,0 mm 3,7 km/h (1 Bft) S-SW 202 ° 0 min 0,000 mm 0,0 UV-I 0 W/m² 2,7 °C 3,6 °C 4,8 km/h (1 Bft)
03.10.2019 00:24 3,6 °C 94 % 1015,8 hPa 0,0 mm 3,6 km/h (1 Bft) S-SW 202 ° 0 min 0,000 mm 0,0 UV-I 0 W/m² 2,7 °C 3,6 °C 4,8 km/h (1 Bft)
03.10.2019 00:25 3,6 °C 94 % 1015,8 hPa 0,0 mm 3,9 km/h (1 Bft) S-SW 200 ° 0 min 0,000 mm 0,0 UV-I 0 W/m² 2,7 °C 3,6 °C 4,8 km/h (1 Bft)
03.10.2019 00:26 3,6 °C 94 % 1015,7 hPa 0,0 mm 2,4 km/h (1 Bft) S-SW 200 ° 0 min 0,000 mm 0,0 UV-I 0 W/m² 2,7 °C 3,6 °C 3,2 km/h (1 Bft)
03.10.2019 00:27 3,5 °C 94 % 1015,7 hPa 0,0 mm 2,7 km/h (1 Bft) S-SW 201 ° 0 min 0,000 mm 0,0 UV-I 0 W/m² 2,6 °C 3,5 °C 4,8 km/h (1 Bft)
03.10.2019 00:28 3,6 °C 94 % 1015,7 hPa 0,0 mm 3,1 km/h (1 Bft) S-SW 202 ° 0 min 0,000 mm 0,0 UV-I 0 W/m² 2,7 °C 3,6 °C 4,8 km/h (1 Bft)
03.10.2019 00:29 3,6 °C 94 % 1015,8 hPa 0,0 mm 3,9 km/h (1 Bft) S-SW 202 ° 0 min 0,000 mm 0,0 UV-I 0 W/m² 2,7 °C 3,6 °C 8,0 km/h (2 Bft)
03.10.2019 00:30 3,6 °C 94 % 1015,8 hPa 0,0 mm 2,8 km/h (1 Bft) S-SW 202 ° 0 min 0,000 mm 0,0 UV-I 0 W/m² 2,7 °C 3,6 °C 4,8 km/h (1 Bft)
03.10.2019 00:31 3,6 °C 94 % 1015,8 hPa 0,0 mm 2,7 km/h (1 Bft) S-SW 193 ° 0 min 0,000 mm 0,0 UV-I 0 W/m² 2,7 °C 3,6 °C 4,8 km/h (1 Bft)
03.10.2019 00:32 3,7 °C 94 % 1015,8 hPa 0,0 mm 3,5 km/h (1 Bft) S 189 ° 0 min 0,000 mm 0,0 UV-I 0 W/m² 2,8 °C 3,7 °C 6,4 km/h (2 Bft)
03.10.2019 00:33 3,7 °C 94 % 1015,8 hPa 0,0 mm 5,1 km/h (1 Bft) S 180 ° 0 min 0,000 mm 0,0 UV-I 0 W/m² 2,8 °C 2,6 °C 9,7 km/h (2 Bft)
03.10.2019 00:34 3,7 °C 94 % 1015,8 hPa 0,0 mm 3,6 km/h (1 Bft) S-SW 196 ° 0 min 0,000 mm 0,0 UV-I 0 W/m² 2,8 °C 3,7 °C 6,4 km/h (2 Bft)
03.10.2019 00:35 3,7 °C 94 % 1015,8 hPa 0,0 mm 4,2 km/h (1 Bft) S-SW 210 ° 0 min 0,000 mm 0,0 UV-I 0 W/m² 2,8 °C 3,7 °C 6,4 km/h (2 Bft)
03.10.2019 00:36 3,8 °C 94 % 1015,8 hPa 0,0 mm 4,7 km/h (1 Bft) S-SW 202 ° 0 min 0,000 mm 0,0 UV-I 0 W/m² 2,9 °C 2,8 °C 6,4 km/h (2 Bft)
03.10.2019 00:37 3,8 °C 94 % 1015,9 hPa 0,0 mm 3,6 km/h (1 Bft) S-SW 202 ° 0 min 0,000 mm 0,0 UV-I 0 W/m² 2,9 °C 3,8 °C 4,8 km/h (1 Bft)
03.10.2019 00:38 3,8 °C 94 % 1015,8 hPa 0,0 mm 2,8 km/h (1 Bft) SW 225 ° 0 min 0,000 mm 0,0 UV-I 0 W/m² 2,9 °C 3,8 °C 3,2 km/h (1 Bft)
03.10.2019 00:39 3,9 °C 94 % 1015,8 hPa 0,0 mm 2,5 km/h (1 Bft) S-SW 212 ° 0 min 0,000 mm 0,0 UV-I 0 W/m² 3,0 °C 3,9 °C 4,8 km/h (1 Bft)
03.10.2019 00:40 3,9 °C 94 % 1015,8 hPa 0,0 mm 1,7 km/h (1 Bft) S-SW 212 ° 0 min 0,000 mm 0,0 UV-I 0 W/m² 3,0 °C 3,9 °C 3,2 km/h (1 Bft)
03.10.2019 00:41 4,0 °C 94 % 1015,8 hPa 0,0 mm 5,2 km/h (1 Bft) W-SW 242 ° 0 min 0,000 mm 0,0 UV-I 0 W/m² 3,1 °C 2,9 °C 9,7 km/h (2 Bft)
03.10.2019 00:42 4,0 °C 94 % 1015,8 hPa 0,0 mm 4,0 km/h (1 Bft) S 191 ° 0 min 0,000 mm 0,0 UV-I 0 W/m² 3,1 °C 4,0 °C 8,0 km/h (2 Bft)
03.10.2019 00:43 4,1 °C 94 % 1015,8 hPa 0,0 mm 2,5 km/h (1 Bft) S 187 ° 0 min 0,000 mm 0,0 UV-I 0 W/m² 3,2 °C 4,1 °C 4,8 km/h (1 Bft)
03.10.2019 00:44 4,0 °C 94 % 1015,8 hPa 0,0 mm 2,5 km/h (1 Bft) S-SW 198 ° 0 min 0,000 mm 0,0 UV-I 0 W/m² 3,1 °C 4,0 °C 3,2 km/h (1 Bft)
03.10.2019 00:45 4,1 °C 94 % 1015,8 hPa 0,0 mm 3,0 km/h (1 Bft) S 186 ° 0 min 0,000 mm 0,0 UV-I 0 W/m² 3,2 °C 4,1 °C 4,8 km/h (1 Bft)
03.10.2019 00:46 4,1 °C 94 % 1015,8 hPa 0,0 mm 6,4 km/h (2 Bft) S 176 ° 0 min 0,000 mm 0,0 UV-I 0 W/m² 3,2 °C 2,6 °C 9,7 km/h (2 Bft)
03.10.2019 00:47 4,1 °C 94 % 1015,8 hPa 0,0 mm 8,0 km/h (2 Bft) S-SW 211 ° 0 min 0,000 mm 0,0 UV-I 0 W/m² 3,2 °C 2,1 °C 12,9 km/h (3 Bft)
03.10.2019 00:48 4,1 °C 94 % 1015,8 hPa 0,0 mm 2,0 km/h (1 Bft) SW 229 ° 0 min 0,000 mm 0,0 UV-I 0 W/m² 3,2 °C 4,1 °C 4,8 km/h (1 Bft)
03.10.2019 00:49 4,2 °C 94 % 1015,8 hPa 0,0 mm 2,7 km/h (1 Bft) S 181 ° 0 min 0,000 mm 0,0 UV-I 0 W/m² 3,3 °C 4,2 °C 6,4 km/h (2 Bft)
03.10.2019 00:50 4,2 °C 94 % 1015,8 hPa 0,0 mm 5,0 km/h (1 Bft) S 190 ° 0 min 0,000 mm 0,0 UV-I 0 W/m² 3,3 °C 3,2 °C 8,0 km/h (2 Bft)
03.10.2019 00:51 4,2 °C 94 % 1015,8 hPa 0,0 mm 5,0 km/h (1 Bft) S 186 ° 0 min 0,000 mm 0,0 UV-I 0 W/m² 3,3 °C 3,2 °C 9,7 km/h (2 Bft)
03.10.2019 00:52 4,3 °C 94 % 1015,8 hPa 0,0 mm 4,9 km/h (1 Bft) S-SO 165 ° 0 min 0,000 mm 0,0 UV-I 0 W/m² 3,4 °C 3,3 °C 9,7 km/h (2 Bft)
03.10.2019 00:53 4,3 °C 94 % 1015,8 hPa 0,0 mm 3,4 km/h (1 Bft) W-SW 257 ° 0 min 0,000 mm 0,0 UV-I 0 W/m² 3,4 °C 4,3 °C 4,8 km/h (1 Bft)
03.10.2019 00:54 4,3 °C 94 % 1015,9 hPa 0,0 mm 2,1 km/h (1 Bft) W-SW 257 ° 0 min 0,000 mm 0,0 UV-I 0 W/m² 3,4 °C 4,3 °C 4,8 km/h (1 Bft)
03.10.2019 00:55 4,4 °C 93 % 1016,1 hPa 0,0 mm 3,1 km/h (1 Bft) W 262 ° 0 min 0,000 mm 0,0 UV-I 0 W/m² 3,4 °C 4,4 °C 4,8 km/h (1 Bft)
03.10.2019 00:56 4,5 °C 93 % 1016,1 hPa 0,0 mm 6,8 km/h (2 Bft) NW 312 ° 0 min 0,000 mm 0,0 UV-I 0 W/m² 3,5 °C 2,9 °C 12,9 km/h (3 Bft)
03.10.2019 00:57 4,5 °C 93 % 1016,3 hPa 0,0 mm 7,3 km/h (2 Bft) W 267 ° 0 min 0,000 mm 0,0 UV-I 0 W/m² 3,5 °C 2,7 °C 9,7 km/h (2 Bft)
03.10.2019 00:58 4,5 °C 93 % 1016,3 hPa 0,0 mm 4,9 km/h (1 Bft) NW 313 ° 0 min 0,000 mm 0,0 UV-I 0 W/m² 3,5 °C 3,6 °C 8,0 km/h (2 Bft)
03.10.2019 00:59 4,4 °C 93 % 1016,3 hPa 0,0 mm 4,4 km/h (1 Bft) NW 311 ° 0 min 0,000 mm 0,0 UV-I 0 W/m² 3,4 °C 4,4 °C 11,3 km/h (2 Bft)
03.10.2019 01:00 4,4 °C 93 % 1016,3 hPa 0,0 mm 4,2 km/h (1 Bft) W-NW 294 ° 0 min 0,000 mm 0,0 UV-I 0 W/m² 3,4 °C 4,4 °C 6,4 km/h (2 Bft)
03.10.2019 01:01 4,4 °C 93 % 1016,5 hPa 0,0 mm 5,4 km/h (1 Bft) NW 318 ° 0 min 0,000 mm 0,0 UV-I 0 W/m² 3,4 °C 3,2 °C 8,0 km/h (2 Bft)
03.10.2019 01:02 4,4 °C 93 % 1016,4 hPa 0,0 mm 8,3 km/h (2 Bft) W 276 ° 0 min 0,000 mm 0,0 UV-I 0 W/m² 3,4 °C 2,4 °C 17,7 km/h (3 Bft)
03.10.2019 01:03 4,4 °C 93 % 1016,5 hPa 0,0 mm 13,0 km/h (3 Bft) W 278 ° 0 min 0,000 mm 0,0 UV-I 0 W/m² 3,4 °C 1,3 °C 17,7 km/h (3 Bft)
03.10.2019 01:04 4,4 °C 93 % 1016,5 hPa 0,0 mm 8,3 km/h (2 Bft) NW 320 ° 0 min 0,000 mm 0,0 UV-I 0 W/m² 3,4 °C 2,4 °C 12,9 km/h (3 Bft)
03.10.2019 01:05 4,4 °C 93 % 1016,5 hPa 0,0 mm 6,8 km/h (2 Bft) W-NW 297 ° 0 min 0,000 mm 0,0 UV-I 0 W/m² 3,4 °C 2,8 °C 12,9 km/h (3 Bft)
03.10.2019 01:06 4,4 °C 93 % 1016,5 hPa 0,0 mm 3,9 km/h (1 Bft) N-NW 336 ° 0 min 0,000 mm 0,0 UV-I 0 W/m² 3,4 °C 4,4 °C 6,4 km/h (2 Bft)
03.10.2019 01:07 4,3 °C 93 % 1016,5 hPa 0,0 mm 5,8 km/h (2 Bft) W-NW 288 ° 0 min 0,000 mm 0,0 UV-I 0 W/m² 3,3 °C 3,0 °C 12,9 km/h (3 Bft)
03.10.2019 01:08 4,3 °C 93 % 1016,5 hPa 0,0 mm 10,0 km/h (2 Bft) W-NW 283 ° 0 min 0,000 mm 0,0 UV-I 0 W/m² 3,3 °C 1,8 °C 12,9 km/h (3 Bft)
03.10.2019 01:09 4,3 °C 93 % 1016,5 hPa 0,0 mm 10,3 km/h (2 Bft) W-NW 290 ° 0 min 0,000 mm 0,0 UV-I 0 W/m² 3,3 °C 1,8 °C 14,5 km/h (3 Bft)
03.10.2019 01:10 4,2 °C 93 % 1016,5 hPa 0,0 mm 5,0 km/h (1 Bft) NW 309 ° 0 min 0,000 mm 0,0 UV-I 0 W/m² 3,2 °C 3,2 °C 9,7 km/h (2 Bft)
03.10.2019 01:11 4,2 °C 93 % 1016,5 hPa 0,0 mm 6,5 km/h (2 Bft) NW 312 ° 0 min 0,000 mm 0,0 UV-I 0 W/m² 3,2 °C 2,6 °C 9,7 km/h (2 Bft)
03.10.2019 01:12 4,2 °C 93 % 1016,5 hPa 0,0 mm 10,1 km/h (2 Bft) W-NW 290 ° 0 min 0,000 mm 0,0 UV-I 0 W/m² 3,2 °C 1,7 °C 14,5 km/h (3 Bft)
03.10.2019 01:13 4,1 °C 93 % 1016,5 hPa 0,0 mm 5,1 km/h (1 Bft) N 355 ° 0 min 0,000 mm 0,0 UV-I 0 W/m² 3,1 °C 3,0 °C 6,4 km/h (2 Bft)
03.10.2019 01:14 4,1 °C 93 % 1016,6 hPa 0,0 mm 5,5 km/h (1 Bft) N-NW 335 ° 0 min 0,000 mm 0,0 UV-I 0 W/m² 3,1 °C 2,9 °C 6,4 km/h (2 Bft)
03.10.2019 01:15 4,1 °C 93 % 1016,7 hPa 0,0 mm 7,4 km/h (2 Bft) W 262 ° 0 min 0,000 mm 0,0 UV-I 0 W/m² 3,1 °C 2,2 °C 12,9 km/h (3 Bft)
03.10.2019 01:16 4,1 °C 93 % 1016,7 hPa 0,0 mm 7,6 km/h (2 Bft) W-NW 286 ° 0 min 0,000 mm 0,0 UV-I 0 W/m² 3,1 °C 2,2 °C 11,3 km/h (2 Bft)
03.10.2019 01:17 4,1 °C 93 % 1016,6 hPa 0,0 mm 5,6 km/h (1 Bft) W 273 ° 0 min 0,000 mm 0,0 UV-I 0 W/m² 3,1 °C 2,8 °C 11,3 km/h (2 Bft)
03.10.2019 01:18 4,0 °C 93 % 1016,6 hPa 0,0 mm 3,5 km/h (1 Bft) W-NW 288 ° 0 min 0,000 mm 0,0 UV-I 0 W/m² 3,0 °C 4,0 °C 6,4 km/h (2 Bft)
03.10.2019 01:19 4,0 °C 93 % 1016,6 hPa 0,0 mm 3,6 km/h (1 Bft) W-NW 288 ° 0 min 0,000 mm 0,0 UV-I 0 W/m² 3,0 °C 4,0 °C 4,8 km/h (1 Bft)
03.10.2019 01:20 4,0 °C 93 % 1016,6 hPa 0,0 mm 4,2 km/h (1 Bft) W 261 ° 0 min 0,000 mm 0,0 UV-I 0 W/m² 3,0 °C 4,0 °C 6,4 km/h (2 Bft)
03.10.2019 01:21 4,0 °C 93 % 1016,7 hPa 0,0 mm 4,7 km/h (1 Bft) W 260 ° 0 min 0,000 mm 0,0 UV-I 0 W/m² 3,0 °C 3,1 °C 6,4 km/h (2 Bft)
03.10.2019 01:22 4,0 °C 93 % 1016,6 hPa 0,0 mm 2,2 km/h (1 Bft) W-SW 256 ° 0 min 0,000 mm 0,0 UV-I 0 W/m² 3,0 °C 4,0 °C 4,8 km/h (1 Bft)
03.10.2019 01:23 4,0 °C 93 % 1016,6 hPa 0,0 mm 4,0 km/h (1 Bft) W-SW 256 ° 0 min 0,000 mm 0,0 UV-I 0 W/m² 3,0 °C 4,0 °C 4,8 km/h (1 Bft)
03.10.2019 01:24 4,0 °C 93 % 1016,7 hPa 0,0 mm 4,8 km/h (1 Bft) W-NW 294 ° 0 min 0,000 mm 0,0 UV-I 0 W/m² 3,0 °C 3,0 °C 8,0 km/h (2 Bft)
03.10.2019 01:25 4,0 °C 93 % 1016,7 hPa 0,0 mm 2,6 km/h (1 Bft) W-NW 294 ° 0 min 0,000 mm 0,0 UV-I 0 W/m² 3,0 °C 4,0 °C 6,4 km/h (2 Bft)
03.10.2019 01:26 3,9 °C 93 % 1016,7 hPa 0,0 mm 2,4 km/h (1 Bft) W-NW 288 ° 0 min 0,000 mm 0,0 UV-I 0 W/m² 2,9 °C 3,9 °C 6,4 km/h (2 Bft)
03.10.2019 01:27 3,9 °C 93 % 1016,7 hPa 0,0 mm 4,7 km/h (1 Bft) W-SW 249 ° 0 min 0,000 mm 0,0 UV-I 0 W/m² 2,9 °C 3,0 °C 9,7 km/h (2 Bft)
03.10.2019 01:28 3,9 °C 93 % 1016,7 hPa 0,0 mm 3,3 km/h (1 Bft) W 281 ° 0 min 0,000 mm 0,0 UV-I 0 W/m² 2,9 °C 3,9 °C 4,8 km/h (1 Bft)
03.10.2019 01:29 3,9 °C 93 % 1016,7 hPa 0,0 mm 2,7 km/h (1 Bft) W-SW 252 ° 0 min 0,000 mm 0,0 UV-I 0 W/m² 2,9 °C 3,9 °C 4,8 km/h (1 Bft)
03.10.2019 01:30 3,9 °C 93 % 1016,7 hPa 0,0 mm 5,0 km/h (1 Bft) W 269 ° 0 min 0,000 mm 0,0 UV-I 0 W/m² 2,9 °C 2,8 °C 6,4 km/h (2 Bft)
03.10.2019 01:31 3,9 °C 93 % 1016,6 hPa 0,2 mm 3,1 km/h (1 Bft) S-SW 195 ° 0 min 0,000 mm 0,0 UV-I 0 W/m² 2,9 °C 3,9 °C 6,4 km/h (2 Bft)
03.10.2019 01:32 3,9 °C 93 % 1016,6 hPa 0,0 mm 4,0 km/h (1 Bft) W-SW 240 ° 0 min 0,000 mm 0,0 UV-I 0 W/m² 2,9 °C 3,9 °C 6,4 km/h (2 Bft)
03.10.2019 01:33 3,8 °C 93 % 1016,5 hPa 0,0 mm 6,1 km/h (2 Bft) S-SW 205 ° 0 min 0,000 mm 0,0 UV-I 0 W/m² 2,8 °C 2,3 °C 9,7 km/h (2 Bft)
03.10.2019 01:34 3,8 °C 93 % 1016,4 hPa 0,0 mm 6,8 km/h (2 Bft) SW 217 ° 0 min 0,000 mm 0,0 UV-I 0 W/m² 2,8 °C 2,1 °C 11,3 km/h (2 Bft)
03.10.2019 01:35 3,8 °C 93 % 1016,4 hPa 0,0 mm 8,2 km/h (2 Bft) S-SO 155 ° 0 min 0,000 mm 0,0 UV-I 0 W/m² 2,8 °C 1,7 °C 11,3 km/h (2 Bft)
03.10.2019 01:36 3,8 °C 93 % 1016,4 hPa 0,0 mm 4,0 km/h (1 Bft) S-SW 196 ° 0 min 0,000 mm 0,0 UV-I 0 W/m² 2,8 °C 3,8 °C 6,4 km/h (2 Bft)
03.10.2019 01:37 3,8 °C 93 % 1016,5 hPa 0,0 mm 4,3 km/h (1 Bft) S 190 ° 0 min 0,000 mm 0,0 UV-I 0 W/m² 2,8 °C 3,8 °C 6,4 km/h (2 Bft)
03.10.2019 01:38 3,8 °C 93 % 1016,5 hPa 0,0 mm 0,8 km/h (0 Bft) SW 218 ° 0 min 0,000 mm 0,0 UV-I 0 W/m² 2,8 °C 3,8 °C 3,2 km/h (1 Bft)
03.10.2019 01:39 3,8 °C 93 % 1016,5 hPa 0,0 mm 3,6 km/h (1 Bft) S-SW 195 ° 0 min 0,000 mm 0,0 UV-I 0 W/m² 2,8 °C 3,8 °C 8,0 km/h (2 Bft)
03.10.2019 01:40 3,8 °C 93 % 1016,5 hPa 0,0 mm 2,5 km/h (1 Bft) S-SW 209 ° 0 min 0,000 mm 0,0 UV-I 0 W/m² 2,8 °C 3,8 °C 6,4 km/h (2 Bft)
03.10.2019 01:41 3,8 °C 93 % 1016,6 hPa 0,0 mm 2,5 km/h (1 Bft) W-SW 247 ° 0 min 0,000 mm 0,0 UV-I 0 W/m² 2,8 °C 3,8 °C 6,4 km/h (2 Bft)
03.10.2019 01:42 3,8 °C 93 % 1016,6 hPa 0,0 mm 3,2 km/h (1 Bft) S-SW 211 ° 0 min 0,000 mm 0,0 UV-I 0 W/m² 2,8 °C 3,8 °C 6,4 km/h (2 Bft)
03.10.2019 01:43 3,8 °C 93 % 1016,6 hPa 0,0 mm 4,0 km/h (1 Bft) S 188 ° 0 min 0,000 mm 0,0 UV-I 0 W/m² 2,8 °C 3,8 °C 8,0 km/h (2 Bft)
03.10.2019 01:44 3,8 °C 93 % 1016,6 hPa 0,0 mm 1,1 km/h (1 Bft) W 278 ° 0 min 0,000 mm 0,0 UV-I 0 W/m² 2,8 °C 3,8 °C 3,2 km/h (1 Bft)
03.10.2019 01:45 3,8 °C 93 % 1016,5 hPa 0,0 mm 3,4 km/h (1 Bft) S-SW 198 ° 0 min 0,000 mm 0,0 UV-I 0 W/m² 2,8 °C 3,8 °C 6,4 km/h (2 Bft)
03.10.2019 01:46 3,8 °C 93 % 1016,5 hPa 0,0 mm 2,9 km/h (1 Bft) S-SW 213 ° 0 min 0,000 mm 0,0 UV-I 0 W/m² 2,8 °C 3,8 °C 4,8 km/h (1 Bft)
03.10.2019 01:47 3,8 °C 93 % 1016,5 hPa 0,0 mm 2,9 km/h (1 Bft) S-SW 205 ° 0 min 0,000 mm 0,0 UV-I 0 W/m² 2,8 °C 3,8 °C 4,8 km/h (1 Bft)
03.10.2019 01:48 3,8 °C 93 % 1016,5 hPa 0,0 mm 2,5 km/h (1 Bft) W-SW 242 ° 0 min 0,000 mm 0,0 UV-I 0 W/m² 2,8 °C 3,8 °C 4,8 km/h (1 Bft)
03.10.2019 01:49 3,8 °C 93 % 1016,5 hPa 0,0 mm 4,5 km/h (1 Bft) S-SW 200 ° 0 min 0,000 mm 0,0 UV-I 0 W/m² 2,8 °C 3,8 °C 9,7 km/h (2 Bft)
03.10.2019 01:50 3,8 °C 93 % 1016,5 hPa 0,0 mm 2,7 km/h (1 Bft) SW 224 ° 0 min 0,000 mm 0,0 UV-I 0 W/m² 2,8 °C 3,8 °C 4,8 km/h (1 Bft)
03.10.2019 01:51 3,8 °C 93 % 1016,5 hPa 0,0 mm 1,6 km/h (1 Bft) SW 219 ° 0 min 0,000 mm 0,0 UV-I 0 W/m² 2,8 °C 3,8 °C 4,8 km/h (1 Bft)
03.10.2019 01:52 3,8 °C 93 % 1016,5 hPa 0,0 mm 3,2 km/h (1 Bft) SW 223 ° 0 min 0,000 mm 0,0 UV-I 0 W/m² 2,8 °C 3,8 °C 4,8 km/h (1 Bft)
03.10.2019 01:53 3,7 °C 93 % 1016,5 hPa 0,0 mm 1,6 km/h (1 Bft) W-SW 248 ° 0 min 0,000 mm 0,0 UV-I 0 W/m² 2,7 °C 3,7 °C 4,8 km/h (1 Bft)
03.10.2019 01:54 3,7 °C 93 % 1016,6 hPa 0,0 mm 1,8 km/h (1 Bft) W-SW 248 ° 0 min 0,000 mm 0,0 UV-I 0 W/m² 2,7 °C 3,7 °C 6,4 km/h (2 Bft)
03.10.2019 01:55 3,7 °C 93 % 1016,6 hPa 0,0 mm 4,6 km/h (1 Bft) S 181 ° 0 min 0,000 mm 0,0 UV-I 0 W/m² 2,7 °C 2,8 °C 8,0 km/h (2 Bft)
03.10.2019 01:56 3,7 °C 93 % 1016,7 hPa 0,0 mm 1,7 km/h (1 Bft) W-SW 254 ° 0 min 0,000 mm 0,0 UV-I 0 W/m² 2,7 °C 3,7 °C 6,4 km/h (2 Bft)
03.10.2019 01:57 3,7 °C 93 % 1016,7 hPa 0,0 mm 4,2 km/h (1 Bft) S 172 ° 0 min 0,000 mm 0,0 UV-I 0 W/m² 2,7 °C 3,7 °C 8,0 km/h (2 Bft)
03.10.2019 01:58 3,7 °C 93 % 1016,7 hPa 0,0 mm 2,6 km/h (1 Bft) W-SW 246 ° 0 min 0,000 mm 0,0 UV-I 0 W/m² 2,7 °C 3,7 °C 4,8 km/h (1 Bft)
03.10.2019 01:59 3,7 °C 93 % 1016,7 hPa 0,0 mm 1,5 km/h (1 Bft) S 173 ° 0 min 0,000 mm 0,0 UV-I 0 W/m² 2,7 °C 3,7 °C 4,8 km/h (1 Bft)
03.10.2019 02:00 3,7 °C 93 % 1016,8 hPa 0,0 mm 2,5 km/h (1 Bft) S-SW 195 ° 0 min 0,000 mm 0,0 UV-I 0 W/m² 2,7 °C 3,7 °C 6,4 km/h (2 Bft)
03.10.2019 02:01 3,7 °C 93 % 1016,8 hPa 0,0 mm 5,8 km/h (2 Bft) S-SW 202 ° 0 min 0,000 mm 0,0 UV-I 0 W/m² 2,7 °C 2,3 °C 9,7 km/h (2 Bft)
03.10.2019 02:02 3,7 °C 93 % 1016,7 hPa 0,0 mm 1,7 km/h (1 Bft) S-SW 202 ° 0 min 0,000 mm 0,0 UV-I 0 W/m² 2,7 °C 3,7 °C 3,2 km/h (1 Bft)
03.10.2019 02:03 3,7 °C 93 % 1016,7 hPa 0,0 mm 2,4 km/h (1 Bft) S 184 ° 0 min 0,000 mm 0,0 UV-I 0 W/m² 2,7 °C 3,7 °C 4,8 km/h (1 Bft)
03.10.2019 02:04 3,7 °C 93 % 1016,7 hPa 0,0 mm 6,3 km/h (2 Bft) SW 236 ° 0 min 0,000 mm 0,0 UV-I 0 W/m² 2,7 °C 2,1 °C 9,7 km/h (2 Bft)
03.10.2019 02:05 3,7 °C 93 % 1016,7 hPa 0,0 mm 2,9 km/h (1 Bft) SW 232 ° 0 min 0,000 mm 0,0 UV-I 0 W/m² 2,7 °C 3,7 °C 6,4 km/h (2 Bft)
03.10.2019 02:06 3,7 °C 93 % 1016,6 hPa 0,0 mm 0,5 km/h (0 Bft) SW 233 ° 0 min 0,000 mm 0,0 UV-I 0 W/m² 2,7 °C 3,7 °C 1,6 km/h (1 Bft)
03.10.2019 02:07 3,7 °C 93 % 1016,6 hPa 0,0 mm 2,6 km/h (1 Bft) SW 233 ° 0 min 0,000 mm 0,0 UV-I 0 W/m² 2,7 °C 3,7 °C 4,8 km/h (1 Bft)
03.10.2019 02:08 3,7 °C 93 % 1016,6 hPa 0,0 mm 2,7 km/h (1 Bft) W-SW 247 ° 0 min 0,000 mm 0,0 UV-I 0 W/m² 2,7 °C 3,7 °C 6,4 km/h (2 Bft)
03.10.2019 02:09 3,7 °C 93 % 1016,7 hPa 0,0 mm 5,0 km/h (1 Bft) S-SW 194 ° 0 min 0,000 mm 0,0 UV-I 0 W/m² 2,7 °C 2,6 °C 8,0 km/h (2 Bft)
03.10.2019 02:10 3,7 °C 93 % 1016,7 hPa 0,0 mm 4,1 km/h (1 Bft) S-SW 197 ° 0 min 0,000 mm 0,0 UV-I 0 W/m² 2,7 °C 3,7 °C 6,4 km/h (2 Bft)
03.10.2019 02:11 3,8 °C 93 % 1016,7 hPa 0,0 mm 5,4 km/h (1 Bft) S-SW 195 ° 0 min 0,000 mm 0,0 UV-I 0 W/m² 2,8 °C 2,6 °C 8,0 km/h (2 Bft)
03.10.2019 02:12 3,8 °C 93 % 1016,7 hPa 0,0 mm 1,9 km/h (1 Bft) S-SW 197 ° 0 min 0,000 mm 0,0 UV-I 0 W/m² 2,8 °C 3,8 °C 3,2 km/h (1 Bft)
03.10.2019 02:13 3,8 °C 93 % 1016,7 hPa 0,0 mm 1,5 km/h (1 Bft) SW 232 ° 0 min 0,000 mm 0,0 UV-I 0 W/m² 2,8 °C 3,8 °C 4,8 km/h (1 Bft)
03.10.2019 02:14 3,8 °C 93 % 1016,7 hPa 0,0 mm 4,6 km/h (1 Bft) SW 226 ° 0 min 0,000 mm 0,0 UV-I 0 W/m² 2,8 °C 2,9 °C 6,4 km/h (2 Bft)
03.10.2019 02:15 3,8 °C 93 % 1016,7 hPa 0,0 mm 4,8 km/h (1 Bft) W 265 ° 0 min 0,000 mm 0,0 UV-I 0 W/m² 2,8 °C 2,8 °C 9,7 km/h (2 Bft)
03.10.2019 02:16 3,8 °C 93 % 1016,7 hPa 0,0 mm 0,4 km/h (0 Bft) W-SW 242 ° 0 min 0,000 mm 0,0 UV-I 0 W/m² 2,8 °C 3,8 °C 1,6 km/h (1 Bft)
03.10.2019 02:17 3,8 °C 93 % 1016,7 hPa 0,0 mm 1,9 km/h (1 Bft) W-SW 242 ° 0 min 0,000 mm 0,0 UV-I 0 W/m² 2,8 °C 3,8 °C 4,8 km/h (1 Bft)
03.10.2019 02:18 3,8 °C 93 % 1016,6 hPa 0,0 mm 2,6 km/h (1 Bft) W-SW 245 ° 0 min 0,000 mm 0,0 UV-I 0 W/m² 2,8 °C 3,8 °C 6,4 km/h (2 Bft)
03.10.2019 02:19 3,8 °C 93 % 1016,6 hPa 0,0 mm 2,7 km/h (1 Bft) S-SW 199 ° 0 min 0,000 mm 0,0 UV-I 0 W/m² 2,8 °C 3,8 °C 6,4 km/h (2 Bft)
03.10.2019 02:20 3,8 °C 93 % 1016,6 hPa 0,0 mm 1,5 km/h (1 Bft) SW 215 ° 0 min 0,000 mm 0,0 UV-I 0 W/m² 2,8 °C 3,8 °C 4,8 km/h (1 Bft)
03.10.2019 02:21 3,8 °C 93 % 1016,7 hPa 0,0 mm 4,0 km/h (1 Bft) S-SW 205 ° 0 min 0,000 mm 0,0 UV-I 0 W/m² 2,8 °C 3,8 °C 6,4 km/h (2 Bft)
03.10.2019 02:22 3,8 °C 93 % 1016,7 hPa 0,0 mm 1,9 km/h (1 Bft) SW 232 ° 0 min 0,000 mm 0,0 UV-I 0 W/m² 2,8 °C 3,8 °C 6,4 km/h (2 Bft)
03.10.2019 02:23 3,8 °C 93 % 1016,7 hPa 0,0 mm 2,7 km/h (1 Bft) S-SW 212 ° 0 min 0,000 mm 0,0 UV-I 0 W/m² 2,8 °C 3,8 °C 6,4 km/h (2 Bft)
03.10.2019 02:24 3,8 °C 93 % 1016,7 hPa 0,0 mm 5,4 km/h (1 Bft) S-SW 212 ° 0 min 0,000 mm 0,0 UV-I 0 W/m² 2,8 °C 2,6 °C 11,3 km/h (2 Bft)
03.10.2019 02:25 3,8 °C 93 % 1016,7 hPa 0,0 mm 3,4 km/h (1 Bft) S-SW 212 ° 0 min 0,000 mm 0,0 UV-I 0 W/m² 2,8 °C 3,8 °C 4,8 km/h (1 Bft)
03.10.2019 02:26 3,8 °C 93 % 1016,7 hPa 0,0 mm 2,6 km/h (1 Bft) W 267 ° 0 min 0,000 mm 0,0 UV-I 0 W/m² 2,8 °C 3,8 °C 4,8 km/h (1 Bft)
03.10.2019 02:27 3,9 °C 93 % 1016,7 hPa 0,0 mm 2,6 km/h (1 Bft) W-SW 257 ° 0 min 0,000 mm 0,0 UV-I 0 W/m² 2,9 °C 3,9 °C 6,4 km/h (2 Bft)
03.10.2019 02:28 3,9 °C 93 % 1016,7 hPa 0,0 mm 4,8 km/h (1 Bft) S 176 ° 0 min 0,000 mm 0,0 UV-I 0 W/m² 2,9 °C 2,9 °C 11,3 km/h (2 Bft)
03.10.2019 02:29 3,9 °C 93 % 1016,7 hPa 0,0 mm 1,4 km/h (1 Bft) S-SW 209 ° 0 min 0,000 mm 0,0 UV-I 0 W/m² 2,9 °C 3,9 °C 6,4 km/h (2 Bft)
03.10.2019 02:30 3,9 °C 93 % 1016,6 hPa 0,0 mm 0,6 km/h (0 Bft) S-SW 208 ° 0 min 0,000 mm 0,0 UV-I 0 W/m² 2,9 °C 3,9 °C 3,2 km/h (1 Bft)
03.10.2019 02:31 3,9 °C 93 % 1016,7 hPa 0,0 mm 1,9 km/h (1 Bft) S 190 ° 0 min 0,000 mm 0,0 UV-I 0 W/m² 2,9 °C 3,9 °C 6,4 km/h (2 Bft)
03.10.2019 02:32 3,9 °C 93 % 1016,6 hPa 0,0 mm 4,0 km/h (1 Bft) SW 228 ° 0 min 0,000 mm 0,0 UV-I 0 W/m² 2,9 °C 3,9 °C 8,0 km/h (2 Bft)
03.10.2019 02:33 3,9 °C 93 % 1016,6 hPa 0,0 mm 3,0 km/h (1 Bft) SW 232 ° 0 min 0,000 mm 0,0 UV-I 0 W/m² 2,9 °C 3,9 °C 4,8 km/h (1 Bft)
03.10.2019 02:34 3,9 °C 93 % 1016,6 hPa 0,0 mm 5,7 km/h (1 Bft) S-SW 195 ° 0 min 0,000 mm 0,0 UV-I 0 W/m² 2,9 °C 2,6 °C 11,3 km/h (2 Bft)
03.10.2019 02:35 3,9 °C 93 % 1016,6 hPa 0,0 mm 9,7 km/h (2 Bft) S-SW 205 ° 0 min 0,000 mm 0,0 UV-I 0 W/m² 2,9 °C 1,4 °C 14,5 km/h (3 Bft)
03.10.2019 02:36 4,0 °C 93 % 1016,6 hPa 0,0 mm 7,6 km/h (2 Bft) S 182 ° 0 min 0,000 mm 0,0 UV-I 0 W/m² 3,0 °C 2,1 °C 11,3 km/h (2 Bft)
03.10.2019 02:37 4,0 °C 93 % 1016,6 hPa 0,0 mm 6,4 km/h (2 Bft) S-SW 197 ° 0 min 0,000 mm 0,0 UV-I 0 W/m² 3,0 °C 2,4 °C 11,3 km/h (2 Bft)
03.10.2019 02:38 4,0 °C 93 % 1016,5 hPa 0,0 mm 6,4 km/h (2 Bft) S 182 ° 0 min 0,000 mm 0,0 UV-I 0 W/m² 3,0 °C 2,4 °C 8,0 km/h (2 Bft)
03.10.2019 02:39 4,0 °C 93 % 1016,5 hPa 0,0 mm 9,7 km/h (2 Bft) S 188 ° 0 min 0,000 mm 0,0 UV-I 0 W/m² 3,0 °C 1,5 °C 16,1 km/h (3 Bft)
03.10.2019 02:40 4,0 °C 93 % 1016,5 hPa 0,0 mm 5,7 km/h (1 Bft) S-SW 209 ° 0 min 0,000 mm 0,0 UV-I 0 W/m² 3,0 °C 2,7 °C 9,7 km/h (2 Bft)
03.10.2019 02:41 4,0 °C 93 % 1016,5 hPa 0,0 mm 2,7 km/h (1 Bft) SW 224 ° 0 min 0,000 mm 0,0 UV-I 0 W/m² 3,0 °C 4,0 °C 8,0 km/h (2 Bft)
03.10.2019 02:42 4,0 °C 93 % 1016,6 hPa 0,0 mm 3,5 km/h (1 Bft) W-SW 240 ° 0 min 0,000 mm 0,0 UV-I 0 W/m² 3,0 °C 4,0 °C 8,0 km/h (2 Bft)
03.10.2019 02:43 3,9 °C 93 % 1016,5 hPa 0,0 mm 3,6 km/h (1 Bft) SW 235 ° 0 min 0,000 mm 0,0 UV-I 0 W/m² 2,9 °C 3,9 °C 8,0 km/h (2 Bft)
03.10.2019 02:44 3,9 °C 93 % 1016,5 hPa 0,0 mm 0,4 km/h (0 Bft) SW 235 ° 0 min 0,000 mm 0,0 UV-I 0 W/m² 2,9 °C 3,9 °C 1,6 km/h (1 Bft)
03.10.2019 02:45 3,9 °C 93 % 1016,6 hPa 0,0 mm 2,1 km/h (1 Bft) S-SW 211 ° 0 min 0,000 mm 0,0 UV-I 0 W/m² 2,9 °C 3,9 °C 4,8 km/h (1 Bft)
03.10.2019 02:46 3,9 °C 93 % 1016,6 hPa 0,0 mm 1,2 km/h (1 Bft) S-SW 209 ° 0 min 0,000 mm 0,0 UV-I 0 W/m² 2,9 °C 3,9 °C 3,2 km/h (1 Bft)
03.10.2019 02:47 3,9 °C 93 % 1016,6 hPa 0,0 mm 0,3 km/h (0 Bft) S-SO 167 ° 0 min 0,000 mm 0,0 UV-I 0 W/m² 2,9 °C 3,9 °C 1,6 km/h (1 Bft)
03.10.2019 02:48 3,8 °C 93 % 1016,6 hPa 0,0 mm 2,7 km/h (1 Bft) S-SW 207 ° 0 min 0,000 mm 0,0 UV-I 0 W/m² 2,8 °C 3,8 °C 4,8 km/h (1 Bft)
03.10.2019 02:49 3,8 °C 93 % 1016,6 hPa 0,0 mm 3,2 km/h (1 Bft) S-SW 203 ° 0 min 0,000 mm 0,0 UV-I 0 W/m² 2,8 °C 3,8 °C 4,8 km/h (1 Bft)
03.10.2019 02:50 3,8 °C 93 % 1016,6 hPa 0,0 mm 3,6 km/h (1 Bft) S 187 ° 0 min 0,000 mm 0,0 UV-I 0 W/m² 2,8 °C 3,8 °C 6,4 km/h (2 Bft)
03.10.2019 02:51 3,8 °C 93 % 1016,5 hPa 0,0 mm 2,1 km/h (1 Bft) S 191 ° 0 min 0,000 mm 0,0 UV-I 0 W/m² 2,8 °C 3,8 °C 4,8 km/h (1 Bft)
03.10.2019 02:52 3,8 °C 93 % 1016,5 hPa 0,0 mm 1,7 km/h (1 Bft) SW 236 ° 0 min 0,000 mm 0,0 UV-I 0 W/m² 2,8 °C 3,8 °C 3,2 km/h (1 Bft)
03.10.2019 02:53 3,8 °C 93 % 1016,5 hPa 0,0 mm 3,2 km/h (1 Bft) S 183 ° 0 min 0,000 mm 0,0 UV-I 0 W/m² 2,8 °C 3,8 °C 4,8 km/h (1 Bft)
03.10.2019 02:54 3,8 °C 93 % 1016,5 hPa 0,0 mm 2,2 km/h (1 Bft) S-SW 211 ° 0 min 0,000 mm 0,0 UV-I 0 W/m² 2,8 °C 3,8 °C 3,2 km/h (1 Bft)
03.10.2019 02:55 3,8 °C 93 % 1016,5 hPa 0,0 mm 2,0 km/h (1 Bft) SW 217 ° 0 min 0,000 mm 0,0 UV-I 0 W/m² 2,8 °C 3,8 °C 3,2 km/h (1 Bft)
03.10.2019 02:56 3,8 °C 93 % 1016,5 hPa 0,0 mm 0,0 km/h (0 Bft) SW 214 ° 0 min 0,000 mm 0,0 UV-I 0 W/m² 2,8 °C 3,8 °C 0,0 km/h (0 Bft)
03.10.2019 02:57 3,8 °C 93 % 1016,4 hPa 0,0 mm 0,0 km/h (0 Bft) SW 214 ° 0 min 0,000 mm 0,0 UV-I 0 W/m² 2,8 °C 3,8 °C 0,0 km/h (0 Bft)
03.10.2019 02:58 3,8 °C 93 % 1016,4 hPa 0,0 mm 0,0 km/h (0 Bft) SW 214 ° 0 min 0,000 mm 0,0 UV-I 0 W/m² 2,8 °C 3,8 °C 0,0 km/h (0 Bft)
03.10.2019 02:59 3,8 °C 93 % 1016,5 hPa 0,0 mm 1,0 km/h (0 Bft) S 189 ° 0 min 0,000 mm 0,0 UV-I 0 W/m² 2,8 °C 3,8 °C 3,2 km/h (1 Bft)
03.10.2019 03:00 3,7 °C 93 % 1016,5 hPa 0,0 mm 2,6 km/h (1 Bft) SO 129 ° 0 min 0,000 mm 0,0 UV-I 0 W/m² 2,7 °C 3,7 °C 4,8 km/h (1 Bft)
03.10.2019 03:01 3,7 °C 93 % 1016,5 hPa 0,0 mm 2,4 km/h (1 Bft) SO 129 ° 0 min 0,000 mm 0,0 UV-I 0 W/m² 2,7 °C 3,7 °C 3,2 km/h (1 Bft)
03.10.2019 03:02 3,7 °C 93 % 1016,5 hPa 0,0 mm 6,7 km/h (2 Bft) S-SW 207 ° 0 min 0,000 mm 0,0 UV-I 0 W/m² 2,7 °C 2,0 °C 9,7 km/h (2 Bft)
03.10.2019 03:03 3,7 °C 93 % 1016,5 hPa 0,0 mm 5,7 km/h (1 Bft) S-SW 201 ° 0 min 0,000 mm 0,0 UV-I 0 W/m² 2,7 °C 2,3 °C 8,0 km/h (2 Bft)
03.10.2019 03:04 3,7 °C 93 % 1016,5 hPa 0,0 mm 2,7 km/h (1 Bft) S-SW 196 ° 0 min 0,000 mm 0,0 UV-I 0 W/m² 2,7 °C 3,7 °C 6,4 km/h (2 Bft)
03.10.2019 03:05 3,7 °C 93 % 1016,6 hPa 0,0 mm 0,3 km/h (0 Bft) S-SW 198 ° 0 min 0,000 mm 0,0 UV-I 0 W/m² 2,7 °C 3,7 °C 1,6 km/h (1 Bft)
03.10.2019 03:06 3,7 °C 93 % 1016,5 hPa 0,0 mm 2,5 km/h (1 Bft) W 272 ° 0 min 0,000 mm 0,0 UV-I 0 W/m² 2,7 °C 3,7 °C 6,4 km/h (2 Bft)
03.10.2019 03:07 3,7 °C 93 % 1016,5 hPa 0,0 mm 1,1 km/h (1 Bft) W 271 ° 0 min 0,000 mm 0,0 UV-I 0 W/m² 2,7 °C 3,7 °C 3,2 km/h (1 Bft)
03.10.2019 03:08 3,8 °C 93 % 1016,5 hPa 0,0 mm 2,4 km/h (1 Bft) W-SW 242 ° 0 min 0,000 mm 0,0 UV-I 0 W/m² 2,8 °C 3,8 °C 3,2 km/h (1 Bft)
03.10.2019 03:09 3,8 °C 93 % 1016,5 hPa 0,0 mm 1,1 km/h (1 Bft) W-SW 243 ° 0 min 0,000 mm 0,0 UV-I 0 W/m² 2,8 °C 3,8 °C 3,2 km/h (1 Bft)
03.10.2019 03:10 3,8 °C 93 % 1016,5 hPa 0,0 mm 2,8 km/h (1 Bft) W-SW 242 ° 0 min 0,000 mm 0,0 UV-I 0 W/m² 2,8 °C 3,8 °C 4,8 km/h (1 Bft)
03.10.2019 03:11 3,8 °C 93 % 1016,5 hPa 0,0 mm 2,5 km/h (1 Bft) W-SW 242 ° 0 min 0,000 mm 0,0 UV-I 0 W/m² 2,8 °C 3,8 °C 3,2 km/h (1 Bft)
03.10.2019 03:12 3,8 °C 93 % 1016,6 hPa 0,0 mm 2,9 km/h (1 Bft) W-SW 242 ° 0 min 0,000 mm 0,0 UV-I 0 W/m² 2,8 °C 3,8 °C 4,8 km/h (1 Bft)
03.10.2019 03:13 3,8 °C 93 % 1016,6 hPa 0,0 mm 2,7 km/h (1 Bft) W-SW 244 ° 0 min 0,000 mm 0,0 UV-I 0 W/m² 2,8 °C 3,8 °C 4,8 km/h (1 Bft)
03.10.2019 03:14 3,8 °C 93 % 1016,6 hPa 0,0 mm 5,4 km/h (1 Bft) W-SW 255 ° 0 min 0,000 mm 0,0 UV-I 0 W/m² 2,8 °C 2,6 °C 8,0 km/h (2 Bft)
03.10.2019 03:15 3,8 °C 94 % 1016,6 hPa 0,0 mm 5,0 km/h (1 Bft) W-SW 254 ° 0 min 0,000 mm 0,0 UV-I 0 W/m² 2,9 °C 2,7 °C 6,4 km/h (2 Bft)
03.10.2019 03:16 3,8 °C 93 % 1016,6 hPa 0,0 mm 2,5 km/h (1 Bft) W-SW 252 ° 0 min 0,000 mm 0,0 UV-I 0 W/m² 2,8 °C 3,8 °C 4,8 km/h (1 Bft)
03.10.2019 03:17 3,8 °C 94 % 1016,5 hPa 0,0 mm 3,8 km/h (1 Bft) W-SW 245 ° 0 min 0,000 mm 0,0 UV-I 0 W/m² 2,9 °C 3,8 °C 9,7 km/h (2 Bft)
03.10.2019 03:18 3,8 °C 93 % 1016,5 hPa 0,0 mm 4,8 km/h (1 Bft) W 268 ° 0 min 0,000 mm 0,0 UV-I 0 W/m² 2,8 °C 2,8 °C 6,4 km/h (2 Bft)
03.10.2019 03:19 3,8 °C 94 % 1016,5 hPa 0,0 mm 2,9 km/h (1 Bft) S-SW 192 ° 0 min 0,000 mm 0,0 UV-I 0 W/m² 2,9 °C 3,8 °C 6,4 km/h (2 Bft)
03.10.2019 03:20 3,8 °C 93 % 1016,5 hPa 0,0 mm 0,9 km/h (0 Bft) SW 225 ° 0 min 0,000 mm 0,0 UV-I 0 W/m² 2,8 °C 3,8 °C 3,2 km/h (1 Bft)
03.10.2019 03:21 3,8 °C 93 % 1016,5 hPa 0,0 mm 4,5 km/h (1 Bft) S-SW 196 ° 0 min 0,000 mm 0,0 UV-I 0 W/m² 2,8 °C 3,8 °C 11,3 km/h (2 Bft)
03.10.2019 03:22 3,9 °C 93 % 1016,5 hPa 0,0 mm 3,7 km/h (1 Bft) S 190 ° 0 min 0,000 mm 0,0 UV-I 0 W/m² 2,9 °C 3,9 °C 6,4 km/h (2 Bft)
03.10.2019 03:23 3,9 °C 93 % 1016,5 hPa 0,0 mm 1,7 km/h (1 Bft) S-SW 199 ° 0 min 0,000 mm 0,0 UV-I 0 W/m² 2,9 °C 3,9 °C 4,8 km/h (1 Bft)
03.10.2019 03:24 3,9 °C 93 % 1016,4 hPa 0,0 mm 3,4 km/h (1 Bft) S 188 ° 0 min 0,000 mm 0,0 UV-I 0 W/m² 2,9 °C 3,9 °C 6,4 km/h (2 Bft)
03.10.2019 03:25 3,9 °C 93 % 1016,4 hPa 0,0 mm 8,2 km/h (2 Bft) SW 217 ° 0 min 0,000 mm 0,0 UV-I 0 W/m² 2,9 °C 1,8 °C 9,7 km/h (2 Bft)
03.10.2019 03:26 3,9 °C 93 % 1016,4 hPa 0,0 mm 4,8 km/h (1 Bft) SW 223 ° 0 min 0,000 mm 0,0 UV-I 0 W/m² 2,9 °C 2,9 °C 8,0 km/h (2 Bft)
03.10.2019 03:27 3,9 °C 93 % 1016,4 hPa 0,0 mm 2,6 km/h (1 Bft) S 180 ° 0 min 0,000 mm 0,0 UV-I 0 W/m² 2,9 °C 3,9 °C 8,0 km/h (2 Bft)
03.10.2019 03:28 3,9 °C 93 % 1016,4 hPa 0,0 mm 1,5 km/h (1 Bft) SW 227 ° 0 min 0,000 mm 0,0 UV-I 0 W/m² 2,9 °C 3,9 °C 3,2 km/h (1 Bft)
03.10.2019 03:29 3,9 °C 93 % 1016,4 hPa 0,0 mm 3,0 km/h (1 Bft) SW 214 ° 0 min 0,000 mm 0,0 UV-I 0 W/m² 2,9 °C 3,9 °C 6,4 km/h (2 Bft)
03.10.2019 03:30 3,8 °C 93 % 1016,5 hPa 0,0 mm 1,6 km/h (1 Bft) S-SW 211 ° 0 min 0,000 mm 0,0 UV-I 0 W/m² 2,8 °C 3,8 °C 4,8 km/h (1 Bft)
03.10.2019 03:31 3,9 °C 93 % 1016,4 hPa 0,0 mm 0,3 km/h (0 Bft) S-SW 211 ° 0 min 0,000 mm 0,0 UV-I 0 W/m² 2,9 °C 3,9 °C 1,6 km/h (1 Bft)
03.10.2019 03:32 3,8 °C 93 % 1016,4 hPa 0,0 mm 0,7 km/h (0 Bft) SW 231 ° 0 min 0,000 mm 0,0 UV-I 0 W/m² 2,8 °C 3,8 °C 1,6 km/h (1 Bft)
03.10.2019 03:33 3,8 °C 93 % 1016,4 hPa 0,0 mm 0,8 km/h (0 Bft) SW 221 ° 0 min 0,000 mm 0,0 UV-I 0 W/m² 2,8 °C 3,8 °C 3,2 km/h (1 Bft)
03.10.2019 03:34 3,8 °C 93 % 1016,4 hPa 0,0 mm 3,3 km/h (1 Bft) S-SW 204 ° 0 min 0,000 mm 0,0 UV-I 0 W/m² 2,8 °C 3,8 °C 4,8 km/h (1 Bft)
03.10.2019 03:35 3,8 °C 93 % 1016,4 hPa 0,0 mm 3,1 km/h (1 Bft) SW 229 ° 0 min 0,000 mm 0,0 UV-I 0 W/m² 2,8 °C 3,8 °C 4,8 km/h (1 Bft)
03.10.2019 03:36 3,8 °C 93 % 1016,5 hPa 0,0 mm 3,3 km/h (1 Bft) W-SW 250 ° 0 min 0,000 mm 0,0 UV-I 0 W/m² 2,8 °C 3,8 °C 6,4 km/h (2 Bft)
03.10.2019 03:37 3,8 °C 93 % 1016,6 hPa 0,0 mm 1,8 km/h (1 Bft) W 261 ° 0 min 0,000 mm 0,0 UV-I 0 W/m² 2,8 °C 3,8 °C 6,4 km/h (2 Bft)
03.10.2019 03:38 3,8 °C 93 % 1016,6 hPa 0,0 mm 0,9 km/h (0 Bft) W 261 ° 0 min 0,000 mm 0,0 UV-I 0 W/m² 2,8 °C 3,8 °C 3,2 km/h (1 Bft)
03.10.2019 03:39 3,8 °C 93 % 1016,6 hPa 0,0 mm 2,6 km/h (1 Bft) W 261 ° 0 min 0,000 mm 0,0 UV-I 0 W/m² 2,8 °C 3,8 °C 4,8 km/h (1 Bft)
03.10.2019 03:40 3,7 °C 93 % 1016,6 hPa 0,0 mm 2,4 km/h (1 Bft) W-SW 257 ° 0 min 0,000 mm 0,0 UV-I 0 W/m² 2,7 °C 3,7 °C 4,8 km/h (1 Bft)
03.10.2019 03:41 3,7 °C 93 % 1016,6 hPa 0,0 mm 4,1 km/h (1 Bft) S-SW 195 ° 0 min 0,000 mm 0,0 UV-I 0 W/m² 2,7 °C 3,7 °C 8,0 km/h (2 Bft)
03.10.2019 03:42 3,7 °C 93 % 1016,6 hPa 0,0 mm 6,8 km/h (2 Bft) SW 234 ° 0 min 0,000 mm 0,0 UV-I 0 W/m² 2,7 °C 2,0 °C 11,3 km/h (2 Bft)
03.10.2019 03:43 3,7 °C 93 % 1016,6 hPa 0,0 mm 5,0 km/h (1 Bft) S 190 ° 0 min 0,000 mm 0,0 UV-I 0 W/m² 2,7 °C 2,6 °C 11,3 km/h (2 Bft)
03.10.2019 03:44 3,7 °C 93 % 1016,6 hPa 0,0 mm 2,3 km/h (1 Bft) SW 218 ° 0 min 0,000 mm 0,0 UV-I 0 W/m² 2,7 °C 3,7 °C 6,4 km/h (2 Bft)
03.10.2019 03:45 3,6 °C 93 % 1016,6 hPa 0,0 mm 1,5 km/h (1 Bft) S-SW 198 ° 0 min 0,000 mm 0,0 UV-I 0 W/m² 2,6 °C 3,6 °C 6,4 km/h (2 Bft)
03.10.2019 03:46 3,7 °C 93 % 1016,6 hPa 0,0 mm 2,1 km/h (1 Bft) S-SW 213 ° 0 min 0,000 mm 0,0 UV-I 0 W/m² 2,7 °C 3,7 °C 4,8 km/h (1 Bft)
03.10.2019 03:47 3,6 °C 93 % 1016,6 hPa 0,0 mm 0,5 km/h (0 Bft) S-SW 213 ° 0 min 0,000 mm 0,0 UV-I 0 W/m² 2,6 °C 3,6 °C 3,2 km/h (1 Bft)
03.10.2019 03:48 3,6 °C 93 % 1016,6 hPa 0,0 mm 2,3 km/h (1 Bft) S-SW 212 ° 0 min 0,000 mm 0,0 UV-I 0 W/m² 2,6 °C 3,6 °C 4,8 km/h (1 Bft)
03.10.2019 03:49 3,5 °C 93 % 1016,6 hPa 0,0 mm 0,0 km/h (0 Bft) S-SW 212 ° 0 min 0,000 mm 0,0 UV-I 0 W/m² 2,5 °C 3,5 °C 0,0 km/h (0 Bft)
03.10.2019 03:50 3,5 °C 93 % 1016,6 hPa 0,0 mm 0,7 km/h (0 Bft) S-SW 212 ° 0 min 0,000 mm 0,0 UV-I 0 W/m² 2,5 °C 3,5 °C 4,8 km/h (1 Bft)
03.10.2019 03:51 3,4 °C 93 % 1016,6 hPa 0,0 mm 3,6 km/h (1 Bft) S-SW 211 ° 0 min 0,000 mm 0,0 UV-I 0 W/m² 2,4 °C 3,4 °C 8,0 km/h (2 Bft)
03.10.2019 03:52 3,4 °C 93 % 1016,6 hPa 0,0 mm 1,5 km/h (1 Bft) S-SW 211 ° 0 min 0,000 mm 0,0 UV-I 0 W/m² 2,4 °C 3,4 °C 3,2 km/h (1 Bft)
03.10.2019 03:53 3,4 °C 93 % 1016,7 hPa 0,0 mm 0,5 km/h (0 Bft) S-SW 200 ° 0 min 0,000 mm 0,0 UV-I 0 W/m² 2,4 °C 3,4 °C 3,2 km/h (1 Bft)
03.10.2019 03:54 3,4 °C 93 % 1016,7 hPa 0,0 mm 0,0 km/h (0 Bft) S-SW 200 ° 0 min 0,000 mm 0,0 UV-I 0 W/m² 2,4 °C 3,4 °C 0,0 km/h (0 Bft)
03.10.2019 03:55 3,4 °C 93 % 1016,7 hPa 0,0 mm 0,0 km/h (0 Bft) S-SW 200 ° 0 min 0,000 mm 0,0 UV-I 0 W/m² 2,4 °C 3,4 °C 0,0 km/h (0 Bft)
03.10.2019 03:56 3,3 °C 93 % 1016,6 hPa 0,0 mm 0,0 km/h (0 Bft) S-SW 192 ° 0 min 0,000 mm 0,0 UV-I 0 W/m² 2,3 °C 3,3 °C 0,0 km/h (0 Bft)
03.10.2019 03:57 3,4 °C 93 % 1016,7 hPa 0,0 mm 1,9 km/h (1 Bft) S 184 ° 0 min 0,000 mm 0,0 UV-I 0 W/m² 2,4 °C 3,4 °C 6,4 km/h (2 Bft)
03.10.2019 03:58 3,4 °C 93 % 1016,7 hPa 0,0 mm 4,2 km/h (1 Bft) S-SW 200 ° 0 min 0,000 mm 0,0 UV-I 0 W/m² 2,4 °C 3,4 °C 6,4 km/h (2 Bft)
03.10.2019 03:59 3,5 °C 93 % 1016,7 hPa 0,0 mm 3,4 km/h (1 Bft) S-SW 200 ° 0 min 0,000 mm 0,0 UV-I 0 W/m² 2,5 °C 3,5 °C 6,4 km/h (2 Bft)
03.10.2019 04:00 3,5 °C 93 % 1016,7 hPa 0,0 mm 1,9 km/h (1 Bft) S-SW 192 ° 0 min 0,000 mm 0,0 UV-I 0 W/m² 2,5 °C 3,5 °C 4,8 km/h (1 Bft)
03.10.2019 04:01 3,6 °C 93 % 1016,7 hPa 0,0 mm 0,3 km/h (0 Bft) S-SW 192 ° 0 min 0,000 mm 0,0 UV-I 0 W/m² 2,6 °C 3,6 °C 1,6 km/h (1 Bft)
03.10.2019 04:02 3,5 °C 94 % 1016,7 hPa 0,0 mm 0,5 km/h (0 Bft) S-SW 192 ° 0 min 0,000 mm 0,0 UV-I 0 W/m² 2,6 °C 3,5 °C 1,6 km/h (1 Bft)
03.10.2019 04:03 3,6 °C 94 % 1016,6 hPa 0,0 mm 1,2 km/h (1 Bft) S-SW 192 ° 0 min 0,000 mm 0,0 UV-I 0 W/m² 2,7 °C 3,6 °C 4,8 km/h (1 Bft)
03.10.2019 04:04 3,5 °C 93 % 1016,6 hPa 0,0 mm 0,0 km/h (0 Bft) S-SW 192 ° 0 min 0,000 mm 0,0 UV-I 0 W/m² 2,5 °C 3,5 °C 0,0 km/h (0 Bft)
03.10.2019 04:05 3,4 °C 93 % 1016,6 hPa 0,0 mm 0,0 km/h (0 Bft) S-SW 192 ° 0 min 0,000 mm 0,0 UV-I 0 W/m² 2,4 °C 3,4 °C 0,0 km/h (0 Bft)
03.10.2019 04:06 3,4 °C 93 % 1016,7 hPa 0,0 mm 0,0 km/h (0 Bft) S-SW 192 ° 0 min 0,000 mm 0,0 UV-I 0 W/m² 2,4 °C 3,4 °C 0,0 km/h (0 Bft)
03.10.2019 04:07 3,4 °C 93 % 1016,7 hPa 0,0 mm 0,0 km/h (0 Bft) S-SW 192 ° 0 min 0,000 mm 0,0 UV-I 0 W/m² 2,4 °C 3,4 °C 0,0 km/h (0 Bft)
03.10.2019 04:08 3,4 °C 93 % 1016,7 hPa 0,0 mm 0,0 km/h (0 Bft) S-SW 192 ° 0 min 0,000 mm 0,0 UV-I 0 W/m² 2,4 °C 3,4 °C 0,0 km/h (0 Bft)
03.10.2019 04:09 3,4 °C 93 % 1016,7 hPa 0,0 mm 0,0 km/h (0 Bft) S-SW 192 ° 0 min 0,000 mm 0,0 UV-I 0 W/m² 2,4 °C 3,4 °C 0,0 km/h (0 Bft)
03.10.2019 04:10 3,4 °C 94 % 1016,7 hPa 0,0 mm 0,0 km/h (0 Bft) S-SW 192 ° 0 min 0,000 mm 0,0 UV-I 0 W/m² 2,5 °C 3,4 °C 0,0 km/h (0 Bft)
03.10.2019 04:11 3,5 °C 94 % 1016,7 hPa 0,0 mm 0,0 km/h (0 Bft) S-SW 192 ° 0 min 0,000 mm 0,0 UV-I 0 W/m² 2,6 °C 3,5 °C 0,0 km/h (0 Bft)
03.10.2019 04:12 3,5 °C 94 % 1016,7 hPa 0,0 mm 0,0 km/h (0 Bft) S-SW 192 ° 0 min 0,000 mm 0,0 UV-I 0 W/m² 2,6 °C 3,5 °C 0,0 km/h (0 Bft)
03.10.2019 04:13 3,5 °C 94 % 1016,7 hPa 0,0 mm 0,0 km/h (0 Bft) S-SW 192 ° 0 min 0,000 mm 0,0 UV-I 0 W/m² 2,6 °C 3,5 °C 0,0 km/h (0 Bft)
03.10.2019 04:14 3,6 °C 94 % 1016,7 hPa 0,0 mm 1,0 km/h (0 Bft) S-SW 192 ° 0 min 0,000 mm 0,0 UV-I 0 W/m² 2,7 °C 3,6 °C 3,2 km/h (1 Bft)
03.10.2019 04:15 3,6 °C 94 % 1016,6 hPa 0,0 mm 2,7 km/h (1 Bft) S-SW 198 ° 0 min 0,000 mm 0,0 UV-I 0 W/m² 2,7 °C 3,6 °C 4,8 km/h (1 Bft)
03.10.2019 04:16 3,6 °C 94 % 1016,6 hPa 0,0 mm 1,9 km/h (1 Bft) S-SW 200 ° 0 min 0,000 mm 0,0 UV-I 0 W/m² 2,7 °C 3,6 °C 4,8 km/h (1 Bft)
03.10.2019 04:17 3,6 °C 94 % 1016,6 hPa 0,0 mm 3,7 km/h (1 Bft) S 184 ° 0 min 0,000 mm 0,0 UV-I 0 W/m² 2,7 °C 3,6 °C 6,4 km/h (2 Bft)
03.10.2019 04:18 3,6 °C 94 % 1016,6 hPa 0,0 mm 1,9 km/h (1 Bft) S 184 ° 0 min 0,000 mm 0,0 UV-I 0 W/m² 2,7 °C 3,6 °C 3,2 km/h (1 Bft)
03.10.2019 04:19 3,6 °C 94 % 1016,6 hPa 0,0 mm 3,0 km/h (1 Bft) S 187 ° 0 min 0,000 mm 0,0 UV-I 0 W/m² 2,7 °C 3,6 °C 6,4 km/h (2 Bft)
03.10.2019 04:20 3,6 °C 94 % 1016,6 hPa 0,0 mm 1,0 km/h (0 Bft) S 187 ° 0 min 0,000 mm 0,0 UV-I 0 W/m² 2,7 °C 3,6 °C 3,2 km/h (1 Bft)
03.10.2019 04:21 3,5 °C 94 % 1016,6 hPa 0,0 mm 0,2 km/h (0 Bft) S 187 ° 0 min 0,000 mm 0,0 UV-I 0 W/m² 2,6 °C 3,5 °C 1,6 km/h (1 Bft)
03.10.2019 04:22 3,4 °C 93 % 1016,7 hPa 0,0 mm 0,9 km/h (0 Bft) S 187 ° 0 min 0,000 mm 0,0 UV-I 0 W/m² 2,4 °C 3,4 °C 3,2 km/h (1 Bft)
03.10.2019 04:23 3,4 °C 93 % 1016,7 hPa 0,0 mm 0,0 km/h (0 Bft) S 187 ° 0 min 0,000 mm 0,0 UV-I 0 W/m² 2,4 °C 3,4 °C 0,0 km/h (0 Bft)
03.10.2019 04:24 3,3 °C 94 % 1016,7 hPa 0,0 mm 0,3 km/h (0 Bft) S 187 ° 0 min 0,000 mm 0,0 UV-I 0 W/m² 2,4 °C 3,3 °C 1,6 km/h (1 Bft)
03.10.2019 04:25 3,3 °C 94 % 1016,7 hPa 0,0 mm 0,0 km/h (0 Bft) S 187 ° 0 min 0,000 mm 0,0 UV-I 0 W/m² 2,4 °C 3,3 °C 0,0 km/h (0 Bft)
03.10.2019 04:26 3,3 °C 94 % 1016,8 hPa 0,0 mm 0,0 km/h (0 Bft) S 187 ° 0 min 0,000 mm 0,0 UV-I 0 W/m² 2,4 °C 3,3 °C 0,0 km/h (0 Bft)
03.10.2019 04:27 3,3 °C 94 % 1016,8 hPa 0,0 mm 1,6 km/h (1 Bft) S 187 ° 0 min 0,000 mm 0,0 UV-I 0 W/m² 2,4 °C 3,3 °C 3,2 km/h (1 Bft)
03.10.2019 04:28 3,3 °C 94 % 1016,8 hPa 0,0 mm 2,6 km/h (1 Bft) S 178 ° 0 min 0,000 mm 0,0 UV-I 0 W/m² 2,4 °C 3,3 °C 6,4 km/h (2 Bft)
03.10.2019 04:29 3,3 °C 94 % 1016,8 hPa 0,0 mm 3,6 km/h (1 Bft) S 180 ° 0 min 0,000 mm 0,0 UV-I 0 W/m² 2,4 °C 3,3 °C 4,8 km/h (1 Bft)
03.10.2019 04:30 3,3 °C 94 % 1016,7 hPa 0,0 mm 2,3 km/h (1 Bft) S 182 ° 0 min 0,000 mm 0,0 UV-I 0 W/m² 2,4 °C 3,3 °C 4,8 km/h (1 Bft)
03.10.2019 04:31 3,4 °C 94 % 1016,7 hPa 0,0 mm 0,5 km/h (0 Bft) S 182 ° 0 min 0,000 mm 0,0 UV-I 0 W/m² 2,5 °C 3,4 °C 1,6 km/h (1 Bft)
03.10.2019 04:32 3,3 °C 94 % 1016,6 hPa 0,0 mm 0,0 km/h (0 Bft) S 182 ° 0 min 0,000 mm 0,0 UV-I 0 W/m² 2,4 °C 3,3 °C 0,0 km/h (0 Bft)
03.10.2019 04:33 3,3 °C 94 % 1016,6 hPa 0,0 mm 2,3 km/h (1 Bft) S-SW 203 ° 0 min 0,000 mm 0,0 UV-I 0 W/m² 2,4 °C 3,3 °C 8,0 km/h (2 Bft)
03.10.2019 04:34 3,4 °C 94 % 1016,6 hPa 0,0 mm 4,2 km/h (1 Bft) S-SW 194 ° 0 min 0,000 mm 0,0 UV-I 0 W/m² 2,5 °C 3,4 °C 6,4 km/h (2 Bft)
03.10.2019 04:35 3,4 °C 94 % 1016,6 hPa 0,0 mm 0,6 km/h (0 Bft) S-SW 194 ° 0 min 0,000 mm 0,0 UV-I 0 W/m² 2,5 °C 3,4 °C 1,6 km/h (1 Bft)
03.10.2019 04:36 3,3 °C 94 % 1016,6 hPa 0,0 mm 0,0 km/h (0 Bft) S-SW 194 ° 0 min 0,000 mm 0,0 UV-I 0 W/m² 2,4 °C 3,3 °C 0,0 km/h (0 Bft)
03.10.2019 04:37 3,3 °C 94 % 1016,6 hPa 0,0 mm 0,0 km/h (0 Bft) S-SW 194 ° 0 min 0,000 mm 0,0 UV-I 0 W/m² 2,4 °C 3,3 °C 0,0 km/h (0 Bft)
03.10.2019 04:38 3,3 °C 94 % 1016,7 hPa 0,0 mm 0,0 km/h (0 Bft) S-SW 194 ° 0 min 0,000 mm 0,0 UV-I 0 W/m² 2,4 °C 3,3 °C 0,0 km/h (0 Bft)
03.10.2019 04:39 3,3 °C 94 % 1016,7 hPa 0,0 mm 0,3 km/h (0 Bft) S-SW 194 ° 0 min 0,000 mm 0,0 UV-I 0 W/m² 2,4 °C 3,3 °C 1,6 km/h (1 Bft)
03.10.2019 04:40 3,2 °C 94 % 1016,7 hPa 0,0 mm 0,0 km/h (0 Bft) S-SW 194 ° 0 min 0,000 mm 0,0 UV-I 0 W/m² 2,3 °C 3,2 °C 0,0 km/h (0 Bft)
03.10.2019 04:41 3,2 °C 94 % 1016,7 hPa 0,0 mm 0,1 km/h (0 Bft) S-SW 194 ° 0 min 0,000 mm 0,0 UV-I 0 W/m² 2,3 °C 3,2 °C 1,6 km/h (1 Bft)
03.10.2019 04:42 3,2 °C 94 % 1016,7 hPa 0,0 mm 0,1 km/h (0 Bft) S-SW 194 ° 0 min 0,000 mm 0,0 UV-I 0 W/m² 2,3 °C 3,2 °C 1,6 km/h (1 Bft)
03.10.2019 04:43 3,2 °C 94 % 1016,7 hPa 0,0 mm 0,0 km/h (0 Bft) S-SW 194 ° 0 min 0,000 mm 0,0 UV-I 0 W/m² 2,3 °C 3,2 °C 0,0 km/h (0 Bft)
03.10.2019 04:44 3,3 °C 94 % 1016,7 hPa 0,0 mm 0,0 km/h (0 Bft) S-SW 194 ° 0 min 0,000 mm 0,0 UV-I 0 W/m² 2,4 °C 3,3 °C 0,0 km/h (0 Bft)
03.10.2019 04:45 3,3 °C 94 % 1016,7 hPa 0,0 mm 0,1 km/h (0 Bft) S-SW 194 ° 0 min 0,000 mm 0,0 UV-I 0 W/m² 2,4 °C 3,3 °C 1,6 km/h (1 Bft)
03.10.2019 04:46 3,3 °C 94 % 1016,7 hPa 0,0 mm 0,0 km/h (0 Bft) S-SW 194 ° 0 min 0,000 mm 0,0 UV-I 0 W/m² 2,4 °C 3,3 °C 0,0 km/h (0 Bft)
03.10.2019 04:47 3,3 °C 94 % 1016,7 hPa 0,0 mm 0,0 km/h (0 Bft) S-SW 194 ° 0 min 0,000 mm 0,0 UV-I 0 W/m² 2,4 °C 3,3 °C 0,0 km/h (0 Bft)
03.10.2019 04:48 3,3 °C 94 % 1016,7 hPa 0,0 mm 0,0 km/h (0 Bft) S-SW 194 ° 0 min 0,000 mm 0,0 UV-I 0 W/m² 2,4 °C 3,3 °C 0,0 km/h (0 Bft)
03.10.2019 04:49 3,4 °C 94 % 1016,7 hPa 0,0 mm 0,0 km/h (0 Bft) S-SW 194 ° 0 min 0,000 mm 0,0 UV-I 0 W/m² 2,5 °C 3,4 °C 0,0 km/h (0 Bft)
03.10.2019 04:50 3,4 °C 94 % 1016,7 hPa 0,0 mm 1,3 km/h (1 Bft) S-SW 196 ° 0 min 0,000 mm 0,0 UV-I 0 W/m² 2,5 °C 3,4 °C 4,8 km/h (1 Bft)
03.10.2019 04:51 3,5 °C 94 % 1016,7 hPa 0,0 mm 0,5 km/h (0 Bft) SW 215 ° 0 min 0,000 mm 0,0 UV-I 0 W/m² 2,6 °C 3,5 °C 3,2 km/h (1 Bft)
03.10.2019 04:52 3,6 °C 94 % 1016,6 hPa 0,0 mm 0,0 km/h (0 Bft) SW 215 ° 0 min 0,000 mm 0,0 UV-I 0 W/m² 2,7 °C 3,6 °C 0,0 km/h (0 Bft)
03.10.2019 04:53 3,6 °C 94 % 1016,6 hPa 0,0 mm 1,7 km/h (1 Bft) SW 229 ° 0 min 0,000 mm 0,0 UV-I 0 W/m² 2,7 °C 3,6 °C 3,2 km/h (1 Bft)
03.10.2019 04:54 3,6 °C 94 % 1016,6 hPa 0,0 mm 3,0 km/h (1 Bft) W 262 ° 0 min 0,000 mm 0,0 UV-I 0 W/m² 2,7 °C 3,6 °C 4,8 km/h (1 Bft)
03.10.2019 04:55 3,7 °C 94 % 1016,6 hPa 0,0 mm 1,4 km/h (1 Bft) W 265 ° 0 min 0,000 mm 0,0 UV-I 0 W/m² 2,8 °C 3,7 °C 3,2 km/h (1 Bft)
03.10.2019 04:56 3,7 °C 94 % 1016,7 hPa 0,0 mm 0,3 km/h (0 Bft) W 265 ° 0 min 0,000 mm 0,0 UV-I 0 W/m² 2,8 °C 3,7 °C 1,6 km/h (1 Bft)
03.10.2019 04:57 3,7 °C 94 % 1016,6 hPa 0,0 mm 0,5 km/h (0 Bft) W 263 ° 0 min 0,000 mm 0,0 UV-I 0 W/m² 2,8 °C 3,7 °C 1,6 km/h (1 Bft)
03.10.2019 04:58 3,8 °C 94 % 1016,6 hPa 0,0 mm 1,9 km/h (1 Bft) W-SW 250 ° 0 min 0,000 mm 0,0 UV-I 0 W/m² 2,9 °C 3,8 °C 6,4 km/h (2 Bft)
03.10.2019 04:59 3,8 °C 94 % 1016,6 hPa 0,0 mm 1,4 km/h (1 Bft) SW 225 ° 0 min 0,000 mm 0,0 UV-I 0 W/m² 2,9 °C 3,8 °C 6,4 km/h (2 Bft)
03.10.2019 05:00 3,8 °C 94 % 1016,6 hPa 0,0 mm 1,2 km/h (1 Bft) W-SW 253 ° 0 min 0,000 mm 0,0 UV-I 0 W/m² 2,9 °C 3,8 °C 4,8 km/h (1 Bft)
03.10.2019 05:01 3,9 °C 94 % 1016,7 hPa 0,0 mm 1,8 km/h (1 Bft) W-SW 244 ° 0 min 0,000 mm 0,0 UV-I 0 W/m² 3,0 °C 3,9 °C 4,8 km/h (1 Bft)
03.10.2019 05:02 3,9 °C 94 % 1016,7 hPa 0,0 mm 1,5 km/h (1 Bft) W 259 ° 0 min 0,000 mm 0,0 UV-I 0 W/m² 3,0 °C 3,9 °C 4,8 km/h (1 Bft)
03.10.2019 05:03 3,9 °C 94 % 1016,7 hPa 0,0 mm 2,8 km/h (1 Bft) W-SW 246 ° 0 min 0,000 mm 0,0 UV-I 0 W/m² 3,0 °C 3,9 °C 4,8 km/h (1 Bft)
03.10.2019 05:04 3,9 °C 94 % 1016,6 hPa 0,0 mm 1,7 km/h (1 Bft) W-SW 246 ° 0 min 0,000 mm 0,0 UV-I 0 W/m² 3,0 °C 3,9 °C 4,8 km/h (1 Bft)
03.10.2019 05:05 3,9 °C 94 % 1016,7 hPa 0,0 mm 0,2 km/h (0 Bft) W-SW 246 ° 0 min 0,000 mm 0,0 UV-I 0 W/m² 3,0 °C 3,9 °C 1,6 km/h (1 Bft)
03.10.2019 05:06 4,0 °C 94 % 1016,7 hPa 0,0 mm 0,0 km/h (0 Bft) W-SW 246 ° 0 min 0,000 mm 0,0 UV-I 0 W/m² 3,1 °C 4,0 °C 0,0 km/h (0 Bft)
03.10.2019 05:07 4,0 °C 94 % 1016,7 hPa 0,0 mm 2,5 km/h (1 Bft) W 263 ° 0 min 0,000 mm 0,0 UV-I 0 W/m² 3,1 °C 4,0 °C 6,4 km/h (2 Bft)
03.10.2019 05:08 4,0 °C 94 % 1016,7 hPa 0,0 mm 0,3 km/h (0 Bft) W 263 ° 0 min 0,000 mm 0,0 UV-I 0 W/m² 3,1 °C 4,0 °C 1,6 km/h (1 Bft)
03.10.2019 05:09 4,1 °C 94 % 1016,7 hPa 0,0 mm 0,5 km/h (0 Bft) W-SW 255 ° 0 min 0,000 mm 0,0 UV-I 0 W/m² 3,2 °C 4,1 °C 1,6 km/h (1 Bft)
03.10.2019 05:10 4,1 °C 94 % 1016,7 hPa 0,0 mm 2,6 km/h (1 Bft) SW 234 ° 0 min 0,000 mm 0,0 UV-I 0 W/m² 3,2 °C 4,1 °C 4,8 km/h (1 Bft)
03.10.2019 05:11 4,1 °C 94 % 1016,7 hPa 0,0 mm 5,0 km/h (1 Bft) SW 236 ° 0 min 0,000 mm 0,0 UV-I 0 W/m² 3,2 °C 3,1 °C 11,3 km/h (2 Bft)
03.10.2019 05:12 4,1 °C 94 % 1016,7 hPa 0,0 mm 2,4 km/h (1 Bft) W 262 ° 0 min 0,000 mm 0,0 UV-I 0 W/m² 3,2 °C 4,1 °C 9,7 km/h (2 Bft)
03.10.2019 05:13 4,2 °C 94 % 1016,7 hPa 0,0 mm 0,1 km/h (0 Bft) W 262 ° 0 min 0,000 mm 0,0 UV-I 0 W/m² 3,3 °C 4,2 °C 1,6 km/h (1 Bft)
03.10.2019 05:14 4,2 °C 94 % 1016,7 hPa 0,0 mm 3,4 km/h (1 Bft) W-SW 252 ° 0 min 0,000 mm 0,0 UV-I 0 W/m² 3,3 °C 4,2 °C 4,8 km/h (1 Bft)
03.10.2019 05:15 4,2 °C 94 % 1016,7 hPa 0,0 mm 2,0 km/h (1 Bft) W 264 ° 0 min 0,000 mm 0,0 UV-I 0 W/m² 3,3 °C 4,2 °C 6,4 km/h (2 Bft)
03.10.2019 05:16 4,2 °C 94 % 1016,7 hPa 0,0 mm 0,3 km/h (0 Bft) W 263 ° 0 min 0,000 mm 0,0 UV-I 0 W/m² 3,3 °C 4,2 °C 1,6 km/h (1 Bft)
03.10.2019 05:17 4,3 °C 94 % 1016,7 hPa 0,0 mm 1,4 km/h (1 Bft) SW 234 ° 0 min 0,000 mm 0,0 UV-I 0 W/m² 3,4 °C 4,3 °C 4,8 km/h (1 Bft)
03.10.2019 05:18 4,3 °C 94 % 1016,7 hPa 0,0 mm 1,5 km/h (1 Bft) SW 233 ° 0 min 0,000 mm 0,0 UV-I 0 W/m² 3,4 °C 4,3 °C 3,2 km/h (1 Bft)
03.10.2019 05:19 4,3 °C 94 % 1016,7 hPa 0,0 mm 1,8 km/h (1 Bft) SW 234 ° 0 min 0,000 mm 0,0 UV-I 0 W/m² 3,4 °C 4,3 °C 6,4 km/h (2 Bft)
03.10.2019 05:20 4,3 °C 94 % 1016,7 hPa 0,0 mm 1,1 km/h (1 Bft) SW 231 ° 0 min 0,000 mm 0,0 UV-I 0 W/m² 3,4 °C 4,3 °C 3,2 km/h (1 Bft)
03.10.2019 05:21 4,3 °C 94 % 1016,7 hPa 0,0 mm 2,1 km/h (1 Bft) W-SW 240 ° 0 min 0,000 mm 0,0 UV-I 0 W/m² 3,4 °C 4,3 °C 3,2 km/h (1 Bft)
03.10.2019 05:22 4,3 °C 94 % 1016,7 hPa 0,0 mm 3,9 km/h (1 Bft) S-SW 201 ° 0 min 0,000 mm 0,0 UV-I 0 W/m² 3,4 °C 4,3 °C 6,4 km/h (2 Bft)
03.10.2019 05:23 4,3 °C 94 % 1016,7 hPa 0,0 mm 4,6 km/h (1 Bft) SW 223 ° 0 min 0,000 mm 0,0 UV-I 0 W/m² 3,4 °C 3,5 °C 11,3 km/h (2 Bft)
03.10.2019 05:24 4,3 °C 94 % 1016,7 hPa 0,0 mm 2,8 km/h (1 Bft) SW 229 ° 0 min 0,000 mm 0,0 UV-I 0 W/m² 3,4 °C 4,3 °C 4,8 km/h (1 Bft)
03.10.2019 05:25 4,4 °C 93 % 1016,7 hPa 0,0 mm 1,1 km/h (1 Bft) SW 229 ° 0 min 0,000 mm 0,0 UV-I 0 W/m² 3,4 °C 4,4 °C 3,2 km/h (1 Bft)
03.10.2019 05:26 4,4 °C 93 % 1016,7 hPa 0,0 mm 0,7 km/h (0 Bft) W-SW 257 ° 0 min 0,000 mm 0,0 UV-I 0 W/m² 3,4 °C 4,4 °C 4,8 km/h (1 Bft)
03.10.2019 05:27 4,4 °C 93 % 1016,7 hPa 0,0 mm 0,0 km/h (0 Bft) W-SW 256 ° 0 min 0,000 mm 0,0 UV-I 0 W/m² 3,4 °C 4,4 °C 0,0 km/h (0 Bft)
03.10.2019 05:28 4,4 °C 93 % 1016,7 hPa 0,0 mm 0,7 km/h (0 Bft) W-SW 256 ° 0 min 0,000 mm 0,0 UV-I 0 W/m² 3,4 °C 4,4 °C 1,6 km/h (1 Bft)
03.10.2019 05:29 4,4 °C 93 % 1016,7 hPa 0,0 mm 0,5 km/h (0 Bft) W-SW 255 ° 0 min 0,000 mm 0,0 UV-I 0 W/m² 3,4 °C 4,4 °C 3,2 km/h (1 Bft)
03.10.2019 05:30 4,4 °C 93 % 1016,8 hPa 0,0 mm 1,8 km/h (1 Bft) W-SW 251 ° 0 min 0,000 mm 0,0 UV-I 0 W/m² 3,4 °C 4,4 °C 3,2 km/h (1 Bft)
03.10.2019 05:31 4,4 °C 93 % 1016,7 hPa 0,0 mm 0,0 km/h (0 Bft) W-SW 251 ° 0 min 0,000 mm 0,0 UV-I 0 W/m² 3,4 °C 4,4 °C 0,0 km/h (0 Bft)
03.10.2019 05:32 4,4 °C 93 % 1016,8 hPa 0,0 mm 3,2 km/h (1 Bft) W 263 ° 0 min 0,000 mm 0,0 UV-I 0 W/m² 3,4 °C 4,4 °C 4,8 km/h (1 Bft)
03.10.2019 05:33 4,4 °C 93 % 1016,8 hPa 0,0 mm 0,9 km/h (0 Bft) W 262 ° 0 min 0,000 mm 0,0 UV-I 0 W/m² 3,4 °C 4,4 °C 3,2 km/h (1 Bft)
03.10.2019 05:34 4,4 °C 93 % 1016,8 hPa 0,0 mm 0,0 km/h (0 Bft) W 261 ° 0 min 0,000 mm 0,0 UV-I 0 W/m² 3,4 °C 4,4 °C 0,0 km/h (0 Bft)
03.10.2019 05:35 4,4 °C 93 % 1016,8 hPa 0,0 mm 0,2 km/h (0 Bft) W 261 ° 0 min 0,000 mm 0,0 UV-I 0 W/m² 3,4 °C 4,4 °C 1,6 km/h (1 Bft)
03.10.2019 05:36 4,4 °C 93 % 1016,8 hPa 0,0 mm 1,5 km/h (1 Bft) W-SW 252 ° 0 min 0,000 mm 0,0 UV-I 0 W/m² 3,4 °C 4,4 °C 3,2 km/h (1 Bft)
03.10.2019 05:37 4,4 °C 93 % 1016,8 hPa 0,0 mm 0,9 km/h (0 Bft) W-SW 253 ° 0 min 0,000 mm 0,0 UV-I 0 W/m² 3,4 °C 4,4 °C 4,8 km/h (1 Bft)
03.10.2019 05:38 4,5 °C 93 % 1016,8 hPa 0,0 mm 1,7 km/h (1 Bft) W-SW 252 ° 0 min 0,000 mm 0,0 UV-I 0 W/m² 3,5 °C 4,5 °C 4,8 km/h (1 Bft)
03.10.2019 05:39 4,5 °C 93 % 1016,8 hPa 0,0 mm 0,3 km/h (0 Bft) W-SW 252 ° 0 min 0,000 mm 0,0 UV-I 0 W/m² 3,5 °C 4,5 °C 1,6 km/h (1 Bft)
03.10.2019 05:40 4,6 °C 93 % 1016,9 hPa 0,0 mm 1,2 km/h (1 Bft) W-SW 252 ° 0 min 0,000 mm 0,0 UV-I 0 W/m² 3,6 °C 4,6 °C 3,2 km/h (1 Bft)
03.10.2019 05:41 4,6 °C 93 % 1016,9 hPa 0,0 mm 0,8 km/h (0 Bft) W-SW 252 ° 0 min 0,000 mm 0,0 UV-I 0 W/m² 3,6 °C 4,6 °C 3,2 km/h (1 Bft)
03.10.2019 05:42 4,6 °C 93 % 1016,9 hPa 0,0 mm 6,1 km/h (2 Bft) W-SW 257 ° 0 min 0,000 mm 0,0 UV-I 0 W/m² 3,6 °C 3,2 °C 9,7 km/h (2 Bft)
03.10.2019 05:43 4,6 °C 93 % 1016,8 hPa 0,0 mm 1,3 km/h (1 Bft) SW 218 ° 0 min 0,000 mm 0,0 UV-I 0 W/m² 3,6 °C 4,6 °C 4,8 km/h (1 Bft)
03.10.2019 05:44 4,6 °C 93 % 1016,9 hPa 0,0 mm 2,1 km/h (1 Bft) SW 222 ° 0 min 0,000 mm 0,0 UV-I 0 W/m² 3,6 °C 4,6 °C 3,2 km/h (1 Bft)
03.10.2019 05:45 4,6 °C 93 % 1016,9 hPa 0,0 mm 3,0 km/h (1 Bft) W 275 ° 0 min 0,000 mm 0,0 UV-I 0 W/m² 3,6 °C 4,6 °C 4,8 km/h (1 Bft)
03.10.2019 05:46 4,6 °C 93 % 1016,8 hPa 0,0 mm 1,5 km/h (1 Bft) W 271 ° 0 min 0,000 mm 0,0 UV-I 0 W/m² 3,6 °C 4,6 °C 4,8 km/h (1 Bft)
03.10.2019 05:47 4,6 °C 93 % 1016,9 hPa 0,0 mm 0,1 km/h (0 Bft) W 271 ° 0 min 0,000 mm 0,0 UV-I 0 W/m² 3,6 °C 4,6 °C 1,6 km/h (1 Bft)
03.10.2019 05:48 4,6 °C 93 % 1016,9 hPa 0,0 mm 1,9 km/h (1 Bft) W 269 ° 0 min 0,000 mm 0,0 UV-I 0 W/m² 3,6 °C 4,6 °C 4,8 km/h (1 Bft)
03.10.2019 05:49 4,6 °C 93 % 1016,9 hPa 0,0 mm 2,0 km/h (1 Bft) W 271 ° 0 min 0,000 mm 0,0 UV-I 0 W/m² 3,6 °C 4,6 °C 3,2 km/h (1 Bft)
03.10.2019 05:50 4,6 °C 93 % 1016,9 hPa 0,0 mm 3,4 km/h (1 Bft) W-SW 254 ° 0 min 0,000 mm 0,0 UV-I 0 W/m² 3,6 °C 4,6 °C 6,4 km/h (2 Bft)
03.10.2019 05:51 4,6 °C 93 % 1016,9 hPa 0,0 mm 1,8 km/h (1 Bft) W-SW 254 ° 0 min 0,000 mm 0,0 UV-I 0 W/m² 3,6 °C 4,6 °C 3,2 km/h (1 Bft)
03.10.2019 05:52 4,6 °C 93 % 1016,9 hPa 0,0 mm 3,3 km/h (1 Bft) W 274 ° 0 min 0,000 mm 0,0 UV-I 0 W/m² 3,6 °C 4,6 °C 9,7 km/h (2 Bft)
03.10.2019 05:53 4,6 °C 93 % 1016,9 hPa 0,0 mm 3,9 km/h (1 Bft) W-SW 246 ° 0 min 0,000 mm 0,0 UV-I 0 W/m² 3,6 °C 4,6 °C 6,4 km/h (2 Bft)
03.10.2019 05:54 4,6 °C 93 % 1016,8 hPa 0,0 mm 3,4 km/h (1 Bft) W-SW 251 ° 0 min 0,000 mm 0,0 UV-I 0 W/m² 3,6 °C 4,6 °C 6,4 km/h (2 Bft)
03.10.2019 05:55 4,6 °C 93 % 1016,9 hPa 0,0 mm 3,7 km/h (1 Bft) W 268 ° 0 min 0,000 mm 0,0 UV-I 0 W/m² 3,6 °C 4,6 °C 9,7 km/h (2 Bft)
03.10.2019 05:56 4,6 °C 93 % 1016,9 hPa 0,0 mm 2,1 km/h (1 Bft) W 269 ° 0 min 0,000 mm 0,0 UV-I 0 W/m² 3,6 °C 4,6 °C 4,8 km/h (1 Bft)
03.10.2019 05:57 4,6 °C 93 % 1016,9 hPa 0,0 mm 0,1 km/h (0 Bft) W 269 ° 0 min 0,000 mm 0,0 UV-I 0 W/m² 3,6 °C 4,6 °C 1,6 km/h (1 Bft)
03.10.2019 05:58 4,6 °C 93 % 1016,9 hPa 0,0 mm 1,5 km/h (1 Bft) W 266 ° 0 min 0,000 mm 0,0 UV-I 0 W/m² 3,6 °C 4,6 °C 3,2 km/h (1 Bft)
03.10.2019 05:59 4,6 °C 93 % 1016,9 hPa 0,0 mm 3,4 km/h (1 Bft) W 264 ° 0 min 0,000 mm 0,0 UV-I 0 W/m² 3,6 °C 4,6 °C 4,8 km/h (1 Bft)
03.10.2019 06:00 4,6 °C 93 % 1016,9 hPa 0,0 mm 1,9 km/h (1 Bft) W 265 ° 0 min 0,000 mm 0,0 UV-I 0 W/m² 3,6 °C 4,6 °C 4,8 km/h (1 Bft)
03.10.2019 06:01 4,6 °C 93 % 1016,9 hPa 0,0 mm 2,4 km/h (1 Bft) W 264 ° 0 min 0,000 mm 0,0 UV-I 0 W/m² 3,6 °C 4,6 °C 4,8 km/h (1 Bft)
03.10.2019 06:02 4,6 °C 93 % 1016,9 hPa 0,0 mm 0,8 km/h (0 Bft) W 264 ° 0 min 0,000 mm 0,0 UV-I 0 W/m² 3,6 °C 4,6 °C 3,2 km/h (1 Bft)
03.10.2019 06:03 4,6 °C 93 % 1016,9 hPa 0,0 mm 1,7 km/h (1 Bft) W 262 ° 0 min 0,000 mm 0,0 UV-I 0 W/m² 3,6 °C 4,6 °C 3,2 km/h (1 Bft)
03.10.2019 06:04 4,6 °C 93 % 1016,9 hPa 0,0 mm 2,3 km/h (1 Bft) W 263 ° 0 min 0,000 mm 0,0 UV-I 0 W/m² 3,6 °C 4,6 °C 4,8 km/h (1 Bft)
03.10.2019 06:05 4,6 °C 93 % 1017,0 hPa 0,0 mm 0,7 km/h (0 Bft) W 263 ° 0 min 0,000 mm 0,0 UV-I 0 W/m² 3,6 °C 4,6 °C 3,2 km/h (1 Bft)
03.10.2019 06:06 4,6 °C 93 % 1017,0 hPa 0,0 mm 0,0 km/h (0 Bft) W 263 ° 0 min 0,000 mm 0,0 UV-I 0 W/m² 3,6 °C 4,6 °C 0,0 km/h (0 Bft)
03.10.2019 06:07 4,6 °C 93 % 1017,0 hPa 0,0 mm 0,0 km/h (0 Bft) W 263 ° 0 min 0,000 mm 0,0 UV-I 0 W/m² 3,6 °C 4,6 °C 0,0 km/h (0 Bft)
03.10.2019 06:08 4,6 °C 93 % 1017,0 hPa 0,0 mm 0,0 km/h (0 Bft) W 263 ° 0 min 0,000 mm 0,0 UV-I 0 W/m² 3,6 °C 4,6 °C 0,0 km/h (0 Bft)
03.10.2019 06:09 4,6 °C 93 % 1017,1 hPa 0,0 mm 0,1 km/h (0 Bft) W 263 ° 0 min 0,000 mm 0,0 UV-I 0 W/m² 3,6 °C 4,6 °C 1,6 km/h (1 Bft)
03.10.2019 06:10 4,6 °C 93 % 1017,1 hPa 0,0 mm 0,1 km/h (0 Bft) W 263 ° 0 min 0,000 mm 0,0 UV-I 0 W/m² 3,6 °C 4,6 °C 1,6 km/h (1 Bft)
03.10.2019 06:11 4,5 °C 93 % 1017,1 hPa 0,0 mm 0,1 km/h (0 Bft) W 263 ° 0 min 0,000 mm 0,0 UV-I 0 W/m² 3,5 °C 4,5 °C 1,6 km/h (1 Bft)
03.10.2019 06:12 4,5 °C 93 % 1017,1 hPa 0,0 mm 2,8 km/h (1 Bft) W-SW 257 ° 0 min 0,000 mm 0,0 UV-I 0 W/m² 3,5 °C 4,5 °C 4,8 km/h (1 Bft)
03.10.2019 06:13 4,6 °C 93 % 1017,1 hPa 0,0 mm 4,7 km/h (1 Bft) W-SW 258 ° 0 min 0,000 mm 0,0 UV-I 0 W/m² 3,6 °C 3,8 °C 6,4 km/h (2 Bft)
03.10.2019 06:14 4,6 °C 93 % 1017,1 hPa 0,0 mm 3,8 km/h (1 Bft) W-SW 258 ° 0 min 0,000 mm 0,0 UV-I 0 W/m² 3,6 °C 4,6 °C 4,8 km/h (1 Bft)
03.10.2019 06:15 4,6 °C 93 % 1017,1 hPa 0,0 mm 5,3 km/h (1 Bft) W 263 ° 0 min 0,000 mm 0,0 UV-I 0 W/m² 3,6 °C 3,5 °C 9,7 km/h (2 Bft)
03.10.2019 06:16 4,6 °C 93 % 1017,1 hPa 0,0 mm 3,9 km/h (1 Bft) W-SW 258 ° 0 min 0,000 mm 0,0 UV-I 0 W/m² 3,6 °C 4,6 °C 6,4 km/h (2 Bft)
03.10.2019 06:17 4,6 °C 93 % 1017,1 hPa 0,0 mm 1,9 km/h (1 Bft) W-SW 246 ° 0 min 0,000 mm 0,0 UV-I 0 W/m² 3,6 °C 4,6 °C 3,2 km/h (1 Bft)
03.10.2019 06:18 4,6 °C 93 % 1017,1 hPa 0,0 mm 1,3 km/h (1 Bft) W-SW 246 ° 0 min 0,000 mm 0,0 UV-I 0 W/m² 3,6 °C 4,6 °C 6,4 km/h (2 Bft)
03.10.2019 06:19 4,6 °C 93 % 1017,1 hPa 0,0 mm 6,4 km/h (2 Bft) W 260 ° 0 min 0,000 mm 0,0 UV-I 0 W/m² 3,6 °C 3,1 °C 9,7 km/h (2 Bft)
03.10.2019 06:20 4,6 °C 93 % 1017,1 hPa 0,0 mm 6,4 km/h (2 Bft) W 265 ° 0 min 0,000 mm 0,0 UV-I 0 W/m² 3,6 °C 3,1 °C 9,7 km/h (2 Bft)
03.10.2019 06:21 4,6 °C 93 % 1017,1 hPa 0,0 mm 0,8 km/h (0 Bft) W 266 ° 0 min 0,000 mm 0,0 UV-I 0 W/m² 3,6 °C 4,6 °C 3,2 km/h (1 Bft)
03.10.2019 06:22 4,5 °C 93 % 1017,1 hPa 0,0 mm 0,3 km/h (0 Bft) W 266 ° 0 min 0,000 mm 0,0 UV-I 0 W/m² 3,5 °C 4,5 °C 1,6 km/h (1 Bft)
03.10.2019 06:23 4,5 °C 93 % 1017,1 hPa 0,0 mm 5,1 km/h (1 Bft) W 261 ° 0 min 0,000 mm 0,0 UV-I 0 W/m² 3,5 °C 3,5 °C 6,4 km/h (2 Bft)
03.10.2019 06:24 4,6 °C 93 % 1017,1 hPa 0,0 mm 4,3 km/h (1 Bft) W 259 ° 0 min 0,000 mm 0,0 UV-I 0 W/m² 3,6 °C 4,6 °C 6,4 km/h (2 Bft)
03.10.2019 06:25 4,6 °C 93 % 1017,1 hPa 0,0 mm 3,4 km/h (1 Bft) W-SW 253 ° 0 min 0,000 mm 0,0 UV-I 0 W/m² 3,6 °C 4,6 °C 8,0 km/h (2 Bft)
03.10.2019 06:26 4,5 °C 93 % 1017,1 hPa 0,0 mm 3,6 km/h (1 Bft) W 267 ° 0 min 0,000 mm 0,0 UV-I 0 W/m² 3,5 °C 4,5 °C 9,7 km/h (2 Bft)
03.10.2019 06:27 4,6 °C 93 % 1017,1 hPa 0,0 mm 6,2 km/h (2 Bft) W-SW 244 ° 0 min 0,000 mm 0,0 UV-I 0 W/m² 3,6 °C 3,2 °C 12,9 km/h (3 Bft)
03.10.2019 06:28 4,6 °C 93 % 1017,1 hPa 0,0 mm 4,2 km/h (1 Bft) SW 223 ° 0 min 0,000 mm 0,0 UV-I 0 W/m² 3,6 °C 4,6 °C 6,4 km/h (2 Bft)
03.10.2019 06:29 4,6 °C 93 % 1017,1 hPa 0,0 mm 2,0 km/h (1 Bft) SW 224 ° 0 min 0,000 mm 0,0 UV-I 0 W/m² 3,6 °C 4,6 °C 4,8 km/h (1 Bft)
03.10.2019 06:30 4,6 °C 93 % 1017,1 hPa 0,0 mm 4,4 km/h (1 Bft) W 261 ° 0 min 0,000 mm 0,0 UV-I 0 W/m² 3,6 °C 4,6 °C 9,7 km/h (2 Bft)
03.10.2019 06:31 4,5 °C 93 % 1017,1 hPa 0,0 mm 3,8 km/h (1 Bft) W-SW 244 ° 0 min 0,000 mm 0,0 UV-I 0 W/m² 3,5 °C 4,5 °C 6,4 km/h (2 Bft)
03.10.2019 06:32 4,6 °C 93 % 1017,2 hPa 0,2 mm 7,6 km/h (2 Bft) W 262 ° 0 min 0,000 mm 0,0 UV-I 0 W/m² 3,6 °C 2,8 °C 11,3 km/h (2 Bft)
03.10.2019 06:33 4,6 °C 93 % 1017,1 hPa 0,0 mm 6,5 km/h (2 Bft) W 265 ° 0 min 0,000 mm 0,0 UV-I 0 W/m² 3,6 °C 3,1 °C 9,7 km/h (2 Bft)
03.10.2019 06:34 4,6 °C 93 % 1017,1 hPa 0,0 mm 3,7 km/h (1 Bft) W-NW 292 ° 0 min 0,000 mm 0,0 UV-I 0 W/m² 3,6 °C 4,6 °C 4,8 km/h (1 Bft)
03.10.2019 06:35 4,6 °C 93 % 1017,1 hPa 0,0 mm 8,9 km/h (2 Bft) W 270 ° 0 min 0,000 mm 0,0 UV-I 0 W/m² 3,6 °C 2,4 °C 12,9 km/h (3 Bft)
03.10.2019 06:36 4,6 °C 93 % 1017,2 hPa 0,0 mm 5,0 km/h (1 Bft) W 269 ° 0 min 0,000 mm 0,0 UV-I 0 W/m² 3,6 °C 3,6 °C 11,3 km/h (2 Bft)
03.10.2019 06:37 4,6 °C 93 % 1017,2 hPa 0,0 mm 4,0 km/h (1 Bft) W-SW 242 ° 0 min 0,000 mm 0,0 UV-I 0 W/m² 3,6 °C 4,6 °C 6,4 km/h (2 Bft)
03.10.2019 06:38 4,6 °C 93 % 1017,2 hPa 0,0 mm 2,6 km/h (1 Bft) SW 236 ° 0 min 0,000 mm 0,0 UV-I 0 W/m² 3,6 °C 4,6 °C 4,8 km/h (1 Bft)
03.10.2019 06:39 4,6 °C 93 % 1017,1 hPa 0,0 mm 6,4 km/h (2 Bft) W-SW 252 ° 0 min 0,000 mm 0,0 UV-I 0 W/m² 3,6 °C 3,1 °C 9,7 km/h (2 Bft)
03.10.2019 06:40 4,6 °C 93 % 1017,2 hPa 0,0 mm 3,9 km/h (1 Bft) W 276 ° 0 min 0,000 mm 0,0 UV-I 0 W/m² 3,6 °C 4,6 °C 6,4 km/h (2 Bft)
03.10.2019 06:41 4,6 °C 93 % 1017,2 hPa 0,0 mm 0,1 km/h (0 Bft) W 276 ° 0 min 0,000 mm 0,0 UV-I 0 W/m² 3,6 °C 4,6 °C 1,6 km/h (1 Bft)
03.10.2019 06:42 4,6 °C 93 % 1017,2 hPa 0,0 mm 2,4 km/h (1 Bft) W 275 ° 0 min 0,000 mm 0,0 UV-I 0 W/m² 3,6 °C 4,6 °C 4,8 km/h (1 Bft)
03.10.2019 06:43 4,6 °C 93 % 1017,2 hPa 0,0 mm 3,4 km/h (1 Bft) W-SW 244 ° 0 min 0,000 mm 0,0 UV-I 0 W/m² 3,6 °C 4,6 °C 6,4 km/h (2 Bft)
03.10.2019 06:44 4,6 °C 93 % 1017,2 hPa 0,0 mm 4,7 km/h (1 Bft) W 275 ° 0 min 0,000 mm 0,0 UV-I 0 W/m² 3,6 °C 3,8 °C 12,9 km/h (3 Bft)
03.10.2019 06:45 4,6 °C 93 % 1017,2 hPa 0,0 mm 8,0 km/h (2 Bft) W 263 ° 0 min 0,000 mm 0,0 UV-I 0 W/m² 3,6 °C 2,7 °C 12,9 km/h (3 Bft)
03.10.2019 06:46 4,5 °C 93 % 1017,2 hPa 0,0 mm 1,0 km/h (0 Bft) W 261 ° 0 min 0,000 mm 0,0 UV-I 0 W/m² 3,5 °C 4,5 °C 3,2 km/h (1 Bft)
03.10.2019 06:47 4,5 °C 93 % 1017,2 hPa 0,0 mm 3,3 km/h (1 Bft) W 271 ° 0 min 0,000 mm 0,0 UV-I 0 W/m² 3,5 °C 4,5 °C 4,8 km/h (1 Bft)
03.10.2019 06:48 4,5 °C 93 % 1017,2 hPa 0,0 mm 2,6 km/h (1 Bft) W 271 ° 0 min 0,000 mm 0,0 UV-I 0 W/m² 3,5 °C 4,5 °C 3,2 km/h (1 Bft)
03.10.2019 06:49 4,5 °C 93 % 1017,3 hPa 0,0 mm 3,8 km/h (1 Bft) W-NW 287 ° 0 min 0,000 mm 0,0 UV-I 0 W/m² 3,5 °C 4,5 °C 6,4 km/h (2 Bft)
03.10.2019 06:50 4,5 °C 93 % 1017,3 hPa 0,0 mm 7,0 km/h (2 Bft) W 274 ° 0 min 0,000 mm 0,0 UV-I 0 W/m² 3,5 °C 2,8 °C 12,9 km/h (3 Bft)
03.10.2019 06:51 4,5 °C 93 % 1017,3 hPa 0,0 mm 5,3 km/h (1 Bft) W 269 ° 0 min 0,000 mm 0,0 UV-I 0 W/m² 3,5 °C 3,4 °C 9,7 km/h (2 Bft)
03.10.2019 06:52 4,5 °C 93 % 1017,2 hPa 0,0 mm 4,4 km/h (1 Bft) W 273 ° 0 min 0,000 mm 0,0 UV-I 0 W/m² 3,5 °C 4,5 °C 6,4 km/h (2 Bft)
03.10.2019 06:53 4,5 °C 93 % 1017,3 hPa 0,0 mm 9,6 km/h (2 Bft) W 264 ° 0 min 0,000 mm 0,0 UV-I 0 W/m² 3,5 °C 2,2 °C 11,3 km/h (2 Bft)
03.10.2019 06:54 4,5 °C 93 % 1017,3 hPa 0,0 mm 5,3 km/h (1 Bft) W 269 ° 0 min 0,000 mm 0,0 UV-I 0 W/m² 3,5 °C 3,4 °C 9,7 km/h (2 Bft)
03.10.2019 06:55 4,5 °C 93 % 1017,3 hPa 0,0 mm 8,6 km/h (2 Bft) W 281 ° 0 min 0,000 mm 0,0 UV-I 0 W/m² 3,5 °C 2,4 °C 14,5 km/h (3 Bft)
03.10.2019 06:56 4,5 °C 93 % 1017,4 hPa 0,0 mm 5,2 km/h (1 Bft) W 276 ° 0 min 0,000 mm 0,0 UV-I 0 W/m² 3,5 °C 3,4 °C 11,3 km/h (2 Bft)
03.10.2019 06:57 4,5 °C 93 % 1017,4 hPa 0,0 mm 2,6 km/h (1 Bft) W 277 ° 0 min 0,000 mm 0,0 UV-I 0 W/m² 3,5 °C 4,5 °C 4,8 km/h (1 Bft)
03.10.2019 06:58 4,5 °C 93 % 1017,3 hPa 0,0 mm 2,8 km/h (1 Bft) W-SW 252 ° 0 min 0,000 mm 0,0 UV-I 0 W/m² 3,5 °C 4,5 °C 8,0 km/h (2 Bft)
03.10.2019 06:59 4,5 °C 93 % 1017,4 hPa 0,0 mm 6,3 km/h (2 Bft) W 263 ° 0 min 0,000 mm 0,0 UV-I 0 W/m² 3,5 °C 3,0 °C 8,0 km/h (2 Bft)
03.10.2019 07:00 4,5 °C 93 % 1017,4 hPa 0,0 mm 3,0 km/h (1 Bft) W-SW 258 ° 0 min 0,000 mm 0,0 UV-I 0 W/m² 3,5 °C 4,5 °C 6,4 km/h (2 Bft)
03.10.2019 07:01 4,5 °C 93 % 1017,4 hPa 0,0 mm 6,8 km/h (2 Bft) W-SW 258 ° 0 min 0,000 mm 0,0 UV-I 0 W/m² 3,5 °C 2,9 °C 9,7 km/h (2 Bft)
03.10.2019 07:02 4,5 °C 93 % 1017,4 hPa 0,0 mm 3,3 km/h (1 Bft) W-SW 244 ° 0 min 0,000 mm 0,0 UV-I 0 W/m² 3,5 °C 4,5 °C 6,4 km/h (2 Bft)
03.10.2019 07:03 4,5 °C 93 % 1017,4 hPa 0,0 mm 0,3 km/h (0 Bft) W-SW 243 ° 0 min 0,000 mm 0,0 UV-I 0 W/m² 3,5 °C 4,5 °C 1,6 km/h (1 Bft)
03.10.2019 07:04 4,4 °C 93 % 1017,4 hPa 0,0 mm 2,3 km/h (1 Bft) W-SW 257 ° 0 min 0,000 mm 0,0 UV-I 0 W/m² 3,4 °C 4,4 °C 9,7 km/h (2 Bft)
03.10.2019 07:05 4,4 °C 93 % 1017,4 hPa 0,0 mm 2,4 km/h (1 Bft) W 268 ° 0 min 0,000 mm 0,0 UV-I 0 W/m² 3,4 °C 4,4 °C 4,8 km/h (1 Bft)
03.10.2019 07:06 4,5 °C 93 % 1017,5 hPa 0,0 mm 5,4 km/h (1 Bft) W 274 ° 0 min 0,000 mm 0,0 UV-I 0 W/m² 3,5 °C 3,4 °C 9,7 km/h (2 Bft)
03.10.2019 07:07 4,4 °C 93 % 1017,5 hPa 0,0 mm 2,0 km/h (1 Bft) W 279 ° 0 min 0,000 mm 0,0 UV-I 0 W/m² 3,4 °C 4,4 °C 4,8 km/h (1 Bft)
03.10.2019 07:08 4,5 °C 93 % 1017,5 hPa 0,0 mm 1,1 km/h (1 Bft) W 279 ° 0 min 0,000 mm 0,0 UV-I 0 W/m² 3,5 °C 4,5 °C 3,2 km/h (1 Bft)
03.10.2019 07:09 4,5 °C 93 % 1017,5 hPa 0,0 mm 1,5 km/h (1 Bft) W-NW 282 ° 0 min 0,000 mm 0,0 UV-I 0 W/m² 3,5 °C 4,5 °C 4,8 km/h (1 Bft)
03.10.2019 07:10 4,5 °C 93 % 1017,5 hPa 0,0 mm 3,5 km/h (1 Bft) W-SW 243 ° 0 min 0,000 mm 0,0 UV-I 0 W/m² 3,5 °C 4,5 °C 6,4 km/h (2 Bft)
03.10.2019 07:11 4,5 °C 93 % 1017,6 hPa 0,0 mm 2,1 km/h (1 Bft) W 259 ° 0 min 0,000 mm 0,0 UV-I 0 W/m² 3,5 °C 4,5 °C 4,8 km/h (1 Bft)
03.10.2019 07:12 4,5 °C 93 % 1017,6 hPa 0,0 mm 4,2 km/h (1 Bft) W-SW 257 ° 0 min 0,000 mm 0,0 UV-I 0 W/m² 3,5 °C 4,5 °C 11,3 km/h (2 Bft)
03.10.2019 07:13 4,5 °C 93 % 1017,6 hPa 0,0 mm 3,6 km/h (1 Bft) W-SW 252 ° 0 min 0,000 mm 0,0 UV-I 0 W/m² 3,5 °C 4,5 °C 9,7 km/h (2 Bft)
03.10.2019 07:14 4,5 °C 93 % 1017,6 hPa 0,0 mm 2,9 km/h (1 Bft) W 271 ° 0 min 0,000 mm 0,0 UV-I 0 W/m² 3,5 °C 4,5 °C 9,7 km/h (2 Bft)
03.10.2019 07:15 4,5 °C 93 % 1017,6 hPa 0,0 mm 5,9 km/h (2 Bft) W-SW 242 ° 0 min 0,000 mm 0,0 UV-I 0 W/m² 3,5 °C 3,2 °C 9,7 km/h (2 Bft)
03.10.2019 07:16 4,6 °C 93 % 1017,7 hPa 0,0 mm 2,5 km/h (1 Bft) SW 229 ° 0 min 0,000 mm 0,0 UV-I 0 W/m² 3,6 °C 4,6 °C 6,4 km/h (2 Bft)
03.10.2019 07:17 4,5 °C 93 % 1017,7 hPa 0,0 mm 0,7 km/h (0 Bft) SW 229 ° 0 min 0,000 mm 0,0 UV-I 0 W/m² 3,5 °C 4,5 °C 3,2 km/h (1 Bft)
03.10.2019 07:18 4,6 °C 93 % 1017,7 hPa 0,0 mm 3,8 km/h (1 Bft) W 263 ° 0 min 0,000 mm 0,0 UV-I 0 W/m² 3,6 °C 4,6 °C 9,7 km/h (2 Bft)
03.10.2019 07:19 4,5 °C 93 % 1017,7 hPa 0,0 mm 3,5 km/h (1 Bft) W 264 ° 0 min 0,000 mm 0,0 UV-I 0 W/m² 3,5 °C 4,5 °C 6,4 km/h (2 Bft)
03.10.2019 07:20 4,6 °C 93 % 1017,7 hPa 0,0 mm 3,8 km/h (1 Bft) W 259 ° 0 min 0,000 mm 0,0 UV-I 0 W/m² 3,6 °C 4,6 °C 4,8 km/h (1 Bft)
03.10.2019 07:21 4,6 °C 93 % 1017,7 hPa 0,0 mm 4,2 km/h (1 Bft) W 273 ° 0 min 0,000 mm 0,0 UV-I 0 W/m² 3,6 °C 4,6 °C 4,8 km/h (1 Bft)
03.10.2019 07:22 4,6 °C 93 % 1017,7 hPa 0,0 mm 3,6 km/h (1 Bft) S-SW 211 ° 0 min 0,000 mm 0,0 UV-I 0 W/m² 3,6 °C 4,6 °C 4,8 km/h (1 Bft)
03.10.2019 07:23 4,6 °C 93 % 1017,7 hPa 0,0 mm 2,5 km/h (1 Bft) SW 225 ° 0 min 0,000 mm 0,0 UV-I 0 W/m² 3,6 °C 4,6 °C 4,8 km/h (1 Bft)
03.10.2019 07:24 4,6 °C 93 % 1017,7 hPa 0,0 mm 4,4 km/h (1 Bft) W-SW 256 ° 0 min 0,000 mm 0,0 UV-I 0 W/m² 3,6 °C 4,6 °C 6,4 km/h (2 Bft)
03.10.2019 07:25 4,6 °C 93 % 1017,7 hPa 0,0 mm 4,0 km/h (1 Bft) W 268 ° 0 min 0,000 mm 0,0 UV-I 0 W/m² 3,6 °C 4,6 °C 4,8 km/h (1 Bft)
03.10.2019 07:26 4,6 °C 93 % 1017,7 hPa 0,0 mm 3,6 km/h (1 Bft) W-SW 253 ° 0 min 0,000 mm 0,0 UV-I 0 W/m² 3,6 °C 4,6 °C 6,4 km/h (2 Bft)
03.10.2019 07:27 4,6 °C 93 % 1017,7 hPa 0,0 mm 4,4 km/h (1 Bft) W 267 ° 0 min 0,000 mm 0,0 UV-I 5 W/m² 3,6 °C 4,6 °C 6,4 km/h (2 Bft)
03.10.2019 07:28 4,6 °C 93 % 1017,7 hPa 0,0 mm 2,5 km/h (1 Bft) W 261 ° 0 min 0,000 mm 0,0 UV-I 5 W/m² 3,6 °C 4,6 °C 4,8 km/h (1 Bft)
03.10.2019 07:29 4,6 °C 93 % 1017,7 hPa 0,0 mm 3,2 km/h (1 Bft) W 263 ° 0 min 0,000 mm 0,0 UV-I 5 W/m² 3,6 °C 4,6 °C 4,8 km/h (1 Bft)
03.10.2019 07:30 4,6 °C 93 % 1017,6 hPa 0,0 mm 2,8 km/h (1 Bft) W-NW 294 ° 0 min 0,000 mm 0,0 UV-I 5 W/m² 3,6 °C 4,6 °C 4,8 km/h (1 Bft)
03.10.2019 07:31 4,6 °C 93 % 1017,6 hPa 0,0 mm 3,2 km/h (1 Bft) W 270 ° 0 min 0,000 mm 0,0 UV-I 5 W/m² 3,6 °C 4,6 °C 6,4 km/h (2 Bft)
03.10.2019 07:32 4,6 °C 93 % 1017,6 hPa 0,0 mm 2,5 km/h (1 Bft) W 271 ° 0 min 0,000 mm 0,0 UV-I 7 W/m² 3,6 °C 4,6 °C 6,4 km/h (2 Bft)
03.10.2019 07:33 4,6 °C 93 % 1017,6 hPa 0,0 mm 3,6 km/h (1 Bft) W 273 ° 0 min 0,000 mm 0,0 UV-I 7 W/m² 3,6 °C 4,6 °C 4,8 km/h (1 Bft)
03.10.2019 07:34 4,6 °C 93 % 1017,6 hPa 0,0 mm 4,2 km/h (1 Bft) W 262 ° 0 min 0,000 mm 0,0 UV-I 7 W/m² 3,6 °C 4,6 °C 9,7 km/h (2 Bft)
03.10.2019 07:35 4,6 °C 93 % 1017,6 hPa 0,0 mm 2,3 km/h (1 Bft) W-SW 257 ° 0 min 0,000 mm 0,0 UV-I 9 W/m² 3,6 °C 4,6 °C 4,8 km/h (1 Bft)
03.10.2019 07:36 4,6 °C 93 % 1017,6 hPa 0,0 mm 0,4 km/h (0 Bft) W-SW 257 ° 0 min 0,000 mm 0,0 UV-I 9 W/m² 3,6 °C 4,6 °C 1,6 km/h (1 Bft)
03.10.2019 07:37 4,6 °C 93 % 1017,6 hPa 0,0 mm 3,8 km/h (1 Bft) W-SW 240 ° 0 min 0,000 mm 0,0 UV-I 9 W/m² 3,6 °C 4,6 °C 6,4 km/h (2 Bft)
03.10.2019 07:38 4,6 °C 93 % 1017,6 hPa 0,0 mm 5,4 km/h (1 Bft) W 269 ° 0 min 0,000 mm 0,0 UV-I 11 W/m² 3,6 °C 3,5 °C 9,7 km/h (2 Bft)
03.10.2019 07:39 4,6 °C 93 % 1017,7 hPa 0,0 mm 3,7 km/h (1 Bft) W 273 ° 0 min 0,000 mm 0,0 UV-I 11 W/m² 3,6 °C 4,6 °C 6,4 km/h (2 Bft)
03.10.2019 07:40 4,6 °C 93 % 1017,6 hPa 0,0 mm 4,2 km/h (1 Bft) W 266 ° 0 min 0,000 mm 0,0 UV-I 12 W/m² 3,6 °C 4,6 °C 9,7 km/h (2 Bft)
03.10.2019 07:41 4,6 °C 93 % 1017,7 hPa 0,0 mm 4,5 km/h (1 Bft) W-NW 283 ° 0 min 0,000 mm 0,0 UV-I 12 W/m² 3,6 °C 4,6 °C 6,4 km/h (2 Bft)
03.10.2019 07:42 4,6 °C 93 % 1017,7 hPa 0,0 mm 4,1 km/h (1 Bft) W 260 ° 0 min 0,000 mm 0,0 UV-I 12 W/m² 3,6 °C 4,6 °C 4,8 km/h (1 Bft)
03.10.2019 07:43 4,6 °C 93 % 1017,7 hPa 0,0 mm 2,7 km/h (1 Bft) W 265 ° 0 min 0,000 mm 0,0 UV-I 14 W/m² 3,6 °C 4,6 °C 4,8 km/h (1 Bft)
03.10.2019 07:44 4,6 °C 93 % 1017,7 hPa 0,0 mm 3,4 km/h (1 Bft) W 280 ° 0 min 0,000 mm 0,0 UV-I 16 W/m² 3,6 °C 4,6 °C 4,8 km/h (1 Bft)
03.10.2019 07:45 4,6 °C 93 % 1017,7 hPa 0,0 mm 5,0 km/h (1 Bft) W-SW 251 ° 0 min 0,000 mm 0,0 UV-I 18 W/m² 3,6 °C 3,6 °C 8,0 km/h (2 Bft)
03.10.2019 07:46 4,6 °C 93 % 1017,7 hPa 0,0 mm 4,1 km/h (1 Bft) W-SW 244 ° 0 min 0,000 mm 0,0 UV-I 18 W/m² 3,6 °C 4,6 °C 6,4 km/h (2 Bft)
03.10.2019 07:47 4,6 °C 93 % 1017,7 hPa 0,0 mm 4,1 km/h (1 Bft) W-SW 254 ° 0 min 0,000 mm 0,0 UV-I 18 W/m² 3,6 °C 4,6 °C 6,4 km/h (2 Bft)
03.10.2019 07:48 4,5 °C 93 % 1017,7 hPa 0,0 mm 1,0 km/h (0 Bft) W-SW 253 ° 0 min 0,000 mm 0,0 UV-I 19 W/m² 3,5 °C 4,5 °C 3,2 km/h (1 Bft)
03.10.2019 07:49 4,6 °C 93 % 1017,7 hPa 0,0 mm 0,5 km/h (0 Bft) W-SW 253 ° 0 min 0,000 mm 0,0 UV-I 19 W/m² 3,6 °C 4,6 °C 1,6 km/h (1 Bft)
03.10.2019 07:50 4,5 °C 93 % 1017,8 hPa 0,0 mm 3,9 km/h (1 Bft) W 271 ° 0 min 0,000 mm 0,0 UV-I 19 W/m² 3,5 °C 4,5 °C 6,4 km/h (2 Bft)
03.10.2019 07:51 4,5 °C 93 % 1017,7 hPa 0,0 mm 2,1 km/h (1 Bft) W 271 ° 0 min 0,000 mm 0,0 UV-I 21 W/m² 3,5 °C 4,5 °C 3,2 km/h (1 Bft)
03.10.2019 07:52 4,5 °C 93 % 1017,8 hPa 0,0 mm 1,3 km/h (1 Bft) W 271 ° 0 min 0,000 mm 0,0 UV-I 19 W/m² 3,5 °C 4,5 °C 3,2 km/h (1 Bft)
03.10.2019 07:53 4,6 °C 93 % 1017,8 hPa 0,0 mm 0,0 km/h (0 Bft) W 271 ° 0 min 0,000 mm 0,0 UV-I 21 W/m² 3,6 °C 4,6 °C 0,0 km/h (0 Bft)
03.10.2019 07:54 4,6 °C 93 % 1017,8 hPa 0,0 mm 1,9 km/h (1 Bft) W 269 ° 0 min 0,000 mm 0,0 UV-I 21 W/m² 3,6 °C 4,6 °C 4,8 km/h (1 Bft)
03.10.2019 07:55 4,5 °C 93 % 1017,8 hPa 0,0 mm 1,1 km/h (1 Bft) W 269 ° 0 min 0,000 mm 0,0 UV-I 19 W/m² 3,5 °C 4,5 °C 3,2 km/h (1 Bft)
03.10.2019 07:56 4,5 °C 93 % 1017,8 hPa 0,0 mm 1,9 km/h (1 Bft) W 269 ° 0 min 0,000 mm 0,0 UV-I 18 W/m² 3,5 °C 4,5 °C 3,2 km/h (1 Bft)
03.10.2019 07:57 4,5 °C 93 % 1017,8 hPa 0,0 mm 3,4 km/h (1 Bft) W 280 ° 0 min 0,000 mm 0,0 UV-I 16 W/m² 3,5 °C 4,5 °C 8,0 km/h (2 Bft)
03.10.2019 07:58 4,5 °C 93 % 1017,8 hPa 0,0 mm 3,2 km/h (1 Bft) W 273 ° 0 min 0,000 mm 0,0 UV-I 16 W/m² 3,5 °C 4,5 °C 4,8 km/h (1 Bft)
03.10.2019 07:59 4,5 °C 93 % 1017,8 hPa 0,0 mm 2,9 km/h (1 Bft) W 271 ° 0 min 0,000 mm 0,0 UV-I 16 W/m² 3,5 °C 4,5 °C 6,4 km/h (2 Bft)
03.10.2019 08:00 4,5 °C 93 % 1017,8 hPa 0,0 mm 5,4 km/h (1 Bft) W 268 ° 0 min 0,000 mm 0,0 UV-I 16 W/m² 3,5 °C 3,4 °C 9,7 km/h (2 Bft)
03.10.2019 08:01 4,5 °C 93 % 1017,9 hPa 0,0 mm 5,2 km/h (1 Bft) W-SW 252 ° 0 min 0,000 mm 0,0 UV-I 18 W/m² 3,5 °C 3,4 °C 9,7 km/h (2 Bft)
03.10.2019 08:02 4,5 °C 93 % 1017,9 hPa 0,0 mm 4,7 km/h (1 Bft) W 263 ° 0 min 0,000 mm 0,0 UV-I 19 W/m² 3,5 °C 3,6 °C 6,4 km/h (2 Bft)
03.10.2019 08:03 4,5 °C 93 % 1017,9 hPa 0,0 mm 2,5 km/h (1 Bft) W 263 ° 0 min 0,000 mm 0,0 UV-I 21 W/m² 3,5 °C 4,5 °C 6,4 km/h (2 Bft)
03.10.2019 08:04 4,5 °C 93 % 1017,9 hPa 0,0 mm 1,3 km/h (1 Bft) W 263 ° 0 min 0,000 mm 0,0 UV-I 23 W/m² 3,5 °C 4,5 °C 3,2 km/h (1 Bft)
03.10.2019 08:05 4,5 °C 93 % 1017,9 hPa 0,0 mm 0,2 km/h (0 Bft) W 263 ° 0 min 0,000 mm 0,0 UV-I 25 W/m² 3,5 °C 4,5 °C 1,6 km/h (1 Bft)
03.10.2019 08:06 4,5 °C 93 % 1017,9 hPa 0,0 mm 0,0 km/h (0 Bft) W 263 ° 0 min 0,000 mm 0,0 UV-I 23 W/m² 3,5 °C 4,5 °C 0,0 km/h (0 Bft)
03.10.2019 08:07 4,5 °C 93 % 1017,9 hPa 0,0 mm 0,6 km/h (0 Bft) W 262 ° 0 min 0,000 mm 0,0 UV-I 21 W/m² 3,5 °C 4,5 °C 1,6 km/h (1 Bft)
03.10.2019 08:08 4,5 °C 93 % 1017,8 hPa 0,0 mm 1,4 km/h (1 Bft) W 263 ° 0 min 0,000 mm 0,0 UV-I 23 W/m² 3,5 °C 4,5 °C 3,2 km/h (1 Bft)
03.10.2019 08:09 4,5 °C 93 % 1017,9 hPa 0,0 mm 0,6 km/h (0 Bft) W 263 ° 0 min 0,000 mm 0,0 UV-I 25 W/m² 3,5 °C 4,5 °C 3,2 km/h (1 Bft)
03.10.2019 08:10 4,5 °C 93 % 1017,9 hPa 0,0 mm 1,5 km/h (1 Bft) W 261 ° 0 min 0,000 mm 0,0 UV-I 25 W/m² 3,5 °C 4,5 °C 4,8 km/h (1 Bft)
03.10.2019 08:11 4,4 °C 93 % 1018,0 hPa 0,0 mm 2,6 km/h (1 Bft) S-SW 194 ° 0 min 0,000 mm 0,0 UV-I 25 W/m² 3,4 °C 4,4 °C 6,4 km/h (2 Bft)
03.10.2019 08:12 4,4 °C 93 % 1017,9 hPa 0,0 mm 1,4 km/h (1 Bft) W-SW 249 ° 0 min 0,000 mm 0,0 UV-I 26 W/m² 3,4 °C 4,4 °C 6,4 km/h (2 Bft)
03.10.2019 08:13 4,4 °C 93 % 1018,0 hPa 0,0 mm 2,2 km/h (1 Bft) W 269 ° 0 min 0,000 mm 0,0 UV-I 26 W/m² 3,4 °C 4,4 °C 4,8 km/h (1 Bft)
03.10.2019 08:14 4,4 °C 93 % 1018,0 hPa 0,0 mm 0,5 km/h (0 Bft) W 269 ° 0 min 0,000 mm 0,0 UV-I 28 W/m² 3,4 °C 4,4 °C 3,2 km/h (1 Bft)
03.10.2019 08:15 4,4 °C 93 % 1018,0 hPa 0,0 mm 0,0 km/h (0 Bft) W 269 ° 0 min 0,000 mm 0,0 UV-I 30 W/m² 3,4 °C 4,4 °C 0,0 km/h (0 Bft)
03.10.2019 08:16 4,3 °C 93 % 1018,0 hPa 0,0 mm 0,0 km/h (0 Bft) W 269 ° 0 min 0,000 mm 0,0 UV-I 30 W/m² 3,3 °C 4,3 °C 0,0 km/h (0 Bft)
03.10.2019 08:17 4,3 °C 93 % 1018,0 hPa 0,0 mm 0,0 km/h (0 Bft) W 269 ° 0 min 0,000 mm 0,0 UV-I 30 W/m² 3,3 °C 4,3 °C 0,0 km/h (0 Bft)
03.10.2019 08:18 4,3 °C 93 % 1018,1 hPa 0,0 mm 0,0 km/h (0 Bft) W 269 ° 0 min 0,000 mm 0,0 UV-I 30 W/m² 3,3 °C 4,3 °C 0,0 km/h (0 Bft)
03.10.2019 08:19 4,3 °C 93 % 1018,1 hPa 0,0 mm 0,0 km/h (0 Bft) W 269 ° 0 min 0,000 mm 0,0 UV-I 33 W/m² 3,3 °C 4,3 °C 0,0 km/h (0 Bft)
03.10.2019 08:20 4,3 °C 93 % 1018,0 hPa 0,0 mm 0,0 km/h (0 Bft) W 269 ° 0 min 0,000 mm 0,0 UV-I 37 W/m² 3,3 °C 4,3 °C 0,0 km/h (0 Bft)
03.10.2019 08:21 4,3 °C 93 % 1018,0 hPa 0,0 mm 0,0 km/h (0 Bft) W 269 ° 0 min 0,000 mm 0,0 UV-I 37 W/m² 3,3 °C 4,3 °C 0,0 km/h (0 Bft)
03.10.2019 08:22 4,3 °C 93 % 1018,0 hPa 0,0 mm 0,0 km/h (0 Bft) W 268 ° 0 min 0,000 mm 0,0 UV-I 37 W/m² 3,3 °C 4,3 °C 0,0 km/h (0 Bft)
03.10.2019 08:23 4,3 °C 93 % 1018,0 hPa 0,0 mm 0,0 km/h (0 Bft) W 268 ° 0 min 0,000 mm 0,0 UV-I 37 W/m² 3,3 °C 4,3 °C 0,0 km/h (0 Bft)
03.10.2019 08:24 4,3 °C 93 % 1018,0 hPa 0,0 mm 0,0 km/h (0 Bft) W 268 ° 0 min 0,000 mm 0,0 UV-I 37 W/m² 3,3 °C 4,3 °C 0,0 km/h (0 Bft)
03.10.2019 08:25 4,3 °C 93 % 1018,0 hPa 0,0 mm 0,0 km/h (0 Bft) W 269 ° 0 min 0,000 mm 0,0 UV-I 33 W/m² 3,3 °C 4,3 °C 0,0 km/h (0 Bft)
03.10.2019 08:26 4,3 °C 93 % 1018,0 hPa 0,0 mm 0,0 km/h (0 Bft) W 269 ° 0 min 0,000 mm 0,0 UV-I 32 W/m² 3,3 °C 4,3 °C 0,0 km/h (0 Bft)
03.10.2019 08:27 4,3 °C 93 % 1018,0 hPa 0,0 mm 0,0 km/h (0 Bft) W 269 ° 0 min 0,000 mm 0,0 UV-I 32 W/m² 3,3 °C 4,3 °C 0,0 km/h (0 Bft)
03.10.2019 08:28 4,3 °C 93 % 1018,0 hPa 0,0 mm 0,0 km/h (0 Bft) W 269 ° 0 min 0,000 mm 0,0 UV-I 32 W/m² 3,3 °C 4,3 °C 0,0 km/h (0 Bft)
03.10.2019 08:29 4,3 °C 93 % 1018,1 hPa 0,0 mm 0,1 km/h (0 Bft) W 267 ° 0 min 0,000 mm 0,0 UV-I 33 W/m² 3,3 °C 4,3 °C 1,6 km/h (1 Bft)
03.10.2019 08:30 4,3 °C 93 % 1018,1 hPa 0,0 mm 0,9 km/h (0 Bft) W 267 ° 0 min 0,000 mm 0,0 UV-I 33 W/m² 3,3 °C 4,3 °C 3,2 km/h (1 Bft)
03.10.2019 08:31 4,3 °C 93 % 1018,2 hPa 0,0 mm 0,9 km/h (0 Bft) W 267 ° 0 min 0,000 mm 0,0 UV-I 35 W/m² 3,3 °C 4,3 °C 1,6 km/h (1 Bft)
03.10.2019 08:32 4,3 °C 93 % 1018,1 hPa 0,0 mm 0,0 km/h (0 Bft) W 267 ° 0 min 0,000 mm 0,0 UV-I 37 W/m² 3,3 °C 4,3 °C 0,0 km/h (0 Bft)
03.10.2019 08:33 4,3 °C 93 % 1018,1 hPa 0,0 mm 0,0 km/h (0 Bft) W 267 ° 0 min 0,000 mm 0,0 UV-I 37 W/m² 3,3 °C 4,3 °C 0,0 km/h (0 Bft)
03.10.2019 08:34 4,3 °C 93 % 1018,1 hPa 0,0 mm 0,0 km/h (0 Bft) W 266 ° 0 min 0,000 mm 0,0 UV-I 37 W/m² 3,3 °C 4,3 °C 0,0 km/h (0 Bft)
03.10.2019 08:35 4,3 °C 93 % 1018,0 hPa 0,0 mm 0,0 km/h (0 Bft) W 266 ° 0 min 0,000 mm 0,0 UV-I 37 W/m² 3,3 °C 4,3 °C 0,0 km/h (0 Bft)
03.10.2019 08:36 4,3 °C 93 % 1018,1 hPa 0,0 mm 3,1 km/h (1 Bft) W-SW 254 ° 0 min 0,000 mm 0,0 UV-I 37 W/m² 3,3 °C 4,3 °C 6,4 km/h (2 Bft)
03.10.2019 08:37 4,3 °C 93 % 1018,2 hPa 0,0 mm 4,7 km/h (1 Bft) W-SW 237 ° 0 min 0,000 mm 0,0 UV-I 35 W/m² 3,3 °C 3,4 °C 6,4 km/h (2 Bft)
03.10.2019 08:38 4,4 °C 93 % 1018,2 hPa 0,0 mm 2,8 km/h (1 Bft) SW 223 ° 0 min 0,000 mm 0,0 UV-I 37 W/m² 3,4 °C 4,4 °C 4,8 km/h (1 Bft)
03.10.2019 08:39 4,4 °C 93 % 1018,2 hPa 0,0 mm 7,3 km/h (2 Bft) W 264 ° 0 min 0,000 mm 0,0 UV-I 37 W/m² 3,4 °C 2,6 °C 11,3 km/h (2 Bft)
03.10.2019 08:40 4,5 °C 93 % 1018,2 hPa 0,0 mm 4,4 km/h (1 Bft) W 279 ° 0 min 0,000 mm 0,0 UV-I 35 W/m² 3,5 °C 4,5 °C 6,4 km/h (2 Bft)
03.10.2019 08:41 4,5 °C 93 % 1018,2 hPa 0,0 mm 5,2 km/h (1 Bft) W-SW 247 ° 0 min 0,000 mm 0,0 UV-I 35 W/m² 3,5 °C 3,4 °C 9,7 km/h (2 Bft)
03.10.2019 08:42 4,6 °C 93 % 1018,3 hPa 0,0 mm 3,9 km/h (1 Bft) W 271 ° 0 min 0,000 mm 0,0 UV-I 35 W/m² 3,6 °C 4,6 °C 4,8 km/h (1 Bft)
03.10.2019 08:43 4,6 °C 93 % 1018,2 hPa 0,0 mm 5,6 km/h (1 Bft) W 275 ° 0 min 0,000 mm 0,0 UV-I 37 W/m² 3,6 °C 3,4 °C 11,3 km/h (2 Bft)
03.10.2019 08:44 4,6 °C 93 % 1018,2 hPa 0,0 mm 3,0 km/h (1 Bft) W 266 ° 0 min 0,000 mm 0,0 UV-I 37 W/m² 3,6 °C 4,6 °C 6,4 km/h (2 Bft)
03.10.2019 08:45 4,6 °C 93 % 1018,3 hPa 0,0 mm 3,3 km/h (1 Bft) W 267 ° 0 min 0,000 mm 0,0 UV-I 39 W/m² 3,6 °C 4,6 °C 4,8 km/h (1 Bft)
03.10.2019 08:46 4,7 °C 93 % 1018,3 hPa 0,0 mm 3,7 km/h (1 Bft) W 268 ° 0 min 0,000 mm 0,0 UV-I 39 W/m² 3,7 °C 4,7 °C 6,4 km/h (2 Bft)
03.10.2019 08:47 4,7 °C 93 % 1018,3 hPa 0,0 mm 5,0 km/h (1 Bft) W 277 ° 0 min 0,000 mm 0,0 UV-I 39 W/m² 3,7 °C 3,7 °C 6,4 km/h (2 Bft)
03.10.2019 08:48 4,7 °C 93 % 1018,3 hPa 0,0 mm 5,2 km/h (1 Bft) W-NW 284 ° 0 min 0,000 mm 0,0 UV-I 39 W/m² 3,7 °C 3,7 °C 8,0 km/h (2 Bft)
03.10.2019 08:49 4,7 °C 93 % 1018,2 hPa 0,0 mm 4,1 km/h (1 Bft) W 276 ° 0 min 0,000 mm 0,0 UV-I 39 W/m² 3,7 °C 4,7 °C 6,4 km/h (2 Bft)
03.10.2019 08:50 4,7 °C 93 % 1018,3 hPa 0,0 mm 3,2 km/h (1 Bft) W 276 ° 0 min 0,000 mm 0,0 UV-I 39 W/m² 3,7 °C 4,7 °C 4,8 km/h (1 Bft)
03.10.2019 08:51 4,7 °C 93 % 1018,3 hPa 0,0 mm 5,6 km/h (1 Bft) W-NW 298 ° 0 min 0,000 mm 0,0 UV-I 39 W/m² 3,7 °C 3,5 °C 14,5 km/h (3 Bft)
03.10.2019 08:52 4,7 °C 93 % 1018,3 hPa 0,0 mm 4,7 km/h (1 Bft) W-SW 252 ° 0 min 0,000 mm 0,0 UV-I 39 W/m² 3,7 °C 3,9 °C 6,4 km/h (2 Bft)
03.10.2019 08:53 4,7 °C 93 % 1018,2 hPa 0,0 mm 5,7 km/h (1 Bft) W 265 ° 0 min 0,000 mm 0,0 UV-I 39 W/m² 3,7 °C 3,5 °C 9,7 km/h (2 Bft)
03.10.2019 08:54 4,8 °C 93 % 1018,3 hPa 0,0 mm 9,8 km/h (2 Bft) W 269 ° 0 min 0,000 mm 0,0 UV-I 39 W/m² 3,8 °C 2,5 °C 12,9 km/h (3 Bft)
03.10.2019 08:55 4,8 °C 93 % 1018,3 hPa 0,0 mm 9,6 km/h (2 Bft) NW 316 ° 0 min 0,000 mm 0,0 UV-I 39 W/m² 3,8 °C 2,5 °C 14,5 km/h (3 Bft)
03.10.2019 08:56 4,8 °C 93 % 1018,3 hPa 0,0 mm 7,7 km/h (2 Bft) W 269 ° 0 min 0,000 mm 0,0 UV-I 39 W/m² 3,8 °C 3,0 °C 11,3 km/h (2 Bft)
03.10.2019 08:57 4,9 °C 93 % 1018,3 hPa 0,0 mm 7,8 km/h (2 Bft) W 268 ° 0 min 0,000 mm 0,0 UV-I 39 W/m² 3,9 °C 3,1 °C 12,9 km/h (3 Bft)
03.10.2019 08:58 4,9 °C 93 % 1018,3 hPa 0,0 mm 6,7 km/h (2 Bft) S 189 ° 0 min 0,000 mm 0,0 UV-I 39 W/m² 3,9 °C 3,4 °C 12,9 km/h (3 Bft)
03.10.2019 08:59 4,9 °C 93 % 1018,3 hPa 0,0 mm 5,9 km/h (2 Bft) W 273 ° 0 min 0,000 mm 0,0 UV-I 39 W/m² 3,9 °C 3,6 °C 9,7 km/h (2 Bft)
03.10.2019 09:00 4,9 °C 93 % 1018,3 hPa 0,0 mm 4,4 km/h (1 Bft) W 263 ° 0 min 0,000 mm 0,0 UV-I 39 W/m² 3,9 °C 4,9 °C 9,7 km/h (2 Bft)
03.10.2019 09:01 4,9 °C 92 % 1018,3 hPa 0,0 mm 6,5 km/h (2 Bft) W 274 ° 0 min 0,025 mm 0,0 UV-I 39 W/m² 3,7 °C 3,4 °C 9,7 km/h (2 Bft)
03.10.2019 09:02 5,0 °C 92 % 1018,3 hPa 0,0 mm 8,8 km/h (2 Bft) W-SW 252 ° 0 min 0,000 mm 0,0 UV-I 39 W/m² 3,8 °C 2,9 °C 11,3 km/h (2 Bft)
03.10.2019 09:03 5,0 °C 93 % 1018,3 hPa 0,0 mm 9,2 km/h (2 Bft) W 277 ° 0 min 0,000 mm 0,0 UV-I 40 W/m² 4,0 °C 2,8 °C 14,5 km/h (3 Bft)
03.10.2019 09:04 5,1 °C 92 % 1018,3 hPa 0,0 mm 10,2 km/h (2 Bft) W 264 ° 0 min 0,000 mm 0,0 UV-I 40 W/m² 3,9 °C 2,7 °C 14,5 km/h (3 Bft)
03.10.2019 09:05 5,1 °C 92 % 1018,3 hPa 0,0 mm 7,8 km/h (2 Bft) W 262 ° 0 min 0,000 mm 0,0 UV-I 40 W/m² 3,9 °C 3,3 °C 11,3 km/h (2 Bft)
03.10.2019 09:06 5,1 °C 92 % 1018,4 hPa 0,0 mm 9,7 km/h (2 Bft) W 277 ° 0 min 0,000 mm 0,0 UV-I 40 W/m² 3,9 °C 2,8 °C 11,3 km/h (2 Bft)
03.10.2019 09:07 5,1 °C 92 % 1018,4 hPa 0,0 mm 3,5 km/h (1 Bft) W-SW 244 ° 0 min 0,000 mm 0,0 UV-I 40 W/m² 3,9 °C 5,1 °C 6,4 km/h (2 Bft)
03.10.2019 09:08 5,2 °C 92 % 1018,4 hPa 0,0 mm 5,5 km/h (1 Bft) W 274 ° 0 min 0,000 mm 0,0 UV-I 40 W/m² 4,0 °C 4,1 °C 9,7 km/h (2 Bft)
03.10.2019 09:09 5,2 °C 92 % 1018,4 hPa 0,0 mm 6,2 km/h (2 Bft) W-NW 301 ° 0 min 0,000 mm 0,0 UV-I 40 W/m² 4,0 °C 3,9 °C 12,9 km/h (3 Bft)
03.10.2019 09:10 5,2 °C 92 % 1018,4 hPa 0,0 mm 4,5 km/h (1 Bft) W 259 ° 0 min 0,000 mm 0,0 UV-I 40 W/m² 4,0 °C 5,2 °C 9,7 km/h (2 Bft)
03.10.2019 09:11 5,2 °C 92 % 1018,4 hPa 0,0 mm 6,2 km/h (2 Bft) W 279 ° 0 min 0,000 mm 0,0 UV-I 40 W/m² 4,0 °C 3,9 °C 12,9 km/h (3 Bft)
03.10.2019 09:12 5,2 °C 91 % 1018,4 hPa 0,0 mm 8,2 km/h (2 Bft) W-NW 297 ° 0 min 0,000 mm 0,0 UV-I 42 W/m² 3,9 °C 3,3 °C 14,5 km/h (3 Bft)
03.10.2019 09:13 5,2 °C 91 % 1018,4 hPa 0,0 mm 3,3 km/h (1 Bft) W 277 ° 0 min 0,000 mm 0,0 UV-I 42 W/m² 3,9 °C 5,2 °C 4,8 km/h (1 Bft)
03.10.2019 09:14 5,3 °C 91 % 1018,4 hPa 0,0 mm 5,2 km/h (1 Bft) W-NW 300 ° 0 min 0,000 mm 0,0 UV-I 42 W/m² 4,0 °C 4,3 °C 8,0 km/h (2 Bft)
03.10.2019 09:15 5,2 °C 91 % 1018,4 hPa 0,0 mm 4,7 km/h (1 Bft) W-SW 254 ° 0 min 0,000 mm 0,0 UV-I 44 W/m² 3,9 °C 4,4 °C 8,0 km/h (2 Bft)
03.10.2019 09:16 5,2 °C 91 % 1018,5 hPa 0,0 mm 4,6 km/h (1 Bft) W 263 ° 0 min 0,000 mm 0,0 UV-I 44 W/m² 3,9 °C 4,5 °C 9,7 km/h (2 Bft)
03.10.2019 09:17 5,3 °C 91 % 1018,5 hPa 0,0 mm 6,5 km/h (2 Bft) W-NW 296 ° 0 min 0,000 mm 0,0 UV-I 44 W/m² 4,0 °C 3,9 °C 9,7 km/h (2 Bft)
03.10.2019 09:18 5,3 °C 91 % 1018,5 hPa 0,0 mm 11,8 km/h (2 Bft) W 261 ° 0 min 0,000 mm 0,0 UV-I 46 W/m² 4,0 °C 2,7 °C 14,5 km/h (3 Bft)
03.10.2019 09:19 5,3 °C 91 % 1018,5 hPa 0,0 mm 4,4 km/h (1 Bft) S-SW 197 ° 0 min 0,000 mm 0,0 UV-I 47 W/m² 4,0 °C 5,3 °C 8,0 km/h (2 Bft)
03.10.2019 09:20 5,3 °C 91 % 1018,5 hPa 0,0 mm 1,4 km/h (1 Bft) W-SW 245 ° 0 min 0,000 mm 0,0 UV-I 49 W/m² 4,0 °C 5,3 °C 4,8 km/h (1 Bft)
03.10.2019 09:21 5,4 °C 91 % 1018,5 hPa 0,0 mm 7,0 km/h (2 Bft) W-NW 291 ° 0 min 0,000 mm 0,0 UV-I 51 W/m² 4,1 °C 3,9 °C 14,5 km/h (3 Bft)
03.10.2019 09:22 5,4 °C 91 % 1018,5 hPa 0,0 mm 4,6 km/h (1 Bft) SW 236 ° 0 min 0,000 mm 0,9 UV-I 58 W/m² 4,1 °C 4,7 °C 6,4 km/h (2 Bft)
03.10.2019 09:23 5,5 °C 91 % 1018,5 hPa 0,0 mm 2,7 km/h (1 Bft) S-SW 198 ° 0 min 0,000 mm 0,9 UV-I 62 W/m² 4,2 °C 5,5 °C 9,7 km/h (2 Bft)
03.10.2019 09:24 5,5 °C 91 % 1018,5 hPa 0,0 mm 3,2 km/h (1 Bft) W 261 ° 0 min 0,000 mm 0,9 UV-I 97 W/m² 4,2 °C 5,5 °C 8,0 km/h (2 Bft)
03.10.2019 09:25 5,6 °C 91 % 1018,5 hPa 0,0 mm 2,7 km/h (1 Bft) W-NW 288 ° 0 min 0,000 mm 0,9 UV-I 102 W/m² 4,2 °C 5,6 °C 6,4 km/h (2 Bft)
03.10.2019 09:26 5,6 °C 91 % 1018,5 hPa 0,0 mm 1,8 km/h (1 Bft) W-NW 288 ° 0 min 0,000 mm 0,9 UV-I 95 W/m² 4,2 °C 5,6 °C 4,8 km/h (1 Bft)
03.10.2019 09:27 5,6 °C 91 % 1018,6 hPa 0,0 mm 3,2 km/h (1 Bft) N-NW 327 ° 0 min 0,000 mm 0,9 UV-I 84 W/m² 4,2 °C 5,6 °C 6,4 km/h (2 Bft)
03.10.2019 09:28 5,7 °C 91 % 1018,5 hPa 0,0 mm 3,9 km/h (1 Bft) W 275 ° 0 min 0,000 mm 0,9 UV-I 76 W/m² 4,3 °C 5,7 °C 6,4 km/h (2 Bft)
03.10.2019 09:29 5,8 °C 91 % 1018,6 hPa 0,0 mm 3,6 km/h (1 Bft) W 274 ° 0 min 0,000 mm 0,9 UV-I 67 W/m² 4,4 °C 5,8 °C 4,8 km/h (1 Bft)
03.10.2019 09:30 5,8 °C 90 % 1018,6 hPa 0,0 mm 5,9 km/h (2 Bft) W 264 ° 0 min 0,000 mm 0,9 UV-I 86 W/m² 4,3 °C 4,7 °C 12,9 km/h (3 Bft)
03.10.2019 09:31 5,8 °C 90 % 1018,5 hPa 0,0 mm 7,7 km/h (2 Bft) W-SW 246 ° 0 min 0,000 mm 0,9 UV-I 88 W/m² 4,3 °C 4,2 °C 11,3 km/h (2 Bft)
03.10.2019 09:32 5,8 °C 90 % 1018,5 hPa 0,0 mm 8,7 km/h (2 Bft) W 278 ° 0 min 0,000 mm 0,9 UV-I 79 W/m² 4,3 °C 3,9 °C 12,9 km/h (3 Bft)
03.10.2019 09:33 5,8 °C 90 % 1018,5 hPa 0,0 mm 7,2 km/h (2 Bft) W 267 ° 0 min 0,000 mm 0,9 UV-I 65 W/m² 4,3 °C 4,3 °C 14,5 km/h (3 Bft)
03.10.2019 09:34 5,8 °C 90 % 1018,6 hPa 0,0 mm 11,1 km/h (2 Bft) W-SW 238 ° 0 min 0,000 mm 0,0 UV-I 54 W/m² 4,3 °C 3,4 °C 14,5 km/h (3 Bft)
03.10.2019 09:35 5,8 °C 89 % 1018,5 hPa 0,0 mm 11,7 km/h (2 Bft) W-SW 244 ° 0 min 0,000 mm 0,0 UV-I 46 W/m² 4,1 °C 3,3 °C 14,5 km/h (3 Bft)
03.10.2019 09:36 5,7 °C 89 % 1018,5 hPa 0,0 mm 5,1 km/h (1 Bft) W-SW 250 ° 0 min 0,000 mm 0,0 UV-I 47 W/m² 4,0 °C 4,8 °C 11,3 km/h (2 Bft)
03.10.2019 09:37 5,6 °C 89 % 1018,5 hPa 0,0 mm 5,4 km/h (1 Bft) W-SW 250 ° 0 min 0,000 mm 1,0 UV-I 79 W/m² 3,9 °C 4,6 °C 11,3 km/h (2 Bft)
03.10.2019 09:38 5,6 °C 88 % 1018,5 hPa 0,0 mm 7,2 km/h (2 Bft) W 270 ° 0 min 0,000 mm 1,0 UV-I 81 W/m² 3,8 °C 4,1 °C 14,5 km/h (3 Bft)
03.10.2019 09:39 5,6 °C 89 % 1018,5 hPa 0,0 mm 7,7 km/h (2 Bft) W-SW 242 ° 0 min 0,000 mm 1,0 UV-I 128 W/m² 3,9 °C 3,9 °C 12,9 km/h (3 Bft)
03.10.2019 09:40 5,5 °C 89 % 1018,5 hPa 0,0 mm 7,8 km/h (2 Bft) W 271 ° 0 min 0,000 mm 1,1 UV-I 176 W/m² 3,8 °C 3,8 °C 11,3 km/h (2 Bft)
03.10.2019 09:41 5,5 °C 89 % 1018,5 hPa 0,0 mm 9,9 km/h (2 Bft) W 276 ° 0 min 0,000 mm 1,1 UV-I 142 W/m² 3,8 °C 3,3 °C 12,9 km/h (3 Bft)
03.10.2019 09:42 5,5 °C 89 % 1018,5 hPa 0,0 mm 8,7 km/h (2 Bft) W 261 ° 0 min 0,000 mm 1,0 UV-I 42 W/m² 3,8 °C 3,5 °C 14,5 km/h (3 Bft)
03.10.2019 09:43 5,5 °C 89 % 1018,5 hPa 0,0 mm 10,6 km/h (2 Bft) W-SW 250 ° 0 min 0,000 mm 1,1 UV-I 70 W/m² 3,8 °C 3,1 °C 14,5 km/h (3 Bft)
03.10.2019 09:44 5,5 °C 89 % 1018,5 hPa 0,0 mm 7,9 km/h (2 Bft) W 259 ° 0 min 0,000 mm 1,1 UV-I 67 W/m² 3,8 °C 3,7 °C 11,3 km/h (2 Bft)
03.10.2019 09:45 5,6 °C 89 % 1018,5 hPa 0,0 mm 6,3 km/h (2 Bft) W-SW 243 ° 0 min 0,000 mm 1,1 UV-I 65 W/m² 3,9 °C 4,3 °C 9,7 km/h (2 Bft)
03.10.2019 09:46 5,6 °C 89 % 1018,5 hPa 0,0 mm 5,4 km/h (1 Bft) W-SW 257 ° 0 min 0,000 mm 1,1 UV-I 72 W/m² 3,9 °C 4,6 °C 9,7 km/h (2 Bft)
03.10.2019 09:47 5,5 °C 89 % 1018,5 hPa 0,0 mm 3,8 km/h (1 Bft) W 261 ° 0 min 0,000 mm 1,1 UV-I 97 W/m² 3,8 °C 5,5 °C 6,4 km/h (2 Bft)
03.10.2019 09:48 5,6 °C 89 % 1018,5 hPa 0,0 mm 8,9 km/h (2 Bft) W 261 ° 0 min 0,000 mm 1,2 UV-I 137 W/m² 3,9 °C 3,6 °C 12,9 km/h (3 Bft)
03.10.2019 09:49 5,7 °C 89 % 1018,5 hPa 0,0 mm 6,6 km/h (2 Bft) W-SW 252 ° 0 min 0,000 mm 1,1 UV-I 104 W/m² 4,0 °C 4,3 °C 9,7 km/h (2 Bft)
03.10.2019 09:50 5,7 °C 90 % 1018,6 hPa 0,0 mm 10,1 km/h (2 Bft) W 274 ° 0 min 0,000 mm 1,2 UV-I 141 W/m² 4,2 °C 3,5 °C 12,9 km/h (3 Bft)
03.10.2019 09:51 5,8 °C 89 % 1018,5 hPa 0,0 mm 7,0 km/h (2 Bft) W 267 ° 0 min 0,000 mm 1,2 UV-I 125 W/m² 4,1 °C 4,3 °C 11,3 km/h (2 Bft)
03.10.2019 09:52 5,9 °C 90 % 1018,5 hPa 0,0 mm 5,2 km/h (1 Bft) W-NW 297 ° 0 min 0,000 mm 1,2 UV-I 127 W/m² 4,4 °C 5,0 °C 9,7 km/h (2 Bft)
03.10.2019 09:53 6,1 °C 90 % 1018,6 hPa 0,0 mm 8,0 km/h (2 Bft) W-NW 294 ° 0 min 0,000 mm 1,2 UV-I 160 W/m² 4,6 °C 4,4 °C 14,5 km/h (3 Bft)
03.10.2019 09:54 6,2 °C 89 % 1018,6 hPa 0,0 mm 7,7 km/h (2 Bft) W-SW 248 ° 0 min 0,000 mm 1,2 UV-I 195 W/m² 4,5 °C 4,6 °C 12,9 km/h (3 Bft)
03.10.2019 09:55 6,3 °C 89 % 1018,5 hPa 0,0 mm 8,9 km/h (2 Bft) W-NW 297 ° 0 min 0,000 mm 1,3 UV-I 220 W/m² 4,6 °C 4,4 °C 14,5 km/h (3 Bft)
03.10.2019 09:56 6,3 °C 89 % 1018,5 hPa 0,0 mm 5,0 km/h (1 Bft) W-NW 298 ° 0 min 0,000 mm 1,3 UV-I 229 W/m² 4,6 °C 5,6 °C 8,0 km/h (2 Bft)
03.10.2019 09:57 6,4 °C 89 % 1018,6 hPa 0,0 mm 8,0 km/h (2 Bft) W 261 ° 0 min 0,000 mm 1,3 UV-I 250 W/m² 4,7 °C 4,8 °C 12,9 km/h (3 Bft)
03.10.2019 09:58 6,5 °C 88 % 1018,6 hPa 0,0 mm 6,7 km/h (2 Bft) W-NW 294 ° 0 min 0,000 mm 1,1 UV-I 179 W/m² 4,7 °C 5,2 °C 11,3 km/h (2 Bft)
03.10.2019 09:59 6,6 °C 88 % 1018,6 hPa 0,0 mm 6,9 km/h (2 Bft) W-NW 294 ° 0 min 0,000 mm 1,1 UV-I 116 W/m² 4,8 °C 5,3 °C 9,7 km/h (2 Bft)
03.10.2019 10:00 6,6 °C 88 % 1018,6 hPa 0,0 mm 5,5 km/h (1 Bft) W 261 ° 0 min 0,000 mm 1,0 UV-I 107 W/m² 4,8 °C 5,7 °C 11,3 km/h (2 Bft)
03.10.2019 10:01 6,6 °C 88 % 1018,6 hPa 0,0 mm 10,4 km/h (2 Bft) NW 313 ° 0 min 0,051 mm 0,9 UV-I 84 W/m² 4,8 °C 4,5 °C 16,1 km/h (3 Bft)
03.10.2019 10:02 6,4 °C 87 % 1018,7 hPa 0,0 mm 7,0 km/h (2 Bft) W 261 ° 0 min 0,000 mm 0,9 UV-I 69 W/m² 4,4 °C 5,0 °C 11,3 km/h (2 Bft)
03.10.2019 10:03 6,4 °C 87 % 1018,7 hPa 0,0 mm 11,4 km/h (2 Bft) W-SW 238 ° 0 min 0,000 mm 0,9 UV-I 62 W/m² 4,4 °C 4,1 °C 12,9 km/h (3 Bft)
03.10.2019 10:04 6,3 °C 86 % 1018,7 hPa 0,0 mm 14,3 km/h (3 Bft) W 269 ° 0 min 0,000 mm 0,9 UV-I 58 W/m² 4,1 °C 3,5 °C 20,9 km/h (4 Bft)
03.10.2019 10:05 6,2 °C 86 % 1018,7 hPa 0,0 mm 10,7 km/h (2 Bft) W-NW 288 ° 0 min 0,000 mm 1,0 UV-I 58 W/m² 4,0 °C 4,0 °C 16,1 km/h (3 Bft)
03.10.2019 10:06 6,1 °C 86 % 1018,7 hPa 0,0 mm 7,9 km/h (2 Bft) W 259 ° 0 min 0,000 mm 1,0 UV-I 62 W/m² 3,9 °C 4,5 °C 11,3 km/h (2 Bft)
03.10.2019 10:07 5,9 °C 86 % 1018,7 hPa 0,0 mm 7,9 km/h (2 Bft) W-NW 301 ° 0 min 0,000 mm 1,0 UV-I 69 W/m² 3,7 °C 4,2 °C 12,9 km/h (3 Bft)
03.10.2019 10:08 5,9 °C 87 % 1018,7 hPa 0,0 mm 7,7 km/h (2 Bft) W-NW 301 ° 0 min 0,000 mm 1,1 UV-I 69 W/m² 3,9 °C 4,3 °C 16,1 km/h (3 Bft)
03.10.2019 10:09 5,9 °C 87 % 1018,7 hPa 0,0 mm 5,1 km/h (1 Bft) W-NW 291 ° 0 min 0,000 mm 1,1 UV-I 70 W/m² 3,9 °C 5,1 °C 14,5 km/h (3 Bft)
03.10.2019 10:10 5,8 °C 87 % 1018,8 hPa 0,0 mm 6,5 km/h (2 Bft) W 269 ° 0 min 0,000 mm 1,1 UV-I 72 W/m² 3,8 °C 4,5 °C 9,7 km/h (2 Bft)
03.10.2019 10:11 5,8 °C 87 % 1018,8 hPa 0,0 mm 9,2 km/h (2 Bft) W-NW 284 ° 0 min 0,000 mm 1,2 UV-I 84 W/m² 3,8 °C 3,8 °C 12,9 km/h (3 Bft)
03.10.2019 10:12 5,7 °C 87 % 1018,8 hPa 0,0 mm 5,6 km/h (1 Bft) W-NW 294 ° 0 min 0,000 mm 1,3 UV-I 91 W/m² 3,7 °C 4,7 °C 6,4 km/h (2 Bft)
03.10.2019 10:13 5,7 °C 87 % 1018,8 hPa 0,0 mm 5,2 km/h (1 Bft) W 261 ° 0 min 0,000 mm 1,3 UV-I 107 W/m² 3,7 °C 4,8 °C 12,9 km/h (3 Bft)
03.10.2019 10:14 5,6 °C 87 % 1018,8 hPa 0,0 mm 9,6 km/h (2 Bft) W-NW 286 ° 0 min 0,000 mm 1,3 UV-I 123 W/m² 3,6 °C 3,5 °C 12,9 km/h (3 Bft)
03.10.2019 10:15 5,7 °C 88 % 1018,9 hPa 0,0 mm 14,3 km/h (3 Bft) W-NW 288 ° 0 min 0,000 mm 1,3 UV-I 127 W/m² 3,9 °C 2,7 °C 17,7 km/h (3 Bft)
03.10.2019 10:16 5,8 °C 88 % 1018,9 hPa 0,0 mm 11,3 km/h (2 Bft) W 275 ° 0 min 0,000 mm 1,3 UV-I 114 W/m² 4,0 °C 3,4 °C 16,1 km/h (3 Bft)
03.10.2019 10:17 5,8 °C 88 % 1018,8 hPa 0,0 mm 8,0 km/h (2 Bft) W-NW 288 ° 0 min 0,000 mm 1,3 UV-I 127 W/m² 4,0 °C 4,1 °C 11,3 km/h (2 Bft)
03.10.2019 10:18 5,8 °C 88 % 1018,9 hPa 0,0 mm 5,3 km/h (1 Bft) W 275 ° 0 min 0,000 mm 1,3 UV-I 118 W/m² 4,0 °C 4,9 °C 11,3 km/h (2 Bft)
03.10.2019 10:19 5,9 °C 88 % 1018,8 hPa 0,0 mm 4,8 km/h (1 Bft) W 265 ° 0 min 0,000 mm 1,4 UV-I 125 W/m² 4,1 °C 5,2 °C 12,9 km/h (3 Bft)
03.10.2019 10:20 6,1 °C 89 % 1018,8 hPa 0,0 mm 4,8 km/h (1 Bft) W 268 ° 0 min 0,000 mm 1,3 UV-I 88 W/m² 4,4 °C 5,4 °C 16,1 km/h (3 Bft)
03.10.2019 10:21 6,1 °C 88 % 1018,8 hPa 0,0 mm 12,1 km/h (2 Bft) W-SW 252 ° 0 min 0,000 mm 1,4 UV-I 83 W/m² 4,3 °C 3,6 °C 16,1 km/h (3 Bft)
03.10.2019 10:22 6,1 °C 88 % 1018,8 hPa 0,0 mm 8,0 km/h (2 Bft) NW 306 ° 0 min 0,000 mm 1,4 UV-I 74 W/m² 4,3 °C 4,4 °C 16,1 km/h (3 Bft)
03.10.2019 10:23 6,1 °C 88 % 1018,8 hPa 0,0 mm 3,2 km/h (1 Bft) W 265 ° 0 min 0,000 mm 1,4 UV-I 83 W/m² 4,3 °C 6,1 °C 6,4 km/h (2 Bft)
03.10.2019 10:24 6,2 °C 89 % 1018,9 hPa 0,0 mm 5,5 km/h (1 Bft) W-SW 244 ° 0 min 0,000 mm 1,4 UV-I 86 W/m² 4,5 °C 5,3 °C 9,7 km/h (2 Bft)
03.10.2019 10:25 6,2 °C 88 % 1018,9 hPa 0,0 mm 8,4 km/h (2 Bft) W 279 ° 0 min 0,000 mm 1,4 UV-I 98 W/m² 4,4 °C 4,4 °C 11,3 km/h (2 Bft)
03.10.2019 10:26 6,2 °C 87 % 1018,9 hPa 0,0 mm 9,4 km/h (2 Bft) NW 325 ° 0 min 0,000 mm 1,4 UV-I 90 W/m² 4,2 °C 4,2 °C 14,5 km/h (3 Bft)
03.10.2019 10:27 6,3 °C 88 % 1018,9 hPa 0,0 mm 6,4 km/h (2 Bft) NW 306 ° 0 min 0,000 mm 1,4 UV-I 77 W/m² 4,5 °C 5,1 °C 9,7 km/h (2 Bft)
03.10.2019 10:28 6,4 °C 87 % 1018,9 hPa 0,0 mm 10,1 km/h (2 Bft) W 279 ° 0 min 0,000 mm 1,4 UV-I 79 W/m² 4,4 °C 4,3 °C 16,1 km/h (3 Bft)
03.10.2019 10:29 6,4 °C 86 % 1018,9 hPa 0,0 mm 7,9 km/h (2 Bft) W-NW 291 ° 0 min 0,000 mm 1,4 UV-I 76 W/m² 4,2 °C 4,8 °C 12,9 km/h (3 Bft)
03.10.2019 10:30 6,4 °C 86 % 1018,9 hPa 0,0 mm 6,4 km/h (2 Bft) W 259 ° 0 min 0,000 mm 1,4 UV-I 83 W/m² 4,2 °C 5,2 °C 14,5 km/h (3 Bft)
03.10.2019 10:31 6,4 °C 86 % 1018,9 hPa 0,0 mm 5,6 km/h (1 Bft) NW 317 ° 0 min 0,000 mm 1,4 UV-I 81 W/m² 4,2 °C 5,5 °C 9,7 km/h (2 Bft)
03.10.2019 10:32 6,5 °C 86 % 1018,9 hPa 0,0 mm 8,3 km/h (2 Bft) W-NW 299 ° 0 min 0,000 mm 1,4 UV-I 100 W/m² 4,3 °C 4,8 °C 12,9 km/h (3 Bft)
03.10.2019 10:33 6,6 °C 86 % 1018,9 hPa 0,0 mm 5,9 km/h (2 Bft) W-NW 296 ° 0 min 0,000 mm 1,5 UV-I 188 W/m² 4,4 °C 5,6 °C 8,0 km/h (2 Bft)
03.10.2019 10:34 6,7 °C 86 % 1018,9 hPa 0,0 mm 5,7 km/h (1 Bft) NW 317 ° 0 min 0,000 mm 1,6 UV-I 188 W/m² 4,5 °C 5,8 °C 9,7 km/h (2 Bft)
03.10.2019 10:35 6,8 °C 85 % 1018,9 hPa 0,0 mm 10,6 km/h (2 Bft) NW 315 ° 0 min 0,000 mm 2,1 UV-I 397 W/m² 4,5 °C 4,7 °C 17,7 km/h (3 Bft)
03.10.2019 10:36 6,8 °C 85 % 1018,9 hPa 0,0 mm 8,9 km/h (2 Bft) W 273 ° 0 min 0,000 mm 1,9 UV-I 318 W/m² 4,5 °C 5,0 °C 14,5 km/h (3 Bft)
03.10.2019 10:37 6,8 °C 85 % 1019,0 hPa 0,0 mm 5,8 km/h (2 Bft) NW 323 ° 0 min 0,000 mm 2,0 UV-I 366 W/m² 4,5 °C 5,9 °C 9,7 km/h (2 Bft)
03.10.2019 10:38 6,8 °C 84 % 1019,0 hPa 0,0 mm 6,9 km/h (2 Bft) W-NW 302 ° 0 min 0,000 mm 2,2 UV-I 464 W/m² 4,3 °C 5,5 °C 14,5 km/h (3 Bft)
03.10.2019 10:39 6,8 °C 84 % 1018,9 hPa 0,0 mm 12,5 km/h (3 Bft) W-NW 288 ° 0 min 0,000 mm 2,2 UV-I 464 W/m² 4,3 °C 4,4 °C 17,7 km/h (3 Bft)
03.10.2019 10:40 6,8 °C 83 % 1019,0 hPa 0,0 mm 7,2 km/h (2 Bft) N-NW 330 ° 0 min 0,000 mm 2,3 UV-I 554 W/m² 4,1 °C 5,5 °C 11,3 km/h (2 Bft)
03.10.2019 10:41 6,8 °C 83 % 1018,9 hPa 0,0 mm 8,1 km/h (2 Bft) NW 320 ° 0 min 0,000 mm 2,4 UV-I 575 W/m² 4,1 °C 5,2 °C 14,5 km/h (3 Bft)
03.10.2019 10:42 6,9 °C 84 % 1019,0 hPa 0,0 mm 10,9 km/h (2 Bft) N-NW 342 ° 0 min 0,000 mm 2,4 UV-I 538 W/m² 4,4 °C 4,8 °C 16,1 km/h (3 Bft)
03.10.2019 10:43 6,9 °C 83 % 1018,9 hPa 0,0 mm 8,4 km/h (2 Bft) N-NW 339 ° 0 min 0,000 mm 2,2 UV-I 443 W/m² 4,2 °C 5,3 °C 16,1 km/h (3 Bft)
03.10.2019 10:44 7,0 °C 83 % 1018,9 hPa 0,0 mm 7,2 km/h (2 Bft) W-NW 283 ° 0 min 0,000 mm 1,6 UV-I 443 W/m² 4,3 °C 5,7 °C 12,9 km/h (3 Bft)
03.10.2019 10:45 7,1 °C 84 % 1018,9 hPa 0,0 mm 8,4 km/h (2 Bft) W-SW 248 ° 0 min 0,000 mm 2,2 UV-I 443 W/m² 4,6 °C 5,5 °C 12,9 km/h (3 Bft)
03.10.2019 10:46 7,1 °C 84 % 1019,0 hPa 0,0 mm 4,9 km/h (1 Bft) W-NW 284 ° 0 min 0,000 mm 2,2 UV-I 592 W/m² 4,6 °C 6,5 °C 11,3 km/h (2 Bft)
03.10.2019 10:47 7,1 °C 84 % 1019,0 hPa 0,0 mm 6,2 km/h (2 Bft) W 259 ° 1 min 0,000 mm 2,5 UV-I 626 W/m² 4,6 °C 6,1 °C 12,9 km/h (3 Bft)
03.10.2019 10:48 7,2 °C 85 % 1019,0 hPa 0,0 mm 8,2 km/h (2 Bft) W 272 ° 1 min 0,000 mm 2,5 UV-I 663 W/m² 4,9 °C 5,7 °C 11,3 km/h (2 Bft)
03.10.2019 10:49 7,3 °C 85 % 1018,9 hPa 0,0 mm 5,0 km/h (1 Bft) SW 219 ° 1 min 0,000 mm 2,5 UV-I 687 W/m² 4,9 °C 6,7 °C 8,0 km/h (2 Bft)
03.10.2019 10:50 7,3 °C 84 % 1019,0 hPa 0,0 mm 4,4 km/h (1 Bft) NW 319 ° 1 min 0,000 mm 2,4 UV-I 694 W/m² 4,8 °C 7,3 °C 9,7 km/h (2 Bft)
03.10.2019 10:51 7,4 °C 85 % 1019,0 hPa 0,0 mm 12,4 km/h (3 Bft) NW 304 ° 1 min 0,000 mm 2,4 UV-I 691 W/m² 5,0 °C 5,1 °C 14,5 km/h (3 Bft)
03.10.2019 10:52 7,7 °C 85 % 1018,9 hPa 0,0 mm 10,9 km/h (2 Bft) NW 309 ° 1 min 0,000 mm 2,2 UV-I 691 W/m² 5,3 °C 5,7 °C 16,1 km/h (3 Bft)
03.10.2019 10:53 7,7 °C 84 % 1018,9 hPa 0,0 mm 7,3 km/h (2 Bft) W-SW 258 ° 0 min 0,000 mm 1,2 UV-I 232 W/m² 5,2 °C 6,5 °C 9,7 km/h (2 Bft)
03.10.2019 10:54 7,6 °C 82 % 1018,9 hPa 0,0 mm 4,5 km/h (1 Bft) W 267 ° 0 min 0,000 mm 1,2 UV-I 267 W/m² 4,7 °C 7,6 °C 8,0 km/h (2 Bft)
03.10.2019 10:55 7,6 °C 83 % 1018,9 hPa 0,0 mm 7,5 km/h (2 Bft) W 274 ° 0 min 0,000 mm 1,1 UV-I 179 W/m² 4,9 °C 6,3 °C 12,9 km/h (3 Bft)
03.10.2019 10:56 7,6 °C 84 % 1018,9 hPa 0,0 mm 7,6 km/h (2 Bft) W 273 ° 0 min 0,000 mm 1,2 UV-I 209 W/m² 5,1 °C 6,3 °C 14,5 km/h (3 Bft)
03.10.2019 10:57 7,4 °C 82 % 1018,9 hPa 0,0 mm 1,5 km/h (1 Bft) W 273 ° 0 min 0,000 mm 1,3 UV-I 209 W/m² 4,5 °C 7,4 °C 4,8 km/h (1 Bft)
03.10.2019 10:58 7,3 °C 82 % 1018,9 hPa 0,0 mm 4,8 km/h (1 Bft) W-SW 251 ° 0 min 0,000 mm 1,1 UV-I 114 W/m² 4,4 °C 6,8 °C 6,4 km/h (2 Bft)
03.10.2019 10:59 7,2 °C 82 % 1018,9 hPa 0,0 mm 2,5 km/h (1 Bft) W 261 ° 0 min 0,000 mm 1,1 UV-I 132 W/m² 4,3 °C 7,2 °C 4,8 km/h (1 Bft)
03.10.2019 11:00 7,2 °C 82 % 1018,9 hPa 0,0 mm 2,8 km/h (1 Bft) W-NW 298 ° 0 min 0,102 mm 1,3 UV-I 132 W/m² 4,3 °C 7,2 °C 4,8 km/h (1 Bft)
03.10.2019 11:01 7,1 °C 83 % 1018,9 hPa 0,0 mm 1,6 km/h (1 Bft) W-NW 298 ° 0 min 0,000 mm 1,0 UV-I 132 W/m² 4,4 °C 7,1 °C 3,2 km/h (1 Bft)
03.10.2019 11:02 7,1 °C 83 % 1018,9 hPa 0,0 mm 3,5 km/h (1 Bft) N-NW 331 ° 0 min 0,000 mm 1,0 UV-I 69 W/m² 4,4 °C 7,1 °C 4,8 km/h (1 Bft)
03.10.2019 11:03 7,1 °C 84 % 1019,0 hPa 0,0 mm 9,5 km/h (2 Bft) W-NW 292 ° 0 min 0,000 mm 1,1 UV-I 67 W/m² 4,6 °C 5,3 °C 17,7 km/h (3 Bft)
03.10.2019 11:04 7,1 °C 83 % 1019,0 hPa 0,0 mm 12,3 km/h (3 Bft) W-SW 256 ° 0 min 0,000 mm 1,1 UV-I 60 W/m² 4,4 °C 4,8 °C 16,1 km/h (3 Bft)
03.10.2019 11:05 6,9 °C 82 % 1019,0 hPa 0,0 mm 11,5 km/h (2 Bft) W-SW 240 ° 0 min 0,000 mm 0,0 UV-I 54 W/m² 4,0 °C 4,6 °C 14,5 km/h (3 Bft)
03.10.2019 11:06 6,8 °C 81 % 1019,0 hPa 0,0 mm 7,2 km/h (2 Bft) W-NW 290 ° 0 min 0,000 mm 0,0 UV-I 51 W/m² 3,8 °C 5,5 °C 11,3 km/h (2 Bft)
03.10.2019 11:07 6,7 °C 81 % 1019,1 hPa 0,0 mm 8,1 km/h (2 Bft) W-NW 284 ° 0 min 0,000 mm 0,0 UV-I 54 W/m² 3,7 °C 5,1 °C 11,3 km/h (2 Bft)
03.10.2019 11:08 6,6 °C 81 % 1019,1 hPa 0,0 mm 7,6 km/h (2 Bft) W-SW 251 ° 0 min 0,000 mm 1,4 UV-I 62 W/m² 3,6 °C 5,1 °C 12,9 km/h (3 Bft)
03.10.2019 11:09 6,5 °C 82 % 1019,1 hPa 0,0 mm 4,4 km/h (1 Bft) W-NW 289 ° 0 min 0,000 mm 1,8 UV-I 79 W/m² 3,7 °C 6,5 °C 6,4 km/h (2 Bft)
03.10.2019 11:10 6,4 °C 83 % 1019,1 hPa 0,0 mm 2,6 km/h (1 Bft) W-SW 256 ° 0 min 0,000 mm 1,5 UV-I 69 W/m² 3,7 °C 6,4 °C 4,8 km/h (1 Bft)
03.10.2019 11:11 6,3 °C 83 % 1019,0 hPa 0,0 mm 3,7 km/h (1 Bft) W-SW 254 ° 0 min 0,000 mm 1,6 UV-I 72 W/m² 3,6 °C 6,3 °C 4,8 km/h (1 Bft)
03.10.2019 11:12 6,3 °C 84 % 1019,1 hPa 0,0 mm 6,7 km/h (2 Bft) W-NW 296 ° 0 min 0,000 mm 2,7 UV-I 72 W/m² 3,8 °C 5,0 °C 12,9 km/h (3 Bft)
03.10.2019 11:13 6,3 °C 85 % 1019,1 hPa 0,0 mm 5,4 km/h (1 Bft) W 267 ° 0 min 0,000 mm 2,7 UV-I 543 W/m² 4,0 °C 5,4 °C 9,7 km/h (2 Bft)
03.10.2019 11:14 6,5 °C 86 % 1019,1 hPa 0,0 mm 2,3 km/h (1 Bft) W 267 ° 0 min 0,000 mm 2,8 UV-I 550 W/m² 4,3 °C 6,5 °C 3,2 km/h (1 Bft)
03.10.2019 11:15 6,7 °C 86 % 1019,1 hPa 0,0 mm 0,0 km/h (0 Bft) W 267 ° 0 min 0,000 mm 2,8 UV-I 550 W/m² 4,5 °C 6,7 °C 0,0 km/h (0 Bft)
03.10.2019 11:16 6,6 °C 85 % 1019,1 hPa 0,0 mm 0,2 km/h (0 Bft) W 267 ° 0 min 0,000 mm 2,9 UV-I 573 W/m² 4,3 °C 6,6 °C 1,6 km/h (1 Bft)
03.10.2019 11:17 6,6 °C 86 % 1019,1 hPa 0,0 mm 3,3 km/h (1 Bft) W 265 ° 0 min 0,000 mm 2,3 UV-I 476 W/m² 4,4 °C 6,6 °C 6,4 km/h (2 Bft)
03.10.2019 11:18 6,7 °C 86 % 1019,1 hPa 0,0 mm 6,7 km/h (2 Bft) W 263 ° 0 min 0,000 mm 3,0 UV-I 476 W/m² 4,5 °C 5,5 °C 11,3 km/h (2 Bft)
03.10.2019 11:19 6,8 °C 85 % 1019,1 hPa 0,0 mm 3,6 km/h (1 Bft) W 263 ° 1 min 0,000 mm 3,0 UV-I 608 W/m² 4,5 °C 6,8 °C 6,4 km/h (2 Bft)
03.10.2019 11:20 6,9 °C 84 % 1019,1 hPa 0,0 mm 6,2 km/h (2 Bft) W 270 ° 1 min 0,000 mm 3,0 UV-I 610 W/m² 4,4 °C 5,8 °C 11,3 km/h (2 Bft)
03.10.2019 11:21 7,0 °C 85 % 1019,1 hPa 0,0 mm 4,0 km/h (1 Bft) W-SW 248 ° 1 min 0,000 mm 3,0 UV-I 622 W/m² 4,7 °C 7,0 °C 6,4 km/h (2 Bft)
03.10.2019 11:22 7,2 °C 85 % 1019,1 hPa 0,0 mm 6,8 km/h (2 Bft) W-SW 238 ° 1 min 0,000 mm 3,1 UV-I 642 W/m² 4,9 °C 6,0 °C 9,7 km/h (2 Bft)
03.10.2019 11:23 7,4 °C 85 % 1019,1 hPa 0,0 mm 7,0 km/h (2 Bft) W 267 ° 1 min 0,000 mm 2,2 UV-I 642 W/m² 5,0 °C 6,2 °C 9,7 km/h (2 Bft)
03.10.2019 11:24 7,5 °C 85 % 1019,0 hPa 0,0 mm 4,9 km/h (1 Bft) W 264 ° 1 min 0,000 mm 3,1 UV-I 642 W/m² 5,1 °C 7,0 °C 9,7 km/h (2 Bft)
03.10.2019 11:25 7,7 °C 85 % 1019,0 hPa 0,0 mm 3,5 km/h (1 Bft) W 267 ° 1 min 0,000 mm 3,1 UV-I 661 W/m² 5,3 °C 7,7 °C 6,4 km/h (2 Bft)
03.10.2019 11:26 7,8 °C 84 % 1019,0 hPa 0,0 mm 7,2 km/h (2 Bft) W 263 ° 1 min 0,000 mm 3,1 UV-I 661 W/m² 5,3 °C 6,6 °C 9,7 km/h (2 Bft)
03.10.2019 11:27 7,9 °C 85 % 1019,0 hPa 0,0 mm 4,7 km/h (1 Bft) W-SW 248 ° 1 min 0,000 mm 3,0 UV-I 696 W/m² 5,5 °C 7,5 °C 6,4 km/h (2 Bft)
03.10.2019 11:28 7,9 °C 82 % 1018,9 hPa 0,0 mm 7,4 km/h (2 Bft) W 274 ° 1 min 0,000 mm 1,9 UV-I 696 W/m² 5,0 °C 6,7 °C 9,7 km/h (2 Bft)
03.10.2019 11:29 7,9 °C 83 % 1019,0 hPa 0,0 mm 7,9 km/h (2 Bft) W 264 ° 0 min 0,000 mm 1,9 UV-I 287 W/m² 5,2 °C 6,6 °C 9,7 km/h (2 Bft)
03.10.2019 11:30 7,8 °C 83 % 1019,0 hPa 0,0 mm 5,6 km/h (1 Bft) NW 306 ° 0 min 0,000 mm 1,6 UV-I 281 W/m² 5,1 °C 7,1 °C 6,4 km/h (2 Bft)
03.10.2019 11:31 7,8 °C 84 % 1019,0 hPa 0,0 mm 3,0 km/h (1 Bft) N-NW 330 ° 0 min 0,000 mm 1,5 UV-I 223 W/m² 5,3 °C 7,8 °C 8,0 km/h (2 Bft)
03.10.2019 11:32 7,8 °C 84 % 1019,0 hPa 0,0 mm 6,6 km/h (2 Bft) W-SW 244 ° 0 min 0,000 mm 1,4 UV-I 211 W/m² 5,3 °C 6,8 °C 11,3 km/h (2 Bft)
03.10.2019 11:33 7,8 °C 82 % 1019,0 hPa 0,0 mm 5,6 km/h (1 Bft) N-NW 333 ° 0 min 0,000 mm 1,3 UV-I 213 W/m² 4,9 °C 7,1 °C 11,3 km/h (2 Bft)
03.10.2019 11:34 7,7 °C 82 % 1019,0 hPa 0,0 mm 6,0 km/h (2 Bft) W-SW 244 ° 0 min 0,000 mm 1,4 UV-I 225 W/m² 4,8 °C 6,8 °C 14,5 km/h (3 Bft)
03.10.2019 11:35 7,7 °C 81 % 1019,0 hPa 0,0 mm 6,0 km/h (2 Bft) W-NW 289 ° 0 min 0,000 mm 1,4 UV-I 248 W/m² 4,7 °C 6,8 °C 6,4 km/h (2 Bft)
03.10.2019 11:36 7,7 °C 81 % 1019,0 hPa 0,0 mm 5,2 km/h (1 Bft) W-SW 252 ° 0 min 0,000 mm 1,5 UV-I 246 W/m² 4,7 °C 7,1 °C 6,4 km/h (2 Bft)
03.10.2019 11:37 7,7 °C 83 % 1019,0 hPa 0,0 mm 4,6 km/h (1 Bft) W 277 ° 0 min 0,000 mm 1,5 UV-I 315 W/m² 5,0 °C 7,3 °C 6,4 km/h (2 Bft)
03.10.2019 11:38 7,7 °C 82 % 1019,0 hPa 0,0 mm 6,1 km/h (2 Bft) W-NW 284 ° 0 min 0,000 mm 1,4 UV-I 229 W/m² 4,8 °C 6,8 °C 11,3 km/h (2 Bft)
03.10.2019 11:39 7,7 °C 82 % 1019,0 hPa 0,0 mm 5,3 km/h (1 Bft) W-NW 299 ° 0 min 0,000 mm 1,3 UV-I 185 W/m² 4,8 °C 7,0 °C 9,7 km/h (2 Bft)
03.10.2019 11:40 7,7 °C 81 % 1019,0 hPa 0,0 mm 6,4 km/h (2 Bft) W-NW 294 ° 0 min 0,000 mm 1,0 UV-I 162 W/m² 4,7 °C 6,7 °C 9,7 km/h (2 Bft)
03.10.2019 11:41 7,8 °C 82 % 1019,0 hPa 0,0 mm 6,6 km/h (2 Bft) W-NW 286 ° 0 min 0,000 mm 0,9 UV-I 151 W/m² 4,9 °C 6,8 °C 11,3 km/h (2 Bft)
03.10.2019 11:42 7,7 °C 81 % 1019,0 hPa 0,0 mm 8,9 km/h (2 Bft) W-NW 285 ° 0 min 0,000 mm 0,9 UV-I 139 W/m² 4,7 °C 6,1 °C 12,9 km/h (3 Bft)
03.10.2019 11:43 7,7 °C 81 % 1019,0 hPa 0,0 mm 7,3 km/h (2 Bft) W 261 ° 0 min 0,000 mm 0,8 UV-I 125 W/m² 4,7 °C 6,5 °C 17,7 km/h (3 Bft)
03.10.2019 11:44 7,7 °C 80 % 1018,9 hPa 0,0 mm 10,1 km/h (2 Bft) SW 215 ° 0 min 0,000 mm 0,7 UV-I 109 W/m² 4,5 °C 5,9 °C 14,5 km/h (3 Bft)
03.10.2019 11:45 7,6 °C 80 % 1018,9 hPa 0,0 mm 6,9 km/h (2 Bft) W-SW 256 ° 0 min 0,000 mm 0,7 UV-I 91 W/m² 4,4 °C 6,5 °C 12,9 km/h (3 Bft)
03.10.2019 11:46 7,5 °C 80 % 1019,0 hPa 0,0 mm 9,1 km/h (2 Bft) W 263 ° 0 min 0,000 mm 0,6 UV-I 83 W/m² 4,3 °C 5,8 °C 14,5 km/h (3 Bft)
03.10.2019 11:47 7,5 °C 80 % 1019,0 hPa 0,0 mm 11,3 km/h (2 Bft) W-NW 284 ° 0 min 0,000 mm 0,6 UV-I 76 W/m² 4,3 °C 5,4 °C 16,1 km/h (3 Bft)
03.10.2019 11:48 7,4 °C 80 % 1019,0 hPa 0,0 mm 9,3 km/h (2 Bft) NW 315 ° 0 min 0,000 mm 0,6 UV-I 70 W/m² 4,2 °C 5,7 °C 16,1 km/h (3 Bft)
03.10.2019 11:49 7,4 °C 81 % 1019,0 hPa 0,0 mm 6,4 km/h (2 Bft) NW 321 ° 0 min 0,000 mm 0,7 UV-I 69 W/m² 4,4 °C 6,4 °C 12,9 km/h (3 Bft)
03.10.2019 11:50 7,3 °C 81 % 1018,9 hPa 0,0 mm 6,6 km/h (2 Bft) NW 325 ° 0 min 0,000 mm 0,8 UV-I 70 W/m² 4,3 °C 6,2 °C 12,9 km/h (3 Bft)
03.10.2019 11:51 7,3 °C 82 % 1019,0 hPa 0,0 mm 6,2 km/h (2 Bft) N-NW 331 ° 0 min 0,000 mm 0,9 UV-I 77 W/m² 4,4 °C 6,3 °C 9,7 km/h (2 Bft)
03.10.2019 11:52 7,2 °C 82 % 1019,0 hPa 0,0 mm 6,0 km/h (2 Bft) NW 311 ° 0 min 0,000 mm 1,1 UV-I 76 W/m² 4,3 °C 6,3 °C 11,3 km/h (2 Bft)
03.10.2019 11:53 7,2 °C 82 % 1019,0 hPa 0,0 mm 5,9 km/h (2 Bft) W-NW 298 ° 0 min 0,000 mm 1,2 UV-I 79 W/m² 4,3 °C 6,3 °C 8,0 km/h (2 Bft)
03.10.2019 11:54 7,1 °C 83 % 1018,9 hPa 0,0 mm 4,3 km/h (1 Bft) W-NW 291 ° 0 min 0,000 mm 1,2 UV-I 83 W/m² 4,4 °C 7,1 °C 8,0 km/h (2 Bft)
03.10.2019 11:55 7,1 °C 83 % 1018,9 hPa 0,0 mm 2,5 km/h (1 Bft) NW 321 ° 0 min 0,000 mm 1,2 UV-I 90 W/m² 4,4 °C 7,1 °C 4,8 km/h (1 Bft)
03.10.2019 11:56 7,0 °C 84 % 1019,0 hPa 0,0 mm 4,1 km/h (1 Bft) W-NW 282 ° 0 min 0,000 mm 1,2 UV-I 83 W/m² 4,5 °C 7,0 °C 4,8 km/h (1 Bft)
03.10.2019 11:57 6,9 °C 84 % 1019,0 hPa 0,0 mm 1,7 km/h (1 Bft) W-NW 295 ° 0 min 0,000 mm 1,2 UV-I 77 W/m² 4,4 °C 6,9 °C 4,8 km/h (1 Bft)
03.10.2019 11:58 6,9 °C 84 % 1019,0 hPa 0,0 mm 4,2 km/h (1 Bft) W-NW 302 ° 0 min 0,000 mm 1,3 UV-I 81 W/m² 4,4 °C 6,9 °C 6,4 km/h (2 Bft)
03.10.2019 11:59 6,8 °C 84 % 1019,0 hPa 0,2 mm 6,2 km/h (2 Bft) NW 308 ° 0 min 0,000 mm 1,4 UV-I 83 W/m² 4,3 °C 5,7 °C 14,5 km/h (3 Bft)
03.10.2019 12:00 6,8 °C 84 % 1019,0 hPa 0,0 mm 7,6 km/h (2 Bft) W-NW 294 ° 0 min 0,000 mm 1,5 UV-I 86 W/m² 4,3 °C 5,3 °C 12,9 km/h (3 Bft)
03.10.2019 12:01 6,8 °C 84 % 1019,0 hPa 0,0 mm 6,7 km/h (2 Bft) W-NW 283 ° 0 min 0,101 mm 1,5 UV-I 90 W/m² 4,3 °C 5,6 °C 14,5 km/h (3 Bft)
03.10.2019 12:02 6,7 °C 84 % 1018,9 hPa 0,0 mm 8,4 km/h (2 Bft) W-NW 288 ° 0 min 0,000 mm 1,6 UV-I 98 W/m² 4,2 °C 5,0 °C 12,9 km/h (3 Bft)
03.10.2019 12:03 6,7 °C 84 % 1019,0 hPa 0,0 mm 6,8 km/h (2 Bft) W-NW 288 ° 0 min 0,000 mm 1,7 UV-I 97 W/m² 4,2 °C 5,4 °C 12,9 km/h (3 Bft)
03.10.2019 12:04 6,7 °C 85 % 1018,9 hPa 0,0 mm 8,0 km/h (2 Bft) W 276 ° 0 min 0,000 mm 1,9 UV-I 107 W/m² 4,4 °C 5,1 °C 11,3 km/h (2 Bft)
03.10.2019 12:05 6,7 °C 85 % 1018,9 hPa 0,0 mm 5,1 km/h (1 Bft) W-NW 294 ° 0 min 0,000 mm 2,9 UV-I 176 W/m² 4,4 °C 6,0 °C 9,7 km/h (2 Bft)
03.10.2019 12:06 6,7 °C 86 % 1019,0 hPa 0,0 mm 6,1 km/h (2 Bft) W 262 ° 0 min 0,000 mm 2,3 UV-I 237 W/m² 4,5 °C 5,6 °C 9,7 km/h (2 Bft)
03.10.2019 12:07 6,9 °C 86 % 1018,9 hPa 0,0 mm 6,3 km/h (2 Bft) W-NW 292 ° 0 min 0,000 mm 3,6 UV-I 237 W/m² 4,7 °C 5,8 °C 11,3 km/h (2 Bft)
03.10.2019 12:08 7,3 °C 88 % 1018,9 hPa 0,0 mm 4,2 km/h (1 Bft) W 269 ° 1 min 0,000 mm 3,6 UV-I 768 W/m² 5,4 °C 7,3 °C 6,4 km/h (2 Bft)
03.10.2019 12:09 7,4 °C 86 % 1018,9 hPa 0,0 mm 5,5 km/h (1 Bft) NW 314 ° 1 min 0,000 mm 3,7 UV-I 810 W/m² 5,2 °C 6,6 °C 11,3 km/h (2 Bft)
03.10.2019 12:10 7,8 °C 86 % 1018,9 hPa 0,0 mm 5,2 km/h (1 Bft) W 277 ° 1 min 0,000 mm 3,6 UV-I 830 W/m² 5,6 °C 7,2 °C 8,0 km/h (2 Bft)
03.10.2019 12:11 8,1 °C 85 % 1018,9 hPa 0,0 mm 4,8 km/h (1 Bft) W 265 ° 1 min 0,000 mm 3,3 UV-I 816 W/m² 5,7 °C 7,7 °C 9,7 km/h (2 Bft)
03.10.2019 12:12 8,3 °C 86 % 1018,9 hPa 0,0 mm 3,6 km/h (1 Bft) W-NW 286 ° 1 min 0,000 mm 3,0 UV-I 798 W/m² 6,1 °C 8,3 °C 6,4 km/h (2 Bft)
03.10.2019 12:13 8,5 °C 85 % 1018,8 hPa 0,0 mm 6,2 km/h (2 Bft) W 265 ° 1 min 0,000 mm 3,0 UV-I 798 W/m² 6,1 °C 7,7 °C 9,7 km/h (2 Bft)
03.10.2019 12:14 8,6 °C 83 % 1018,8 hPa 0,0 mm 6,3 km/h (2 Bft) W 274 ° 0 min 0,000 mm 1,3 UV-I 185 W/m² 5,9 °C 7,8 °C 11,3 km/h (2 Bft)
03.10.2019 12:15 8,6 °C 83 % 1018,8 hPa 0,0 mm 8,5 km/h (2 Bft) NW 321 ° 0 min 0,000 mm 1,3 UV-I 162 W/m² 5,9 °C 7,3 °C 16,1 km/h (3 Bft)
03.10.2019 12:16 8,4 °C 81 % 1018,8 hPa 0,0 mm 9,9 km/h (2 Bft) W-NW 286 ° 0 min 0,000 mm 1,3 UV-I 156 W/m² 5,3 °C 6,7 °C 14,5 km/h (3 Bft)
03.10.2019 12:17 8,3 °C 80 % 1018,8 hPa 0,0 mm 10,4 km/h (2 Bft) W-NW 288 ° 0 min 0,000 mm 1,4 UV-I 155 W/m² 5,1 °C 6,5 °C 16,1 km/h (3 Bft)
03.10.2019 12:18 8,2 °C 80 % 1018,9 hPa 0,0 mm 13,2 km/h (3 Bft) W-NW 303 ° 0 min 0,000 mm 1,5 UV-I 151 W/m² 5,0 °C 5,9 °C 20,9 km/h (4 Bft)
03.10.2019 12:19 8,0 °C 80 % 1018,9 hPa 0,0 mm 10,1 km/h (2 Bft) W 273 ° 0 min 0,000 mm 1,5 UV-I 146 W/m² 4,8 °C 6,2 °C 17,7 km/h (3 Bft)
03.10.2019 12:20 7,8 °C 80 % 1018,9 hPa 0,0 mm 10,7 km/h (2 Bft) NW 312 ° 0 min 0,000 mm 1,5 UV-I 137 W/m² 4,6 °C 5,9 °C 16,1 km/h (3 Bft)
03.10.2019 12:21 7,7 °C 80 % 1018,9 hPa 0,0 mm 6,6 km/h (2 Bft) W 277 ° 0 min 0,000 mm 1,6 UV-I 132 W/m² 4,5 °C 6,7 °C 11,3 km/h (2 Bft)
03.10.2019 12:22 7,6 °C 81 % 1018,9 hPa 0,0 mm 7,4 km/h (2 Bft) W-NW 294 ° 0 min 0,000 mm 1,6 UV-I 123 W/m² 4,6 °C 6,3 °C 12,9 km/h (3 Bft)
03.10.2019 12:23 7,4 °C 81 % 1018,9 hPa 0,0 mm 3,4 km/h (1 Bft) W 275 ° 0 min 0,000 mm 1,6 UV-I 114 W/m² 4,4 °C 7,4 °C 6,4 km/h (2 Bft)
03.10.2019 12:24 7,4 °C 81 % 1018,9 hPa 0,0 mm 9,4 km/h (2 Bft) W-SW 252 ° 0 min 0,000 mm 1,6 UV-I 111 W/m² 4,4 °C 5,6 °C 12,9 km/h (3 Bft)
03.10.2019 12:25 7,3 °C 81 % 1018,8 hPa 0,0 mm 8,7 km/h (2 Bft) W 269 ° 0 min 0,000 mm 1,6 UV-I 118 W/m² 4,3 °C 5,7 °C 16,1 km/h (3 Bft)
03.10.2019 12:26 7,2 °C 81 % 1018,8 hPa 0,0 mm 12,3 km/h (3 Bft) W-NW 292 ° 0 min 0,000 mm 1,7 UV-I 130 W/m² 4,2 °C 4,9 °C 16,1 km/h (3 Bft)
03.10.2019 12:27 7,1 °C 81 % 1018,8 hPa 0,0 mm 7,2 km/h (2 Bft) NW 320 ° 0 min 0,000 mm 1,8 UV-I 141 W/m² 4,1 °C 5,8 °C 12,9 km/h (3 Bft)
03.10.2019 12:28 7,1 °C 82 % 1018,8 hPa 0,0 mm 7,4 km/h (2 Bft) W-NW 287 ° 0 min 0,000 mm 2,0 UV-I 156 W/m² 4,2 °C 5,7 °C 11,3 km/h (2 Bft)
03.10.2019 12:29 7,1 °C 82 % 1018,8 hPa 0,0 mm 9,7 km/h (2 Bft) W-NW 287 ° 0 min 0,000 mm 3,1 UV-I 156 W/m² 4,2 °C 5,2 °C 14,5 km/h (3 Bft)
03.10.2019 12:30 7,1 °C 82 % 1018,8 hPa 0,0 mm 7,5 km/h (2 Bft) W 277 ° 0 min 0,000 mm 2,9 UV-I 156 W/m² 4,2 °C 5,7 °C 11,3 km/h (2 Bft)
03.10.2019 12:31 7,2 °C 82 % 1018,8 hPa 0,0 mm 6,6 km/h (2 Bft) NW 309 ° 0 min 0,000 mm 2,2 UV-I 156 W/m² 4,3 °C 6,1 °C 12,9 km/h (3 Bft)
03.10.2019 12:32 7,3 °C 82 % 1018,8 hPa 0,0 mm 5,8 km/h (2 Bft) W-SW 250 ° 0 min 0,000 mm 3,6 UV-I 156 W/m² 4,4 °C 6,4 °C 6,4 km/h (2 Bft)
03.10.2019 12:33 7,4 °C 82 % 1018,8 hPa 0,0 mm 5,5 km/h (1 Bft) W 270 ° 0 min 0,000 mm 3,6 UV-I 156 W/m² 4,5 °C 6,6 °C 8,0 km/h (2 Bft)
03.10.2019 12:34 7,7 °C 84 % 1018,8 hPa 0,0 mm 11,2 km/h (2 Bft) W 259 ° 1 min 0,000 mm 3,6 UV-I 657 W/m² 5,2 °C 5,7 °C 16,1 km/h (3 Bft)
03.10.2019 12:35 7,7 °C 83 % 1018,8 hPa 0,0 mm 10,5 km/h (2 Bft) W-NW 297 ° 1 min 0,000 mm 3,6 UV-I 659 W/m² 5,0 °C 5,8 °C 14,5 km/h (3 Bft)
03.10.2019 12:36 7,8 °C 81 % 1018,8 hPa 0,0 mm 13,1 km/h (3 Bft) W 263 ° 1 min 0,000 mm 2,1 UV-I 659 W/m² 4,7 °C 5,5 °C 17,7 km/h (3 Bft)
03.10.2019 12:37 7,8 °C 80 % 1018,7 hPa 0,0 mm 8,5 km/h (2 Bft) S 186 ° 1 min 0,000 mm 3,0 UV-I 659 W/m² 4,6 °C 6,3 °C 17,7 km/h (3 Bft)
03.10.2019 12:38 7,8 °C 80 % 1018,7 hPa 0,0 mm 5,1 km/h (1 Bft) W 277 ° 1 min 0,000 mm 3,6 UV-I 677 W/m² 4,6 °C 7,2 °C 6,4 km/h (2 Bft)
03.10.2019 12:39 7,9 °C 82 % 1018,7 hPa 0,0 mm 11,3 km/h (2 Bft) W 262 ° 1 min 0,000 mm 2,1 UV-I 677 W/m² 5,0 °C 5,9 °C 17,7 km/h (3 Bft)
03.10.2019 12:40 7,8 °C 81 % 1018,7 hPa 0,0 mm 10,2 km/h (2 Bft) W 275 ° 1 min 0,000 mm 2,8 UV-I 677 W/m² 4,7 °C 6,0 °C 12,9 km/h (3 Bft)
03.10.2019 12:41 7,8 °C 80 % 1018,7 hPa 0,0 mm 8,4 km/h (2 Bft) W 267 ° 0 min 0,000 mm 3,4 UV-I 213 W/m² 4,6 °C 6,3 °C 11,3 km/h (2 Bft)
03.10.2019 12:42 7,7 °C 81 % 1018,7 hPa 0,0 mm 10,1 km/h (2 Bft) W 264 ° 0 min 0,000 mm 2,6 UV-I 269 W/m² 4,7 °C 5,9 °C 14,5 km/h (3 Bft)
03.10.2019 12:43 7,6 °C 81 % 1018,6 hPa 0,0 mm 6,4 km/h (2 Bft) W 271 ° 0 min 0,000 mm 3,3 UV-I 540 W/m² 4,6 °C 6,6 °C 9,7 km/h (2 Bft)
03.10.2019 12:44 7,6 °C 81 % 1018,6 hPa 0,0 mm 8,4 km/h (2 Bft) W 265 ° 0 min 0,000 mm 2,0 UV-I 540 W/m² 4,6 °C 6,1 °C 14,5 km/h (3 Bft)
03.10.2019 12:45 7,6 °C 82 % 1018,6 hPa 0,0 mm 12,1 km/h (2 Bft) W-SW 246 ° 0 min 0,000 mm 2,0 UV-I 125 W/m² 4,7 °C 5,4 °C 16,1 km/h (3 Bft)
03.10.2019 12:46 7,4 °C 82 % 1018,6 hPa 0,0 mm 5,0 km/h (1 Bft) W 275 ° 0 min 0,000 mm 2,0 UV-I 113 W/m² 4,5 °C 6,8 °C 9,7 km/h (2 Bft)
03.10.2019 12:47 7,4 °C 82 % 1018,6 hPa 0,0 mm 2,7 km/h (1 Bft) W 270 ° 0 min 0,000 mm 2,0 UV-I 100 W/m² 4,5 °C 7,4 °C 4,8 km/h (1 Bft)
03.10.2019 12:48 7,3 °C 83 % 1018,6 hPa 0,0 mm 5,4 km/h (1 Bft) W-SW 238 ° 0 min 0,000 mm 2,0 UV-I 98 W/m² 4,6 °C 6,6 °C 11,3 km/h (2 Bft)
03.10.2019 12:49 7,3 °C 82 % 1018,6 hPa 0,0 mm 4,8 km/h (1 Bft) W 271 ° 0 min 0,000 mm 2,0 UV-I 128 W/m² 4,4 °C 6,8 °C 6,4 km/h (2 Bft)
03.10.2019 12:50 7,2 °C 82 % 1018,5 hPa 0,0 mm 2,5 km/h (1 Bft) W 271 ° 0 min 0,000 mm 2,1 UV-I 127 W/m² 4,3 °C 7,2 °C 4,8 km/h (1 Bft)
03.10.2019 12:51 7,2 °C 82 % 1018,5 hPa 0,0 mm 0,2 km/h (0 Bft) W 269 ° 0 min 0,000 mm 2,2 UV-I 155 W/m² 4,3 °C 7,2 °C 1,6 km/h (1 Bft)
03.10.2019 12:52 7,2 °C 82 % 1018,5 hPa 0,0 mm 0,0 km/h (0 Bft) W 268 ° 0 min 0,000 mm 3,8 UV-I 155 W/m² 4,3 °C 7,2 °C 0,0 km/h (0 Bft)
03.10.2019 12:53 7,2 °C 82 % 1018,6 hPa 0,0 mm 1,2 km/h (1 Bft) W-SW 253 ° 0 min 0,000 mm 2,6 UV-I 155 W/m² 4,3 °C 7,2 °C 6,4 km/h (2 Bft)
03.10.2019 12:54 7,3 °C 84 % 1018,5 hPa 0,0 mm 1,2 km/h (1 Bft) W-SW 252 ° 0 min 0,000 mm 3,9 UV-I 155 W/m² 4,8 °C 7,3 °C 3,2 km/h (1 Bft)
03.10.2019 12:55 7,6 °C 84 % 1018,5 hPa 0,0 mm 0,4 km/h (0 Bft) W-SW 252 ° 1 min 0,000 mm 3,9 UV-I 775 W/m² 5,1 °C 7,6 °C 1,6 km/h (1 Bft)
03.10.2019 12:56 7,8 °C 83 % 1018,5 hPa 0,0 mm 3,0 km/h (1 Bft) W 259 ° 1 min 0,000 mm 3,7 UV-I 768 W/m² 5,1 °C 7,8 °C 4,8 km/h (1 Bft)
03.10.2019 12:57 8,1 °C 83 % 1018,5 hPa 0,0 mm 1,3 km/h (1 Bft) W 259 ° 1 min 0,000 mm 3,9 UV-I 793 W/m² 5,4 °C 8,1 °C 3,2 km/h (1 Bft)
03.10.2019 12:58 8,3 °C 81 % 1018,4 hPa 0,0 mm 7,4 km/h (2 Bft) W 265 ° 1 min 0,000 mm 3,9 UV-I 802 W/m² 5,2 °C 7,1 °C 11,3 km/h (2 Bft)
03.10.2019 12:59 8,4 °C 81 % 1018,4 hPa 0,0 mm 3,1 km/h (1 Bft) W 262 ° 1 min 0,000 mm 3,9 UV-I 814 W/m² 5,3 °C 8,4 °C 4,8 km/h (1 Bft)
03.10.2019 13:00 8,6 °C 80 % 1018,4 hPa 0,0 mm 1,2 km/h (1 Bft) W 259 ° 1 min 0,153 mm 3,8 UV-I 819 W/m² 5,3 °C 8,6 °C 3,2 km/h (1 Bft)
03.10.2019 13:01 8,7 °C 78 % 1018,3 hPa 0,0 mm 2,0 km/h (1 Bft) S-SW 209 ° 1 min 0,000 mm 3,7 UV-I 819 W/m² 5,1 °C 8,7 °C 4,8 km/h (1 Bft)
03.10.2019 13:02 8,7 °C 77 % 1018,4 hPa 0,0 mm 3,8 km/h (1 Bft) W-SW 240 ° 1 min 0,000 mm 3,4 UV-I 803 W/m² 4,9 °C 8,7 °C 8,0 km/h (2 Bft)
03.10.2019 13:03 8,7 °C 77 % 1018,3 hPa 0,0 mm 4,0 km/h (1 Bft) W-SW 240 ° 1 min 0,000 mm 3,2 UV-I 782 W/m² 4,9 °C 8,7 °C 4,8 km/h (1 Bft)
03.10.2019 13:04 8,7 °C 79 % 1018,3 hPa 0,0 mm 3,2 km/h (1 Bft) W 265 ° 1 min 0,000 mm 3,0 UV-I 791 W/m² 5,3 °C 8,7 °C 6,4 km/h (2 Bft)
03.10.2019 13:05 8,9 °C 79 % 1018,3 hPa 0,0 mm 8,4 km/h (2 Bft) W-NW 294 ° 1 min 0,000 mm 2,4 UV-I 791 W/m² 5,5 °C 7,6 °C 12,9 km/h (3 Bft)
03.10.2019 13:06 8,8 °C 78 % 1018,3 hPa 0,0 mm 11,7 km/h (2 Bft) N-NW 331 ° 0 min 0,000 mm 2,0 UV-I 364 W/m² 5,2 °C 6,9 °C 19,3 km/h (3 Bft)
03.10.2019 13:07 8,8 °C 77 % 1018,3 hPa 0,0 mm 9,2 km/h (2 Bft) N-NW 339 ° 0 min 0,000 mm 1,5 UV-I 179 W/m² 5,0 °C 7,3 °C 14,5 km/h (3 Bft)
03.10.2019 13:08 8,7 °C 78 % 1018,3 hPa 0,0 mm 12,1 km/h (2 Bft) W-NW 297 ° 0 min 0,000 mm 1,3 UV-I 146 W/m² 5,1 °C 6,7 °C 17,7 km/h (3 Bft)
03.10.2019 13:09 8,6 °C 77 % 1018,3 hPa 0,0 mm 7,8 km/h (2 Bft) N-NW 336 ° 0 min 0,000 mm 1,3 UV-I 135 W/m² 4,8 °C 7,4 °C 11,3 km/h (2 Bft)
03.10.2019 13:10 8,4 °C 77 % 1018,3 hPa 0,0 mm 4,5 km/h (1 Bft) N-NW 333 ° 0 min 0,000 mm 1,4 UV-I 135 W/m² 4,6 °C 8,4 °C 8,0 km/h (2 Bft)
03.10.2019 13:11 8,4 °C 78 % 1018,3 hPa 0,0 mm 8,0 km/h (2 Bft) W 266 ° 0 min 0,000 mm 1,5 UV-I 142 W/m² 4,8 °C 7,1 °C 12,9 km/h (3 Bft)
03.10.2019 13:12 8,3 °C 78 % 1018,2 hPa 0,0 mm 7,2 km/h (2 Bft) NW 306 ° 0 min 0,000 mm 1,6 UV-I 148 W/m² 4,7 °C 7,2 °C 9,7 km/h (2 Bft)
03.10.2019 13:13 8,2 °C 78 % 1018,3 hPa 0,0 mm 6,1 km/h (2 Bft) W-NW 300 ° 0 min 0,000 mm 1,7 UV-I 146 W/m² 4,6 °C 7,4 °C 9,7 km/h (2 Bft)
03.10.2019 13:14 8,2 °C 79 % 1018,3 hPa 0,0 mm 4,7 km/h (1 Bft) W 270 ° 0 min 0,000 mm 1,6 UV-I 130 W/m² 4,8 °C 7,8 °C 9,7 km/h (2 Bft)
03.10.2019 13:15 8,2 °C 79 % 1018,3 hPa 0,0 mm 5,7 km/h (1 Bft) NW 319 ° 0 min 0,000 mm 1,6 UV-I 118 W/m² 4,8 °C 7,5 °C 9,7 km/h (2 Bft)
03.10.2019 13:16 8,1 °C 78 % 1018,3 hPa 0,0 mm 4,5 km/h (1 Bft) W-NW 286 ° 0 min 0,000 mm 1,6 UV-I 114 W/m² 4,5 °C 8,1 °C 6,4 km/h (2 Bft)
03.10.2019 13:17 8,1 °C 78 % 1018,3 hPa 0,0 mm 6,7 km/h (2 Bft) SW 222 ° 0 min 0,000 mm 1,6 UV-I 114 W/m² 4,5 °C 7,1 °C 11,3 km/h (2 Bft)
03.10.2019 13:18 8,0 °C 78 % 1018,2 hPa 0,0 mm 8,6 km/h (2 Bft) W 269 ° 0 min 0,000 mm 1,6 UV-I 121 W/m² 4,4 °C 6,5 °C 14,5 km/h (3 Bft)
03.10.2019 13:19 7,9 °C 78 % 1018,2 hPa 0,0 mm 8,4 km/h (2 Bft) W 267 ° 0 min 0,000 mm 1,6 UV-I 125 W/m² 4,3 °C 6,5 °C 12,9 km/h (3 Bft)
03.10.2019 13:20 7,8 °C 78 % 1018,2 hPa 0,0 mm 8,4 km/h (2 Bft) W-NW 289 ° 0 min 0,000 mm 1,6 UV-I 132 W/m² 4,2 °C 6,3 °C 12,9 km/h (3 Bft)
03.10.2019 13:21 7,8 °C 78 % 1018,2 hPa 0,0 mm 7,7 km/h (2 Bft) W-NW 293 ° 0 min 0,000 mm 1,7 UV-I 144 W/m² 4,2 °C 6,5 °C 11,3 km/h (2 Bft)
03.10.2019 13:22 7,8 °C 79 % 1018,2 hPa 0,0 mm 6,9 km/h (2 Bft) SW 221 ° 0 min 0,000 mm 1,7 UV-I 146 W/m² 4,4 °C 6,7 °C 9,7 km/h (2 Bft)
03.10.2019 13:23 7,8 °C 78 % 1018,2 hPa 0,0 mm 2,9 km/h (1 Bft) S 187 ° 0 min 0,000 mm 1,7 UV-I 148 W/m² 4,2 °C 7,8 °C 8,0 km/h (2 Bft)
03.10.2019 13:24 7,8 °C 78 % 1018,2 hPa 0,0 mm 5,5 km/h (1 Bft) W-NW 284 ° 0 min 0,000 mm 1,8 UV-I 172 W/m² 4,2 °C 7,1 °C 9,7 km/h (2 Bft)
03.10.2019 13:25 7,8 °C 78 % 1018,1 hPa 0,0 mm 4,5 km/h (1 Bft) W-SW 244 ° 0 min 0,000 mm 2,0 UV-I 202 W/m² 4,2 °C 7,8 °C 12,9 km/h (3 Bft)
03.10.2019 13:26 7,8 °C 78 % 1018,1 hPa 0,0 mm 8,4 km/h (2 Bft) W-NW 287 ° 0 min 0,000 mm 2,3 UV-I 236 W/m² 4,2 °C 6,3 °C 14,5 km/h (3 Bft)
03.10.2019 13:27 7,8 °C 78 % 1018,0 hPa 0,0 mm 9,8 km/h (2 Bft) W 267 ° 0 min 0,000 mm 3,6 UV-I 236 W/m² 4,2 °C 6,0 °C 12,9 km/h (3 Bft)
03.10.2019 13:28 7,9 °C 78 % 1018,1 hPa 0,0 mm 10,4 km/h (2 Bft) W 279 ° 0 min 0,000 mm 2,8 UV-I 236 W/m² 4,3 °C 6,0 °C 12,9 km/h (3 Bft)
03.10.2019 13:29 8,0 °C 76 % 1018,1 hPa 0,0 mm 5,3 km/h (1 Bft) W-NW 288 ° 0 min 0,000 mm 2,5 UV-I 236 W/m² 4,0 °C 7,4 °C 8,0 km/h (2 Bft)
03.10.2019 13:30 8,1 °C 76 % 1018,1 hPa 0,0 mm 8,6 km/h (2 Bft) W 273 ° 1 min 0,000 mm 3,1 UV-I 619 W/m² 4,1 °C 6,6 °C 14,5 km/h (3 Bft)
03.10.2019 13:31 8,2 °C 77 % 1018,1 hPa 0,0 mm 9,4 km/h (2 Bft) W 266 ° 1 min 0,000 mm 3,7 UV-I 701 W/m² 4,4 °C 6,6 °C 12,9 km/h (3 Bft)
03.10.2019 13:32 8,3 °C 76 % 1018,0 hPa 0,0 mm 7,1 km/h (2 Bft) W-NW 296 ° 1 min 0,000 mm 3,6 UV-I 671 W/m² 4,3 °C 7,2 °C 12,9 km/h (3 Bft)
03.10.2019 13:33 8,6 °C 77 % 1018,0 hPa 0,0 mm 12,7 km/h (3 Bft) W-NW 288 ° 1 min 0,000 mm 3,6 UV-I 686 W/m² 4,8 °C 6,5 °C 17,7 km/h (3 Bft)
03.10.2019 13:34 8,7 °C 75 % 1018,1 hPa 0,0 mm 12,2 km/h (2 Bft) W 281 ° 1 min 0,000 mm 3,6 UV-I 670 W/m² 4,5 °C 6,7 °C 17,7 km/h (3 Bft)
03.10.2019 13:35 8,8 °C 73 % 1018,0 hPa 0,0 mm 13,6 km/h (3 Bft) W 263 ° 1 min 0,000 mm 3,6 UV-I 661 W/m² 4,2 °C 6,6 °C 17,7 km/h (3 Bft)
03.10.2019 13:36 8,8 °C 73 % 1018,0 hPa 0,0 mm 9,4 km/h (2 Bft) W-NW 290 ° 1 min 0,000 mm 3,6 UV-I 659 W/m² 4,2 °C 7,3 °C 14,5 km/h (3 Bft)
03.10.2019 13:37 8,8 °C 72 % 1017,9 hPa 0,0 mm 9,7 km/h (2 Bft) W-NW 290 ° 1 min 0,000 mm 3,6 UV-I 666 W/m² 4,0 °C 7,3 °C 16,1 km/h (3 Bft)
03.10.2019 13:38 8,8 °C 72 % 1018,0 hPa 0,0 mm 9,5 km/h (2 Bft) W-NW 298 ° 1 min 0,000 mm 2,0 UV-I 666 W/m² 4,0 °C 7,3 °C 16,1 km/h (3 Bft)
03.10.2019 13:39 8,7 °C 72 % 1018,0 hPa 0,0 mm 6,4 km/h (2 Bft) N-NW 327 ° 0 min 0,000 mm 2,1 UV-I 118 W/m² 3,9 °C 7,9 °C 9,7 km/h (2 Bft)
03.10.2019 13:40 8,6 °C 73 % 1018,0 hPa 0,0 mm 9,2 km/h (2 Bft) W-NW 287 ° 0 min 0,000 mm 2,8 UV-I 171 W/m² 4,0 °C 7,1 °C 14,5 km/h (3 Bft)
03.10.2019 13:41 8,6 °C 74 % 1018,0 hPa 0,0 mm 8,3 km/h (2 Bft) W-NW 287 ° 0 min 0,000 mm 3,7 UV-I 171 W/m² 4,2 °C 7,3 °C 12,9 km/h (3 Bft)
03.10.2019 13:42 8,5 °C 73 % 1018,0 hPa 0,0 mm 10,3 km/h (2 Bft) NW 317 ° 1 min 0,000 mm 3,6 UV-I 659 W/m² 3,9 °C 6,8 °C 14,5 km/h (3 Bft)
03.10.2019 13:43 8,6 °C 73 % 1018,0 hPa 0,0 mm 7,1 km/h (2 Bft) W-NW 283 ° 1 min 0,000 mm 3,6 UV-I 640 W/m² 4,0 °C 7,6 °C 12,9 km/h (3 Bft)
03.10.2019 13:44 8,7 °C 74 % 1018,0 hPa 0,0 mm 8,2 km/h (2 Bft) W-SW 250 ° 1 min 0,000 mm 3,7 UV-I 661 W/m² 4,3 °C 7,4 °C 11,3 km/h (2 Bft)
03.10.2019 13:45 8,7 °C 72 % 1017,9 hPa 0,0 mm 7,7 km/h (2 Bft) W 270 ° 1 min 0,000 mm 2,4 UV-I 661 W/m² 3,9 °C 7,5 °C 12,9 km/h (3 Bft)
03.10.2019 13:46 8,7 °C 71 % 1017,9 hPa 0,0 mm 5,5 km/h (1 Bft) W-SW 252 ° 0 min 0,000 mm 3,1 UV-I 279 W/m² 3,7 °C 8,1 °C 11,3 km/h (2 Bft)
03.10.2019 13:47 8,7 °C 74 % 1017,8 hPa 0,0 mm 7,2 km/h (2 Bft) W 261 ° 0 min 0,000 mm 2,6 UV-I 311 W/m² 4,3 °C 7,7 °C 11,3 km/h (2 Bft)
03.10.2019 13:48 8,8 °C 75 % 1017,8 hPa 0,0 mm 4,6 km/h (1 Bft) W 263 ° 0 min 0,000 mm 3,4 UV-I 311 W/m² 4,6 °C 8,5 °C 11,3 km/h (2 Bft)
03.10.2019 13:49 8,9 °C 73 % 1017,8 hPa 0,0 mm 6,4 km/h (2 Bft) SW 215 ° 0 min 0,000 mm 2,3 UV-I 584 W/m² 4,3 °C 8,1 °C 12,9 km/h (3 Bft)
03.10.2019 13:50 8,9 °C 74 % 1017,8 hPa 0,0 mm 4,5 km/h (1 Bft) W-NW 299 ° 0 min 0,000 mm 3,7 UV-I 545 W/m² 4,5 °C 8,9 °C 8,0 km/h (2 Bft)
03.10.2019 13:51 9,1 °C 75 % 1017,8 hPa 0,0 mm 5,5 km/h (1 Bft) NW 321 ° 0 min 0,000 mm 2,3 UV-I 545 W/m² 4,9 °C 8,6 °C 9,7 km/h (2 Bft)
03.10.2019 13:52 9,1 °C 74 % 1017,8 hPa 0,0 mm 9,0 km/h (2 Bft) W 276 ° 0 min 0,000 mm 2,3 UV-I 545 W/m² 4,7 °C 7,7 °C 16,1 km/h (3 Bft)
03.10.2019 13:53 9,1 °C 73 % 1017,8 hPa 0,0 mm 6,4 km/h (2 Bft) W 259 ° 0 min 0,000 mm 2,5 UV-I 545 W/m² 4,5 °C 8,3 °C 11,3 km/h (2 Bft)
03.10.2019 13:54 9,1 °C 74 % 1017,8 hPa 0,0 mm 4,7 km/h (1 Bft) W-NW 295 ° 0 min 0,000 mm 3,3 UV-I 323 W/m² 4,7 °C 8,8 °C 6,4 km/h (2 Bft)
03.10.2019 13:55 9,1 °C 73 % 1017,8 hPa 0,0 mm 5,4 km/h (1 Bft) NW 313 ° 0 min 0,000 mm 3,4 UV-I 323 W/m² 4,5 °C 8,6 °C 11,3 km/h (2 Bft)
03.10.2019 13:56 9,2 °C 72 % 1017,8 hPa 0,0 mm 10,3 km/h (2 Bft) NW 311 ° 0 min 0,000 mm 2,7 UV-I 510 W/m² 4,4 °C 7,6 °C 16,1 km/h (3 Bft)
03.10.2019 13:57 9,2 °C 71 % 1017,9 hPa 0,0 mm 11,4 km/h (2 Bft) W-NW 291 ° 0 min 0,000 mm 2,2 UV-I 510 W/m² 4,2 °C 7,4 °C 17,7 km/h (3 Bft)
03.10.2019 13:58 9,2 °C 71 % 1017,8 hPa 0,0 mm 10,1 km/h (2 Bft) W-SW 254 ° 0 min 0,000 mm 2,4 UV-I 267 W/m² 4,2 °C 7,7 °C 14,5 km/h (3 Bft)
03.10.2019 13:59 9,2 °C 72 % 1017,8 hPa 0,0 mm 5,2 km/h (1 Bft) NW 313 ° 0 min 0,000 mm 2,4 UV-I 200 W/m² 4,4 °C 8,8 °C 11,3 km/h (2 Bft)
03.10.2019 14:00 9,1 °C 71 % 1017,8 hPa 0,0 mm 6,9 km/h (2 Bft) SW 233 ° 0 min 0,000 mm 2,3 UV-I 287 W/m² 4,1 °C 8,2 °C 9,7 km/h (2 Bft)
03.10.2019 14:01 9,0 °C 69 % 1017,8 hPa 0,0 mm 6,6 km/h (2 Bft) W-NW 298 ° 0 min 0,178 mm 3,7 UV-I 287 W/m² 3,6 °C 8,2 °C 14,5 km/h (3 Bft)
03.10.2019 14:02 9,1 °C 69 % 1017,7 hPa 0,0 mm 11,6 km/h (2 Bft) NW 326 ° 0 min 0,000 mm 3,4 UV-I 287 W/m² 3,7 °C 7,3 °C 14,5 km/h (3 Bft)
03.10.2019 14:03 9,3 °C 71 % 1017,7 hPa 0,0 mm 7,2 km/h (2 Bft) W 265 ° 0 min 0,000 mm 3,7 UV-I 287 W/m² 4,3 °C 8,4 °C 12,9 km/h (3 Bft)
03.10.2019 14:04 9,4 °C 70 % 1017,8 hPa 0,0 mm 6,3 km/h (2 Bft) NW 313 ° 1 min 0,000 mm 3,6 UV-I 726 W/m² 4,2 °C 8,7 °C 9,7 km/h (2 Bft)
03.10.2019 14:05 9,5 °C 69 % 1017,8 hPa 0,0 mm 10,1 km/h (2 Bft) N-NW 332 ° 0 min 0,000 mm 2,7 UV-I 557 W/m² 4,1 °C 8,0 °C 14,5 km/h (3 Bft)
03.10.2019 14:06 9,6 °C 70 % 1017,7 hPa 0,0 mm 9,3 km/h (2 Bft) N-NW 329 ° 0 min 0,000 mm 3,7 UV-I 557 W/m² 4,4 °C 8,3 °C 16,1 km/h (3 Bft)
03.10.2019 14:07 9,7 °C 69 % 1017,7 hPa 0,0 mm 7,8 km/h (2 Bft) W 268 ° 1 min 0,000 mm 3,7 UV-I 752 W/m² 4,3 °C 8,7 °C 12,9 km/h (3 Bft)
03.10.2019 14:08 9,7 °C 70 % 1017,7 hPa 0,0 mm 7,2 km/h (2 Bft) W 278 ° 1 min 0,000 mm 3,7 UV-I 742 W/m² 4,5 °C 8,8 °C 11,3 km/h (2 Bft)
03.10.2019 14:09 9,7 °C 68 % 1017,7 hPa 0,0 mm 5,5 km/h (1 Bft) NW 311 ° 1 min 0,000 mm 3,7 UV-I 729 W/m² 4,1 °C 9,3 °C 11,3 km/h (2 Bft)
03.10.2019 14:10 9,7 °C 68 % 1017,7 hPa 0,0 mm 6,1 km/h (2 Bft) NW 323 ° 1 min 0,000 mm 3,7 UV-I 726 W/m² 4,1 °C 9,1 °C 9,7 km/h (2 Bft)
03.10.2019 14:11 9,7 °C 68 % 1017,6 hPa 0,0 mm 9,7 km/h (2 Bft) NW 322 ° 1 min 0,000 mm 3,6 UV-I 701 W/m² 4,1 °C 8,3 °C 16,1 km/h (3 Bft)
03.10.2019 14:12 9,7 °C 69 % 1017,7 hPa 0,0 mm 11,2 km/h (2 Bft) W-SW 248 ° 1 min 0,000 mm 3,5 UV-I 686 W/m² 4,3 °C 8,1 °C 14,5 km/h (3 Bft)
03.10.2019 14:13 9,8 °C 69 % 1017,6 hPa 0,0 mm 8,8 km/h (2 Bft) W-NW 290 ° 1 min 0,000 mm 3,5 UV-I 684 W/m² 4,4 °C 8,6 °C 12,9 km/h (3 Bft)
03.10.2019 14:14 9,7 °C 67 % 1017,6 hPa 0,0 mm 7,8 km/h (2 Bft) W 272 ° 1 min 0,000 mm 3,5 UV-I 687 W/m² 3,9 °C 8,7 °C 12,9 km/h (3 Bft)
03.10.2019 14:15 9,7 °C 68 % 1017,6 hPa 0,0 mm 7,9 km/h (2 Bft) NW 315 ° 1 min 0,000 mm 3,5 UV-I 687 W/m² 4,1 °C 8,7 °C 12,9 km/h (3 Bft)
03.10.2019 14:16 9,7 °C 69 % 1017,6 hPa 0,0 mm 9,1 km/h (2 Bft) NW 304 ° 1 min 0,000 mm 3,5 UV-I 689 W/m² 4,3 °C 8,4 °C 12,9 km/h (3 Bft)
03.10.2019 14:17 9,8 °C 70 % 1017,6 hPa 0,0 mm 9,1 km/h (2 Bft) N 355 ° 1 min 0,000 mm 3,5 UV-I 700 W/m² 4,6 °C 8,6 °C 12,9 km/h (3 Bft)
03.10.2019 14:18 9,9 °C 71 % 1017,6 hPa 0,0 mm 7,1 km/h (2 Bft) O-NO 59 ° 1 min 0,000 mm 3,5 UV-I 714 W/m² 4,9 °C 9,1 °C 14,5 km/h (3 Bft)
03.10.2019 14:19 10,0 °C 71 % 1017,6 hPa 0,0 mm 6,2 km/h (2 Bft) NW 304 ° 1 min 0,000 mm 3,5 UV-I 737 W/m² 5,0 °C 9,4 °C 11,3 km/h (2 Bft)
03.10.2019 14:20 10,1 °C 72 % 1017,6 hPa 0,0 mm 10,3 km/h (2 Bft) W-NW 296 ° 1 min 0,000 mm 3,5 UV-I 745 W/m² 5,3 °C 10,1 °C 16,1 km/h (3 Bft)
03.10.2019 14:21 10,2 °C 72 % 1017,6 hPa 0,0 mm 6,6 km/h (2 Bft) N-NO 19 ° 1 min 0,000 mm 3,5 UV-I 747 W/m² 5,4 °C 10,2 °C 16,1 km/h (3 Bft)
03.10.2019 14:22 10,2 °C 72 % 1017,6 hPa 0,0 mm 7,4 km/h (2 Bft) N 349 ° 1 min 0,000 mm 3,5 UV-I 751 W/m² 5,4 °C 10,2 °C 12,9 km/h (3 Bft)
03.10.2019 14:23 10,3 °C 73 % 1017,6 hPa 0,0 mm 7,4 km/h (2 Bft) N-NW 338 ° 1 min 0,000 mm 3,5 UV-I 766 W/m² 5,7 °C 10,3 °C 14,5 km/h (3 Bft)
03.10.2019 14:24 10,3 °C 72 % 1017,6 hPa 0,0 mm 7,2 km/h (2 Bft) NW 311 ° 1 min 0,000 mm 3,6 UV-I 789 W/m² 5,5 °C 10,3 °C 14,5 km/h (3 Bft)
03.10.2019 14:25 10,3 °C 69 % 1017,5 hPa 0,0 mm 5,9 km/h (2 Bft) N-NW 346 ° 1 min 0,000 mm 3,6 UV-I 803 W/m² 4,9 °C 10,3 °C 16,1 km/h (3 Bft)
03.10.2019 14:26 10,3 °C 72 % 1017,6 hPa 0,0 mm 9,2 km/h (2 Bft) NW 309 ° 1 min 0,000 mm 2,1 UV-I 803 W/m² 5,5 °C 10,3 °C 14,5 km/h (3 Bft)
03.10.2019 14:27 10,2 °C 70 % 1017,6 hPa 0,0 mm 6,4 km/h (2 Bft) NW 319 ° 0 min 0,000 mm 2,1 UV-I 350 W/m² 5,0 °C 10,2 °C 9,7 km/h (2 Bft)
03.10.2019 14:28 10,1 °C 69 % 1017,6 hPa 0,0 mm 6,9 km/h (2 Bft) NW 325 ° 0 min 0,000 mm 2,1 UV-I 350 W/m² 4,7 °C 10,1 °C 14,5 km/h (3 Bft)
03.10.2019 14:29 10,0 °C 70 % 1017,6 hPa 0,0 mm 9,4 km/h (2 Bft) W 276 ° 0 min 0,000 mm 2,0 UV-I 341 W/m² 4,8 °C 8,7 °C 14,5 km/h (3 Bft)
03.10.2019 14:30 9,8 °C 68 % 1017,6 hPa 0,0 mm 7,2 km/h (2 Bft) W-NW 299 ° 0 min 0,000 mm 2,8 UV-I 341 W/m² 4,2 °C 8,9 °C 14,5 km/h (3 Bft)
03.10.2019 14:31 9,7 °C 69 % 1017,7 hPa 0,0 mm 10,2 km/h (2 Bft) N-NW 334 ° 0 min 0,000 mm 2,8 UV-I 341 W/m² 4,3 °C 8,2 °C 12,9 km/h (3 Bft)
03.10.2019 14:32 9,6 °C 69 % 1017,7 hPa 0,0 mm 10,3 km/h (2 Bft) W 266 ° 0 min 0,000 mm 1,7 UV-I 220 W/m² 4,2 °C 8,1 °C 12,9 km/h (3 Bft)
03.10.2019 14:33 9,4 °C 70 % 1017,6 hPa 0,0 mm 8,2 km/h (2 Bft) NW 311 ° 0 min 0,000 mm 2,9 UV-I 220 W/m² 4,2 °C 8,3 °C 14,5 km/h (3 Bft)
03.10.2019 14:34 9,4 °C 70 % 1017,7 hPa 0,0 mm 6,4 km/h (2 Bft) W 269 ° 0 min 0,000 mm 1,8 UV-I 220 W/m² 4,2 °C 8,7 °C 11,3 km/h (2 Bft)
03.10.2019 14:35 9,4 °C 71 % 1017,7 hPa 0,0 mm 5,0 km/h (1 Bft) W-NW 288 ° 0 min 0,000 mm 1,8 UV-I 246 W/m² 4,4 °C 9,1 °C 9,7 km/h (2 Bft)
03.10.2019 14:36 9,3 °C 71 % 1017,6 hPa 0,0 mm 7,8 km/h (2 Bft) NW 325 ° 0 min 0,000 mm 1,8 UV-I 246 W/m² 4,3 °C 8,2 °C 12,9 km/h (3 Bft)
03.10.2019 14:37 9,2 °C 70 % 1017,6 hPa 0,0 mm 5,3 km/h (1 Bft) N-NW 336 ° 0 min 0,000 mm 1,9 UV-I 253 W/m² 4,0 °C 8,8 °C 12,9 km/h (3 Bft)
03.10.2019 14:38 9,2 °C 70 % 1017,6 hPa 0,0 mm 7,9 km/h (2 Bft) W 277 ° 0 min 0,000 mm 2,0 UV-I 257 W/m² 4,0 °C 8,1 °C 11,3 km/h (2 Bft)
03.10.2019 14:39 9,2 °C 71 % 1017,6 hPa 0,0 mm 7,1 km/h (2 Bft) W-NW 289 ° 0 min 0,000 mm 3,3 UV-I 257 W/m² 4,2 °C 8,3 °C 11,3 km/h (2 Bft)
03.10.2019 14:40 9,2 °C 70 % 1017,6 hPa 0,0 mm 2,2 km/h (1 Bft) W-NW 286 ° 1 min 0,000 mm 3,3 UV-I 735 W/m² 4,0 °C 9,2 °C 4,8 km/h (1 Bft)
03.10.2019 14:41 9,2 °C 70 % 1017,6 hPa 0,0 mm 5,4 km/h (1 Bft) N 355 ° 1 min 0,000 mm 3,3 UV-I 735 W/m² 4,0 °C 8,7 °C 9,7 km/h (2 Bft)
03.10.2019 14:42 9,3 °C 72 % 1017,6 hPa 0,0 mm 6,6 km/h (2 Bft) W-NW 300 ° 0 min 0,000 mm 2,3 UV-I 207 W/m² 4,5 °C 8,5 °C 9,7 km/h (2 Bft)
03.10.2019 14:43 9,3 °C 71 % 1017,6 hPa 0,0 mm 5,1 km/h (1 Bft) N-NW 327 ° 0 min 0,000 mm 1,8 UV-I 202 W/m² 4,3 °C 8,9 °C 8,0 km/h (2 Bft)
03.10.2019 14:44 9,3 °C 70 % 1017,6 hPa 0,0 mm 1,4 km/h (1 Bft) W-NW 298 ° 0 min 0,000 mm 1,7 UV-I 146 W/m² 4,1 °C 9,3 °C 3,2 km/h (1 Bft)
03.10.2019 14:45 9,2 °C 70 % 1017,6 hPa 0,0 mm 6,2 km/h (2 Bft) W-NW 294 ° 0 min 0,000 mm 1,7 UV-I 139 W/m² 4,0 °C 8,5 °C 11,3 km/h (2 Bft)
03.10.2019 14:46 9,2 °C 70 % 1017,6 hPa 0,0 mm 6,7 km/h (2 Bft) W-NW 301 ° 0 min 0,000 mm 1,6 UV-I 146 W/m² 4,0 °C 8,4 °C 11,3 km/h (2 Bft)
03.10.2019 14:47 9,1 °C 70 % 1017,6 hPa 0,0 mm 6,0 km/h (2 Bft) W 281 ° 0 min 0,000 mm 1,8 UV-I 183 W/m² 3,9 °C 8,4 °C 12,9 km/h (3 Bft)
03.10.2019 14:48 9,0 °C 71 % 1017,6 hPa 0,0 mm 5,2 km/h (1 Bft) NW 306 ° 0 min 0,000 mm 1,9 UV-I 211 W/m² 4,0 °C 8,6 °C 11,3 km/h (2 Bft)
03.10.2019 14:49 9,0 °C 73 % 1017,6 hPa 0,0 mm 8,2 km/h (2 Bft) NW 315 ° 0 min 0,000 mm 2,0 UV-I 211 W/m² 4,4 °C 7,8 °C 9,7 km/h (2 Bft)
03.10.2019 14:50 9,1 °C 75 % 1017,6 hPa 0,0 mm 6,0 km/h (2 Bft) N-NW 337 ° 0 min 0,000 mm 3,2 UV-I 211 W/m² 4,9 °C 8,4 °C 8,0 km/h (2 Bft)
03.10.2019 14:51 9,1 °C 74 % 1017,6 hPa 0,0 mm 6,7 km/h (2 Bft) NW 306 ° 0 min 0,000 mm 3,1 UV-I 211 W/m² 4,7 °C 8,3 °C 9,7 km/h (2 Bft)
03.10.2019 14:52 9,3 °C 73 % 1017,6 hPa 0,0 mm 5,3 km/h (1 Bft) NW 317 ° 1 min 0,000 mm 3,1 UV-I 615 W/m² 4,7 °C 8,9 °C 12,9 km/h (3 Bft)
03.10.2019 14:53 9,4 °C 74 % 1017,6 hPa 0,0 mm 6,2 km/h (2 Bft) N-NW 327 ° 1 min 0,000 mm 3,0 UV-I 613 W/m² 5,0 °C 8,7 °C 11,3 km/h (2 Bft)
03.10.2019 14:54 9,5 °C 70 % 1017,6 hPa 0,0 mm 4,3 km/h (1 Bft) N-NW 333 ° 1 min 0,000 mm 3,0 UV-I 619 W/m² 4,3 °C 9,5 °C 8,0 km/h (2 Bft)
03.10.2019 14:55 9,6 °C 70 % 1017,6 hPa 0,0 mm 5,3 km/h (1 Bft) NW 318 ° 1 min 0,000 mm 2,3 UV-I 619 W/m² 4,4 °C 9,2 °C 9,7 km/h (2 Bft)
03.10.2019 14:56 9,6 °C 70 % 1017,6 hPa 0,0 mm 8,0 km/h (2 Bft) W-NW 298 ° 1 min 0,000 mm 3,0 UV-I 619 W/m² 4,4 °C 8,5 °C 14,5 km/h (3 Bft)
03.10.2019 14:57 9,5 °C 69 % 1017,5 hPa 0,0 mm 7,0 km/h (2 Bft) W-NW 288 ° 1 min 0,000 mm 3,0 UV-I 619 W/m² 4,1 °C 8,6 °C 9,7 km/h (2 Bft)
03.10.2019 14:58 9,4 °C 70 % 1017,6 hPa 0,0 mm 7,9 km/h (2 Bft) W 281 ° 1 min 0,000 mm 3,1 UV-I 624 W/m² 4,2 °C 8,3 °C 12,9 km/h (3 Bft)
03.10.2019 14:59 9,4 °C 69 % 1017,6 hPa 0,0 mm 7,7 km/h (2 Bft) W-NW 288 ° 1 min 0,000 mm 3,0 UV-I 612 W/m² 4,0 °C 8,4 °C 12,9 km/h (3 Bft)
03.10.2019 15:00 9,4 °C 69 % 1017,6 hPa 0,0 mm 5,1 km/h (1 Bft) N-NW 343 ° 0 min 0,000 mm 3,0 UV-I 599 W/m² 4,0 °C 9,0 °C 8,0 km/h (2 Bft)
03.10.2019 15:01 9,6 °C 70 % 1017,6 hPa 0,0 mm 5,0 km/h (1 Bft) N 355 ° 0 min 0,279 mm 2,9 UV-I 587 W/m² 4,4 °C 9,3 °C 8,0 km/h (2 Bft)
03.10.2019 15:02 9,6 °C 70 % 1017,6 hPa 0,0 mm 6,6 km/h (2 Bft) W 275 ° 0 min 0,000 mm 2,9 UV-I 575 W/m² 4,4 °C 8,9 °C 9,7 km/h (2 Bft)
03.10.2019 15:03 9,7 °C 69 % 1017,6 hPa 0,0 mm 5,6 km/h (1 Bft) NW 323 ° 0 min 0,000 mm 2,9 UV-I 568 W/m² 4,3 °C 9,2 °C 8,0 km/h (2 Bft)
03.10.2019 15:04 9,7 °C 68 % 1017,6 hPa 0,0 mm 4,9 km/h (1 Bft) N-NW 333 ° 0 min 0,000 mm 2,9 UV-I 580 W/m² 4,1 °C 9,4 °C 6,4 km/h (2 Bft)
03.10.2019 15:05 9,7 °C 69 % 1017,5 hPa 0,0 mm 6,7 km/h (2 Bft) W-NW 296 ° 0 min 0,000 mm 1,7 UV-I 580 W/m² 4,3 °C 8,9 °C 11,3 km/h (2 Bft)
03.10.2019 15:06 9,7 °C 70 % 1017,5 hPa 0,0 mm 5,7 km/h (1 Bft) NW 305 ° 0 min 0,000 mm 2,5 UV-I 580 W/m² 4,5 °C 9,2 °C 8,0 km/h (2 Bft)
03.10.2019 15:07 9,6 °C 69 % 1017,6 hPa 0,0 mm 6,8 km/h (2 Bft) W-NW 286 ° 0 min 0,000 mm 2,9 UV-I 580 W/m² 4,2 °C 8,8 °C 11,3 km/h (2 Bft)
03.10.2019 15:08 9,6 °C 69 % 1017,5 hPa 0,0 mm 8,3 km/h (2 Bft) W 281 ° 0 min 0,000 mm 1,7 UV-I 580 W/m² 4,2 °C 8,5 °C 11,3 km/h (2 Bft)
03.10.2019 15:09 9,4 °C 69 % 1017,5 hPa 0,0 mm 8,5 km/h (2 Bft) NW 319 ° 0 min 0,000 mm 2,7 UV-I 580 W/m² 4,0 °C 8,2 °C 11,3 km/h (2 Bft)
03.10.2019 15:10 9,4 °C 68 % 1017,5 hPa 0,0 mm 6,6 km/h (2 Bft) NW 308 ° 0 min 0,000 mm 2,8 UV-I 585 W/m² 3,8 °C 8,6 °C 11,3 km/h (2 Bft)
03.10.2019 15:11 9,3 °C 68 % 1017,6 hPa 0,0 mm 6,5 km/h (2 Bft) W 263 ° 0 min 0,000 mm 1,6 UV-I 585 W/m² 3,7 °C 8,5 °C 11,3 km/h (2 Bft)
03.10.2019 15:12 9,3 °C 68 % 1017,5 hPa 0,0 mm 4,3 km/h (1 Bft) W-NW 290 ° 0 min 0,000 mm 1,6 UV-I 93 W/m² 3,7 °C 9,3 °C 6,4 km/h (2 Bft)
03.10.2019 15:13 9,3 °C 69 % 1017,4 hPa 0,0 mm 3,8 km/h (1 Bft) W-NW 294 ° 0 min 0,000 mm 1,8 UV-I 104 W/m² 3,9 °C 9,3 °C 4,8 km/h (1 Bft)
03.10.2019 15:14 9,2 °C 70 % 1017,4 hPa 0,0 mm 3,7 km/h (1 Bft) W-NW 293 ° 0 min 0,000 mm 2,8 UV-I 104 W/m² 4,0 °C 9,2 °C 4,8 km/h (1 Bft)
03.10.2019 15:15 9,2 °C 69 % 1017,4 hPa 0,0 mm 3,1 km/h (1 Bft) W-NW 283 ° 0 min 0,000 mm 2,6 UV-I 104 W/m² 3,8 °C 9,2 °C 9,7 km/h (2 Bft)
03.10.2019 15:16 9,3 °C 70 % 1017,4 hPa 0,0 mm 4,5 km/h (1 Bft) W 273 ° 0 min 0,000 mm 2,7 UV-I 534 W/m² 4,1 °C 9,3 °C 6,4 km/h (2 Bft)
03.10.2019 15:17 9,3 °C 70 % 1017,4 hPa 0,0 mm 6,5 km/h (2 Bft) W-NW 296 ° 0 min 0,000 mm 2,7 UV-I 526 W/m² 4,1 °C 8,5 °C 11,3 km/h (2 Bft)
03.10.2019 15:18 9,5 °C 70 % 1017,4 hPa 0,0 mm 5,6 km/h (1 Bft) W 267 ° 0 min 0,000 mm 2,6 UV-I 520 W/m² 4,3 °C 9,0 °C 8,0 km/h (2 Bft)
03.10.2019 15:19 9,6 °C 70 % 1017,3 hPa 0,0 mm 4,2 km/h (1 Bft) SW 232 ° 0 min 0,000 mm 2,6 UV-I 519 W/m² 4,4 °C 9,6 °C 6,4 km/h (2 Bft)
03.10.2019 15:20 9,7 °C 69 % 1017,3 hPa 0,0 mm 2,4 km/h (1 Bft) S-SW 211 ° 0 min 0,000 mm 2,6 UV-I 517 W/m² 4,3 °C 9,7 °C 4,8 km/h (1 Bft)
03.10.2019 15:21 9,8 °C 70 % 1017,3 hPa 0,0 mm 3,3 km/h (1 Bft) W-SW 255 ° 0 min 0,000 mm 2,6 UV-I 513 W/m² 4,6 °C 9,8 °C 11,3 km/h (2 Bft)
03.10.2019 15:22 9,8 °C 69 % 1017,3 hPa 0,0 mm 5,8 km/h (2 Bft) W-NW 285 ° 0 min 0,000 mm 2,6 UV-I 513 W/m² 4,4 °C 9,3 °C 11,3 km/h (2 Bft)
03.10.2019 15:23 9,9 °C 70 % 1017,3 hPa 0,0 mm 7,7 km/h (2 Bft) NW 321 ° 0 min 0,000 mm 2,6 UV-I 512 W/m² 4,7 °C 9,0 °C 12,9 km/h (3 Bft)
03.10.2019 15:24 10,0 °C 70 % 1017,3 hPa 0,0 mm 8,4 km/h (2 Bft) W-NW 298 ° 0 min 0,000 mm 2,6 UV-I 510 W/m² 4,8 °C 8,9 °C 12,9 km/h (3 Bft)
03.10.2019 15:25 10,1 °C 69 % 1017,3 hPa 0,0 mm 5,6 km/h (1 Bft) W-NW 292 ° 0 min 0,000 mm 2,5 UV-I 506 W/m² 4,7 °C 10,1 °C 9,7 km/h (2 Bft)
03.10.2019 15:26 10,1 °C 67 % 1017,2 hPa 0,0 mm 10,6 km/h (2 Bft) W 259 ° 0 min 0,000 mm 2,5 UV-I 504 W/m² 4,3 °C 10,1 °C 14,5 km/h (3 Bft)
03.10.2019 15:27 9,9 °C 65 % 1017,2 hPa 0,0 mm 11,6 km/h (2 Bft) W 275 ° 0 min 0,000 mm 2,5 UV-I 499 W/m² 3,6 °C 8,3 °C 19,3 km/h (3 Bft)
03.10.2019 15:28 9,8 °C 66 % 1017,2 hPa 0,0 mm 7,2 km/h (2 Bft) N-NW 329 ° 0 min 0,000 mm 2,5 UV-I 497 W/m² 3,8 °C 8,9 °C 12,9 km/h (3 Bft)
03.10.2019 15:29 9,8 °C 67 % 1017,2 hPa 0,0 mm 7,0 km/h (2 Bft) N-NW 333 ° 0 min 0,000 mm 2,5 UV-I 497 W/m² 4,0 °C 9,0 °C 9,7 km/h (2 Bft)
03.10.2019 15:30 9,8 °C 68 % 1017,2 hPa 0,0 mm 5,3 km/h (1 Bft) W 270 ° 0 min 0,000 mm 2,4 UV-I 494 W/m² 4,2 °C 9,4 °C 9,7 km/h (2 Bft)
03.10.2019 15:31 9,7 °C 66 % 1017,2 hPa 0,0 mm 7,7 km/h (2 Bft) W-NW 290 ° 0 min 0,000 mm 2,4 UV-I 490 W/m² 3,7 °C 8,7 °C 11,3 km/h (2 Bft)
03.10.2019 15:32 9,7 °C 66 % 1017,2 hPa 0,0 mm 3,1 km/h (1 Bft) W-NW 300 ° 0 min 0,000 mm 2,4 UV-I 483 W/m² 3,7 °C 9,7 °C 6,4 km/h (2 Bft)
03.10.2019 15:33 9,7 °C 67 % 1017,1 hPa 0,0 mm 4,3 km/h (1 Bft) NW 310 ° 0 min 0,000 mm 2,4 UV-I 475 W/m² 3,9 °C 9,7 °C 6,4 km/h (2 Bft)
03.10.2019 15:34 9,7 °C 69 % 1017,1 hPa 0,0 mm 3,4 km/h (1 Bft) N-NW 339 ° 0 min 0,000 mm 2,4 UV-I 473 W/m² 4,3 °C 9,7 °C 4,8 km/h (1 Bft)
03.10.2019 15:35 9,8 °C 67 % 1017,1 hPa 0,0 mm 3,9 km/h (1 Bft) N-NW 338 ° 0 min 0,000 mm 2,3 UV-I 471 W/m² 4,0 °C 9,8 °C 4,8 km/h (1 Bft)
03.10.2019 15:36 9,8 °C 67 % 1017,0 hPa 0,0 mm 2,3 km/h (1 Bft) W-SW 258 ° 0 min 0,000 mm 2,3 UV-I 469 W/m² 4,0 °C 9,8 °C 6,4 km/h (2 Bft)
03.10.2019 15:37 9,8 °C 65 % 1017,1 hPa 0,0 mm 5,9 km/h (2 Bft) W 281 ° 0 min 0,000 mm 2,3 UV-I 469 W/m² 3,5 °C 9,3 °C 12,9 km/h (3 Bft)
03.10.2019 15:38 9,7 °C 66 % 1017,1 hPa 0,0 mm 2,9 km/h (1 Bft) N-NW 333 ° 0 min 0,000 mm 2,3 UV-I 471 W/m² 3,7 °C 9,7 °C 4,8 km/h (1 Bft)
03.10.2019 15:39 9,7 °C 68 % 1017,1 hPa 0,0 mm 3,4 km/h (1 Bft) W-NW 298 ° 0 min 0,000 mm 2,3 UV-I 471 W/m² 4,1 °C 9,7 °C 6,4 km/h (2 Bft)
03.10.2019 15:40 9,8 °C 70 % 1017,1 hPa 0,0 mm 8,4 km/h (2 Bft) N-NW 340 ° 0 min 0,000 mm 2,3 UV-I 468 W/m² 4,6 °C 8,7 °C 12,9 km/h (3 Bft)
03.10.2019 15:41 9,9 °C 69 % 1017,1 hPa 0,0 mm 6,4 km/h (2 Bft) W 266 ° 0 min 0,000 mm 2,3 UV-I 478 W/m² 4,5 °C 9,3 °C 9,7 km/h (2 Bft)
03.10.2019 15:42 9,9 °C 69 % 1017,1 hPa 0,0 mm 7,1 km/h (2 Bft) NW 306 ° 0 min 0,000 mm 2,3 UV-I 478 W/m² 4,5 °C 9,1 °C 12,9 km/h (3 Bft)
03.10.2019 15:43 10,0 °C 69 % 1017,1 hPa 0,0 mm 6,4 km/h (2 Bft) W-NW 284 ° 0 min 0,000 mm 2,2 UV-I 478 W/m² 4,6 °C 9,4 °C 11,3 km/h (2 Bft)
03.10.2019 15:44 10,0 °C 67 % 1017,1 hPa 0,0 mm 5,3 km/h (1 Bft) W 272 ° 0 min 0,000 mm 2,2 UV-I 464 W/m² 4,2 °C 9,7 °C 11,3 km/h (2 Bft)
03.10.2019 15:45 9,9 °C 68 % 1017,1 hPa 0,0 mm 3,6 km/h (1 Bft) NW 323 ° 0 min 0,000 mm 2,2 UV-I 454 W/m² 4,3 °C 9,9 °C 6,4 km/h (2 Bft)
03.10.2019 15:46 9,9 °C 68 % 1017,1 hPa 0,0 mm 3,1 km/h (1 Bft) NW 313 ° 0 min 0,000 mm 2,2 UV-I 452 W/m² 4,3 °C 9,9 °C 6,4 km/h (2 Bft)
03.10.2019 15:47 9,9 °C 69 % 1017,1 hPa 0,0 mm 4,6 km/h (1 Bft) W-NW 292 ° 0 min 0,000 mm 2,2 UV-I 450 W/m² 4,5 °C 9,8 °C 6,4 km/h (2 Bft)
03.10.2019 15:48 9,9 °C 67 % 1017,1 hPa 0,2 mm 1,9 km/h (1 Bft) N-NO 23 ° 0 min 0,000 mm 2,2 UV-I 448 W/m² 4,1 °C 9,9 °C 3,2 km/h (1 Bft)
03.10.2019 15:49 9,9 °C 67 % 1017,1 hPa 0,0 mm 4,8 km/h (1 Bft) NW 306 ° 0 min 0,000 mm 2,2 UV-I 448 W/m² 4,1 °C 9,7 °C 8,0 km/h (2 Bft)
03.10.2019 15:50 9,9 °C 68 % 1017,1 hPa 0,0 mm 4,1 km/h (1 Bft) NW 319 ° 0 min 0,000 mm 2,1 UV-I 448 W/m² 4,3 °C 9,9 °C 4,8 km/h (1 Bft)
03.10.2019 15:51 9,9 °C 69 % 1017,1 hPa 0,0 mm 5,2 km/h (1 Bft) N-NW 333 ° 0 min 0,000 mm 2,1 UV-I 446 W/m² 4,5 °C 9,6 °C 8,0 km/h (2 Bft)
03.10.2019 15:52 9,9 °C 69 % 1017,1 hPa 0,0 mm 4,8 km/h (1 Bft) W-NW 300 ° 0 min 0,000 mm 2,1 UV-I 446 W/m² 4,5 °C 9,7 °C 6,4 km/h (2 Bft)
03.10.2019 15:53 9,9 °C 67 % 1017,1 hPa 0,0 mm 6,6 km/h (2 Bft) W-NW 292 ° 0 min 0,000 mm 2,0 UV-I 443 W/m² 4,1 °C 9,2 °C 9,7 km/h (2 Bft)
03.10.2019 15:54 9,8 °C 66 % 1017,1 hPa 0,0 mm 3,6 km/h (1 Bft) W-SW 250 ° 0 min 0,000 mm 2,1 UV-I 443 W/m² 3,8 °C 9,8 °C 6,4 km/h (2 Bft)
03.10.2019 15:55 9,8 °C 67 % 1017,1 hPa 0,0 mm 3,0 km/h (1 Bft) NW 323 ° 0 min 0,000 mm 1,4 UV-I 443 W/m² 4,0 °C 9,8 °C 4,8 km/h (1 Bft)
03.10.2019 15:56 9,8 °C 69 % 1017,1 hPa 0,0 mm 4,6 km/h (1 Bft) W-NW 291 ° 0 min 0,000 mm 1,4 UV-I 93 W/m² 4,4 °C 9,7 °C 9,7 km/h (2 Bft)
03.10.2019 15:57 9,8 °C 68 % 1017,1 hPa 0,0 mm 4,0 km/h (1 Bft) NW 324 ° 0 min 0,000 mm 2,0 UV-I 438 W/m² 4,2 °C 9,8 °C 6,4 km/h (2 Bft)
03.10.2019 15:58 9,8 °C 68 % 1017,1 hPa 0,0 mm 4,0 km/h (1 Bft) NW 322 ° 0 min 0,000 mm 2,0 UV-I 436 W/m² 4,2 °C 9,8 °C 6,4 km/h (2 Bft)
03.10.2019 15:59 9,9 °C 69 % 1017,2 hPa 0,0 mm 6,2 km/h (2 Bft) W 279 ° 0 min 0,000 mm 2,0 UV-I 434 W/m² 4,5 °C 9,3 °C 8,0 km/h (2 Bft)
03.10.2019 16:00 9,8 °C 67 % 1017,2 hPa 0,0 mm 8,3 km/h (2 Bft) W-NW 285 ° 0 min 0,000 mm 2,0 UV-I 434 W/m² 4,0 °C 8,7 °C 12,9 km/h (3 Bft)
03.10.2019 16:01 9,8 °C 67 % 1017,2 hPa 0,0 mm 6,6 km/h (2 Bft) NW 323 ° 0 min 0,229 mm 2,0 UV-I 432 W/m² 4,0 °C 9,1 °C 9,7 km/h (2 Bft)
03.10.2019 16:02 9,8 °C 67 % 1017,1 hPa 0,0 mm 6,2 km/h (2 Bft) W-NW 286 ° 0 min 0,000 mm 2,0 UV-I 425 W/m² 4,0 °C 9,2 °C 11,3 km/h (2 Bft)
03.10.2019 16:03 9,8 °C 67 % 1017,1 hPa 0,0 mm 6,4 km/h (2 Bft) W-NW 290 ° 0 min 0,000 mm 1,9 UV-I 422 W/m² 4,0 °C 9,1 °C 12,9 km/h (3 Bft)
03.10.2019 16:04 9,8 °C 66 % 1017,2 hPa 0,0 mm 5,7 km/h (1 Bft) W-SW 252 ° 0 min 0,000 mm 1,9 UV-I 418 W/m² 3,8 °C 9,3 °C 12,9 km/h (3 Bft)
03.10.2019 16:05 9,8 °C 67 % 1017,1 hPa 0,0 mm 7,5 km/h (2 Bft) NW 306 ° 0 min 0,000 mm 1,9 UV-I 417 W/m² 4,0 °C 8,9 °C 11,3 km/h (2 Bft)
03.10.2019 16:06 9,8 °C 68 % 1017,1 hPa 0,0 mm 6,5 km/h (2 Bft) W-NW 290 ° 0 min 0,000 mm 1,8 UV-I 411 W/m² 4,2 °C 9,1 °C 8,0 km/h (2 Bft)
03.10.2019 16:07 9,9 °C 68 % 1017,1 hPa 0,0 mm 6,4 km/h (2 Bft) W-NW 300 ° 0 min 0,000 mm 1,8 UV-I 408 W/m² 4,3 °C 9,3 °C 11,3 km/h (2 Bft)
03.10.2019 16:08 9,9 °C 69 % 1017,1 hPa 0,0 mm 5,9 km/h (2 Bft) W 275 ° 0 min 0,000 mm 1,8 UV-I 397 W/m² 4,5 °C 9,4 °C 8,0 km/h (2 Bft)
03.10.2019 16:09 9,9 °C 69 % 1017,1 hPa 0,0 mm 9,4 km/h (2 Bft) N-NW 344 ° 0 min 0,000 mm 1,7 UV-I 397 W/m² 4,5 °C 8,6 °C 14,5 km/h (3 Bft)
03.10.2019 16:10 9,9 °C 69 % 1017,1 hPa 0,0 mm 7,9 km/h (2 Bft) NW 323 ° 0 min 0,000 mm 1,7 UV-I 397 W/m² 4,5 °C 8,9 °C 9,7 km/h (2 Bft)
03.10.2019 16:11 9,9 °C 68 % 1017,0 hPa 0,0 mm 6,0 km/h (2 Bft) NW 304 ° 0 min 0,000 mm 1,6 UV-I 325 W/m² 4,3 °C 9,4 °C 11,3 km/h (2 Bft)
03.10.2019 16:12 9,9 °C 68 % 1017,0 hPa 0,0 mm 4,9 km/h (1 Bft) NW 313 ° 0 min 0,000 mm 1,4 UV-I 232 W/m² 4,3 °C 9,7 °C 8,0 km/h (2 Bft)
03.10.2019 16:13 9,8 °C 67 % 1017,0 hPa 0,0 mm 3,8 km/h (1 Bft) W-NW 300 ° 0 min 0,000 mm 1,4 UV-I 200 W/m² 4,0 °C 9,8 °C 6,4 km/h (2 Bft)
03.10.2019 16:14 9,8 °C 66 % 1017,0 hPa 0,0 mm 4,3 km/h (1 Bft) W-NW 286 ° 0 min 0,000 mm 1,3 UV-I 104 W/m² 3,8 °C 9,8 °C 6,4 km/h (2 Bft)
03.10.2019 16:15 9,7 °C 67 % 1017,0 hPa 0,0 mm 5,0 km/h (1 Bft) W 260 ° 0 min 0,000 mm 1,2 UV-I 86 W/m² 3,9 °C 9,4 °C 12,9 km/h (3 Bft)
03.10.2019 16:16 9,7 °C 68 % 1017,0 hPa 0,0 mm 8,1 km/h (2 Bft) W-SW 247 ° 0 min 0,000 mm 1,2 UV-I 93 W/m² 4,1 °C 8,6 °C 14,5 km/h (3 Bft)
03.10.2019 16:17 9,6 °C 68 % 1017,0 hPa 0,0 mm 10,4 km/h (2 Bft) W-NW 288 ° 0 min 0,000 mm 1,3 UV-I 121 W/m² 4,0 °C 8,1 °C 14,5 km/h (3 Bft)
03.10.2019 16:18 9,6 °C 67 % 1017,0 hPa 0,0 mm 3,8 km/h (1 Bft) W-NW 292 ° 0 min 0,000 mm 1,2 UV-I 128 W/m² 3,8 °C 9,6 °C 8,0 km/h (2 Bft)
03.10.2019 16:19 9,6 °C 68 % 1016,9 hPa 0,0 mm 3,2 km/h (1 Bft) NW 308 ° 0 min 0,000 mm 1,2 UV-I 107 W/m² 4,0 °C 9,6 °C 4,8 km/h (1 Bft)
03.10.2019 16:20 9,6 °C 68 % 1016,9 hPa 0,0 mm 3,6 km/h (1 Bft) NW 317 ° 0 min 0,000 mm 1,2 UV-I 132 W/m² 4,0 °C 9,6 °C 6,4 km/h (2 Bft)
03.10.2019 16:21 9,7 °C 69 % 1016,9 hPa 0,0 mm 2,2 km/h (1 Bft) NW 321 ° 0 min 0,000 mm 1,2 UV-I 142 W/m² 4,3 °C 9,7 °C 6,4 km/h (2 Bft)
03.10.2019 16:22 9,7 °C 68 % 1016,9 hPa 0,0 mm 3,8 km/h (1 Bft) N-NW 346 ° 0 min 0,000 mm 1,2 UV-I 114 W/m² 4,1 °C 9,7 °C 4,8 km/h (1 Bft)
03.10.2019 16:23 9,7 °C 70 % 1016,9 hPa 0,0 mm 3,3 km/h (1 Bft) W-NW 290 ° 0 min 0,000 mm 1,2 UV-I 93 W/m² 4,5 °C 9,7 °C 6,4 km/h (2 Bft)
03.10.2019 16:24 9,8 °C 68 % 1016,9 hPa 0,0 mm 5,5 km/h (1 Bft) NW 312 ° 0 min 0,000 mm 1,2 UV-I 144 W/m² 4,2 °C 9,4 °C 8,0 km/h (2 Bft)
03.10.2019 16:25 9,7 °C 68 % 1016,9 hPa 0,0 mm 3,5 km/h (1 Bft) N-NO 22 ° 0 min 0,000 mm 1,2 UV-I 174 W/m² 4,1 °C 9,7 °C 4,8 km/h (1 Bft)
03.10.2019 16:26 9,8 °C 69 % 1016,9 hPa 0,0 mm 2,7 km/h (1 Bft) N-NO 19 ° 0 min 0,000 mm 1,2 UV-I 107 W/m² 4,4 °C 9,8 °C 3,2 km/h (1 Bft)
03.10.2019 16:27 9,7 °C 68 % 1016,8 hPa 0,0 mm 1,6 km/h (1 Bft) N-NW 327 ° 0 min 0,000 mm 1,1 UV-I 113 W/m² 4,1 °C 9,7 °C 6,4 km/h (2 Bft)
03.10.2019 16:28 9,8 °C 69 % 1016,8 hPa 0,0 mm 7,9 km/h (2 Bft) W 270 ° 0 min 0,000 mm 1,1 UV-I 104 W/m² 4,4 °C 8,8 °C 11,3 km/h (2 Bft)
03.10.2019 16:29 9,7 °C 69 % 1016,8 hPa 0,0 mm 3,6 km/h (1 Bft) N-NW 336 ° 0 min 0,000 mm 1,1 UV-I 102 W/m² 4,3 °C 9,7 °C 8,0 km/h (2 Bft)
03.10.2019 16:30 9,7 °C 68 % 1016,8 hPa 0,0 mm 1,5 km/h (1 Bft) NW 323 ° 0 min 0,000 mm 1,1 UV-I 97 W/m² 4,1 °C 9,7 °C 4,8 km/h (1 Bft)
03.10.2019 16:31 9,7 °C 69 % 1016,8 hPa 0,0 mm 8,2 km/h (2 Bft) NW 319 ° 0 min 0,000 mm 1,0 UV-I 46 W/m² 4,3 °C 8,6 °C 14,5 km/h (3 Bft)
03.10.2019 16:32 9,7 °C 68 % 1016,8 hPa 0,0 mm 9,0 km/h (2 Bft) NW 319 ° 0 min 0,000 mm 0,0 UV-I 49 W/m² 4,1 °C 8,5 °C 12,9 km/h (3 Bft)
03.10.2019 16:33 9,7 °C 68 % 1016,8 hPa 0,0 mm 7,7 km/h (2 Bft) W-NW 286 ° 0 min 0,000 mm 1,0 UV-I 58 W/m² 4,1 °C 8,7 °C 11,3 km/h (2 Bft)
03.10.2019 16:34 9,6 °C 68 % 1016,8 hPa 0,0 mm 4,4 km/h (1 Bft) NW 324 ° 0 min 0,000 mm 1,0 UV-I 83 W/m² 4,0 °C 9,6 °C 8,0 km/h (2 Bft)
03.10.2019 16:35 9,6 °C 69 % 1016,9 hPa 0,0 mm 6,2 km/h (2 Bft) W-NW 292 ° 0 min 0,000 mm 1,1 UV-I 102 W/m² 4,2 °C 9,0 °C 11,3 km/h (2 Bft)
03.10.2019 16:36 9,7 °C 69 % 1016,9 hPa 0,0 mm 6,3 km/h (2 Bft) NW 322 ° 0 min 0,000 mm 1,0 UV-I 111 W/m² 4,3 °C 9,0 °C 9,7 km/h (2 Bft)
03.10.2019 16:37 9,7 °C 69 % 1016,9 hPa 0,0 mm 3,8 km/h (1 Bft) NW 319 ° 0 min 0,000 mm 1,1 UV-I 237 W/m² 4,3 °C 9,7 °C 6,4 km/h (2 Bft)
03.10.2019 16:38 9,7 °C 69 % 1016,8 hPa 0,0 mm 3,9 km/h (1 Bft) N-NW 329 ° 0 min 0,000 mm 1,1 UV-I 271 W/m² 4,3 °C 9,7 °C 6,4 km/h (2 Bft)
03.10.2019 16:39 9,7 °C 69 % 1016,8 hPa 0,0 mm 1,4 km/h (1 Bft) NW 323 ° 0 min 0,000 mm 1,1 UV-I 174 W/m² 4,3 °C 9,7 °C 3,2 km/h (1 Bft)
03.10.2019 16:40 9,7 °C 68 % 1016,9 hPa 0,0 mm 4,4 km/h (1 Bft) NW 317 ° 0 min 0,000 mm 1,0 UV-I 174 W/m² 4,1 °C 9,7 °C 12,9 km/h (3 Bft)
03.10.2019 16:41 9,7 °C 68 % 1016,9 hPa 0,0 mm 8,4 km/h (2 Bft) NW 326 ° 0 min 0,000 mm 1,0 UV-I 137 W/m² 4,1 °C 8,6 °C 14,5 km/h (3 Bft)
03.10.2019 16:42 9,7 °C 69 % 1016,8 hPa 0,0 mm 7,0 km/h (2 Bft) W 268 ° 0 min 0,000 mm 1,1 UV-I 137 W/m² 4,3 °C 8,9 °C 11,3 km/h (2 Bft)
03.10.2019 16:43 9,7 °C 70 % 1016,8 hPa 0,0 mm 7,8 km/h (2 Bft) NW 322 ° 0 min 0,000 mm 1,2 UV-I 304 W/m² 4,5 °C 8,7 °C 12,9 km/h (3 Bft)
03.10.2019 16:44 9,7 °C 70 % 1016,8 hPa 0,0 mm 8,3 km/h (2 Bft) N-NW 333 ° 0 min 0,000 mm 1,1 UV-I 301 W/m² 4,5 °C 8,6 °C 12,9 km/h (3 Bft)
03.10.2019 16:45 9,7 °C 68 % 1016,8 hPa 0,0 mm 6,5 km/h (2 Bft) NW 312 ° 0 min 0,000 mm 1,1 UV-I 295 W/m² 4,1 °C 9,0 °C 8,0 km/h (2 Bft)
03.10.2019 16:46 9,6 °C 67 % 1016,8 hPa 0,0 mm 4,1 km/h (1 Bft) NW 314 ° 0 min 0,000 mm 1,1 UV-I 288 W/m² 3,8 °C 9,6 °C 6,4 km/h (2 Bft)
03.10.2019 16:47 9,6 °C 67 % 1016,8 hPa 0,0 mm 2,1 km/h (1 Bft) W-SW 252 ° 0 min 0,000 mm 1,1 UV-I 264 W/m² 3,8 °C 9,6 °C 3,2 km/h (1 Bft)
03.10.2019 16:48 9,6 °C 68 % 1016,7 hPa 0,0 mm 4,5 km/h (1 Bft) W 281 ° 0 min 0,000 mm 1,0 UV-I 188 W/m² 4,0 °C 9,6 °C 8,0 km/h (2 Bft)
03.10.2019 16:49 9,5 °C 69 % 1016,7 hPa 0,0 mm 7,1 km/h (2 Bft) NW 306 ° 0 min 0,000 mm 0,9 UV-I 51 W/m² 4,1 °C 8,6 °C 12,9 km/h (3 Bft)
03.10.2019 16:50 9,5 °C 69 % 1016,7 hPa 0,0 mm 4,2 km/h (1 Bft) W-NW 294 ° 0 min 0,000 mm 0,0 UV-I 58 W/m² 4,1 °C 9,5 °C 6,4 km/h (2 Bft)
03.10.2019 16:51 9,6 °C 69 % 1016,8 hPa 0,0 mm 9,1 km/h (2 Bft) W 259 ° 0 min 0,000 mm 0,0 UV-I 53 W/m² 4,2 °C 8,3 °C 12,9 km/h (3 Bft)
03.10.2019 16:52 9,5 °C 69 % 1016,8 hPa 0,0 mm 5,7 km/h (1 Bft) NW 308 ° 0 min 0,000 mm 0,0 UV-I 46 W/m² 4,1 °C 9,0 °C 11,3 km/h (2 Bft)
03.10.2019 16:53 9,4 °C 70 % 1016,8 hPa 0,0 mm 5,1 km/h (1 Bft) W 265 ° 0 min 0,000 mm 0,0 UV-I 47 W/m² 4,2 °C 9,0 °C 6,4 km/h (2 Bft)
03.10.2019 16:54 9,4 °C 69 % 1016,8 hPa 0,0 mm 3,8 km/h (1 Bft) W-NW 289 ° 0 min 0,000 mm 0,0 UV-I 47 W/m² 4,0 °C 9,4 °C 6,4 km/h (2 Bft)
03.10.2019 16:55 9,3 °C 68 % 1016,8 hPa 0,0 mm 8,0 km/h (2 Bft) W 275 ° 0 min 0,000 mm 0,8 UV-I 60 W/m² 3,7 °C 8,2 °C 12,9 km/h (3 Bft)
03.10.2019 16:56 9,3 °C 69 % 1016,8 hPa 0,0 mm 6,6 km/h (2 Bft) W-NW 301 ° 0 min 0,000 mm 0,0 UV-I 54 W/m² 3,9 °C 8,5 °C 11,3 km/h (2 Bft)
03.10.2019 16:57 9,4 °C 68 % 1016,8 hPa 0,0 mm 6,4 km/h (2 Bft) NW 323 ° 0 min 0,000 mm 0,0 UV-I 54 W/m² 3,8 °C 8,7 °C 9,7 km/h (2 Bft)
03.10.2019 16:58 9,4 °C 69 % 1016,8 hPa 0,0 mm 7,0 km/h (2 Bft) W 275 ° 0 min 0,000 mm 0,0 UV-I 49 W/m² 4,0 °C 8,5 °C 12,9 km/h (3 Bft)
03.10.2019 16:59 9,4 °C 70 % 1016,8 hPa 0,0 mm 7,0 km/h (2 Bft) NW 321 ° 0 min 0,000 mm 0,0 UV-I 44 W/m² 4,2 °C 8,5 °C 9,7 km/h (2 Bft)
03.10.2019 17:00 9,4 °C 70 % 1016,8 hPa 0,0 mm 4,1 km/h (1 Bft) N-NW 335 ° 0 min 0,000 mm 0,0 UV-I 42 W/m² 4,2 °C 9,4 °C 4,8 km/h (1 Bft)
03.10.2019 17:01 9,4 °C 69 % 1016,9 hPa 0,0 mm 2,9 km/h (1 Bft) W-NW 303 ° 0 min 0,101 mm 0,0 UV-I 40 W/m² 4,0 °C 9,4 °C 4,8 km/h (1 Bft)
03.10.2019 17:02 9,4 °C 69 % 1016,8 hPa 0,0 mm 5,7 km/h (1 Bft) N-NW 327 ° 0 min 0,000 mm 0,0 UV-I 40 W/m² 4,0 °C 8,9 °C 8,0 km/h (2 Bft)
03.10.2019 17:03 9,4 °C 69 % 1016,8 hPa 0,0 mm 7,6 km/h (2 Bft) NW 306 ° 0 min 0,000 mm 0,0 UV-I 40 W/m² 4,0 °C 8,4 °C 12,9 km/h (3 Bft)
03.10.2019 17:04 9,4 °C 69 % 1016,8 hPa 0,0 mm 7,8 km/h (2 Bft) N-NW 331 ° 0 min 0,000 mm 0,0 UV-I 40 W/m² 4,0 °C 8,3 °C 11,3 km/h (2 Bft)
03.10.2019 17:05 9,3 °C 70 % 1016,8 hPa 0,0 mm 4,4 km/h (1 Bft) W-NW 301 ° 0 min 0,000 mm 0,0 UV-I 40 W/m² 4,1 °C 9,3 °C 8,0 km/h (2 Bft)
03.10.2019 17:06 9,3 °C 69 % 1016,9 hPa 0,0 mm 2,5 km/h (1 Bft) NW 319 ° 0 min 0,000 mm 0,0 UV-I 40 W/m² 3,9 °C 9,3 °C 9,7 km/h (2 Bft)
03.10.2019 17:07 9,3 °C 70 % 1016,9 hPa 0,0 mm 5,0 km/h (1 Bft) W-NW 290 ° 0 min 0,000 mm 0,0 UV-I 39 W/m² 4,1 °C 9,0 °C 9,7 km/h (2 Bft)
03.10.2019 17:08 9,3 °C 69 % 1016,8 hPa 0,0 mm 2,5 km/h (1 Bft) W-NW 290 ° 0 min 0,000 mm 0,0 UV-I 39 W/m² 3,9 °C 9,3 °C 4,8 km/h (1 Bft)
03.10.2019 17:09 9,3 °C 70 % 1016,8 hPa 0,0 mm 10,0 km/h (2 Bft) NW 326 ° 0 min 0,000 mm 0,0 UV-I 42 W/m² 4,1 °C 7,8 °C 14,5 km/h (3 Bft)
03.10.2019 17:10 9,2 °C 70 % 1016,8 hPa 0,0 mm 6,7 km/h (2 Bft) N-NW 330 ° 0 min 0,000 mm 0,0 UV-I 46 W/m² 4,0 °C 8,4 °C 12,9 km/h (3 Bft)
03.10.2019 17:11 9,2 °C 70 % 1016,8 hPa 0,0 mm 4,2 km/h (1 Bft) N-NW 343 ° 0 min 0,000 mm 0,0 UV-I 53 W/m² 4,0 °C 9,2 °C 6,4 km/h (2 Bft)
03.10.2019 17:12 9,2 °C 71 % 1016,8 hPa 0,0 mm 3,4 km/h (1 Bft) NW 321 ° 0 min 0,000 mm 0,7 UV-I 60 W/m² 4,2 °C 9,2 °C 6,4 km/h (2 Bft)
03.10.2019 17:13 9,2 °C 70 % 1016,8 hPa 0,0 mm 9,6 km/h (2 Bft) NW 322 ° 0 min 0,000 mm 0,7 UV-I 62 W/m² 4,0 °C 7,7 °C 12,9 km/h (3 Bft)
03.10.2019 17:14 9,2 °C 70 % 1016,8 hPa 0,0 mm 7,7 km/h (2 Bft) NW 313 ° 0 min 0,000 mm 0,7 UV-I 58 W/m² 4,0 °C 8,1 °C 9,7 km/h (2 Bft)
03.10.2019 17:15 9,2 °C 70 % 1016,9 hPa 0,0 mm 4,9 km/h (1 Bft) W-NW 288 ° 0 min 0,000 mm 0,7 UV-I 56 W/m² 4,0 °C 8,9 °C 8,0 km/h (2 Bft)
03.10.2019 17:16 9,2 °C 70 % 1016,9 hPa 0,0 mm 5,7 km/h (1 Bft) NW 304 ° 0 min 0,000 mm 0,0 UV-I 51 W/m² 4,0 °C 8,6 °C 8,0 km/h (2 Bft)
03.10.2019 17:17 9,2 °C 70 % 1016,9 hPa 0,0 mm 5,1 km/h (1 Bft) NW 326 ° 0 min 0,000 mm 0,0 UV-I 47 W/m² 4,0 °C 8,8 °C 6,4 km/h (2 Bft)
03.10.2019 17:18 9,1 °C 70 % 1016,9 hPa 0,0 mm 3,7 km/h (1 Bft) W-NW 299 ° 0 min 0,000 mm 0,0 UV-I 39 W/m² 3,9 °C 9,1 °C 6,4 km/h (2 Bft)
03.10.2019 17:19 9,1 °C 70 % 1016,8 hPa 0,0 mm 5,5 km/h (1 Bft) N-NW 329 ° 0 min 0,000 mm 0,0 UV-I 35 W/m² 3,9 °C 8,6 °C 8,0 km/h (2 Bft)
03.10.2019 17:20 9,1 °C 70 % 1016,8 hPa 0,0 mm 4,5 km/h (1 Bft) N 355 ° 0 min 0,000 mm 0,0 UV-I 33 W/m² 3,9 °C 9,1 °C 6,4 km/h (2 Bft)
03.10.2019 17:21 9,0 °C 70 % 1016,9 hPa 0,0 mm 1,1 km/h (1 Bft) N 355 ° 0 min 0,000 mm 0,0 UV-I 32 W/m² 3,8 °C 9,0 °C 3,2 km/h (1 Bft)
03.10.2019 17:22 8,9 °C 70 % 1016,8 hPa 0,0 mm 3,1 km/h (1 Bft) N 355 ° 0 min 0,000 mm 0,0 UV-I 30 W/m² 3,7 °C 8,9 °C 4,8 km/h (1 Bft)
03.10.2019 17:23 8,9 °C 70 % 1016,8 hPa 0,0 mm 4,4 km/h (1 Bft) N-NW 333 ° 0 min 0,000 mm 0,0 UV-I 30 W/m² 3,7 °C 8,9 °C 6,4 km/h (2 Bft)
03.10.2019 17:24 8,8 °C 71 % 1016,8 hPa 0,0 mm 2,5 km/h (1 Bft) N-NW 333 ° 0 min 0,000 mm 0,0 UV-I 28 W/m² 3,8 °C 8,8 °C 3,2 km/h (1 Bft)
03.10.2019 17:25 8,8 °C 71 % 1016,8 hPa 0,0 mm 5,8 km/h (2 Bft) W-NW 286 ° 0 min 0,000 mm 0,0 UV-I 28 W/m² 3,8 °C 8,1 °C 8,0 km/h (2 Bft)
03.10.2019 17:26 8,7 °C 72 % 1016,8 hPa 0,0 mm 3,8 km/h (1 Bft) W-NW 288 ° 0 min 0,000 mm 0,0 UV-I 28 W/m² 3,9 °C 8,7 °C 4,8 km/h (1 Bft)
03.10.2019 17:27 8,7 °C 72 % 1016,8 hPa 0,0 mm 2,4 km/h (1 Bft) W-NW 288 ° 0 min 0,000 mm 0,0 UV-I 30 W/m² 3,9 °C 8,7 °C 4,8 km/h (1 Bft)
03.10.2019 17:28 8,6 °C 72 % 1016,8 hPa 0,0 mm 4,0 km/h (1 Bft) W-NW 288 ° 0 min 0,000 mm 0,0 UV-I 32 W/m² 3,8 °C 8,6 °C 4,8 km/h (1 Bft)
03.10.2019 17:29 8,6 °C 72 % 1016,8 hPa 0,0 mm 3,2 km/h (1 Bft) W-NW 288 ° 0 min 0,000 mm 0,0 UV-I 33 W/m² 3,8 °C 8,6 °C 4,8 km/h (1 Bft)
03.10.2019 17:30 8,5 °C 73 % 1016,8 hPa 0,0 mm 1,1 km/h (1 Bft) W-NW 288 ° 0 min 0,000 mm 0,0 UV-I 35 W/m² 3,9 °C 8,5 °C 3,2 km/h (1 Bft)
03.10.2019 17:31 8,4 °C 73 % 1016,7 hPa 0,0 mm 0,7 km/h (0 Bft) W-NW 287 ° 0 min 0,000 mm 0,0 UV-I 33 W/m² 3,8 °C 8,4 °C 3,2 km/h (1 Bft)
03.10.2019 17:32 8,3 °C 73 % 1016,7 hPa 0,0 mm 1,9 km/h (1 Bft) W-NW 287 ° 0 min 0,000 mm 0,0 UV-I 32 W/m² 3,8 °C 8,3 °C 3,2 km/h (1 Bft)
03.10.2019 17:33 8,3 °C 73 % 1016,8 hPa 0,0 mm 1,3 km/h (1 Bft) W-NW 287 ° 0 min 0,000 mm 0,0 UV-I 30 W/m² 3,8 °C 8,3 °C 3,2 km/h (1 Bft)
03.10.2019 17:34 8,3 °C 73 % 1016,8 hPa 0,0 mm 0,0 km/h (0 Bft) W-NW 287 ° 0 min 0,000 mm 0,0 UV-I 30 W/m² 3,8 °C 8,3 °C 0,0 km/h (0 Bft)
03.10.2019 17:35 8,3 °C 74 % 1016,8 hPa 0,0 mm 0,0 km/h (0 Bft) W-NW 287 ° 0 min 0,000 mm 0,0 UV-I 32 W/m² 3,9 °C 8,3 °C 0,0 km/h (0 Bft)
03.10.2019 17:36 8,2 °C 74 % 1016,8 hPa 0,0 mm 0,0 km/h (0 Bft) W-NW 287 ° 0 min 0,000 mm 0,0 UV-I 35 W/m² 3,8 °C 8,2 °C 0,0 km/h (0 Bft)
03.10.2019 17:37 8,2 °C 74 % 1016,8 hPa 0,0 mm 0,0 km/h (0 Bft) W-NW 287 ° 0 min 0,000 mm 0,0 UV-I 37 W/m² 3,8 °C 8,2 °C 0,0 km/h (0 Bft)
03.10.2019 17:38 8,2 °C 75 % 1016,8 hPa 0,0 mm 0,0 km/h (0 Bft) W-NW 287 ° 0 min 0,000 mm 0,0 UV-I 37 W/m² 4,0 °C 8,2 °C 0,0 km/h (0 Bft)
03.10.2019 17:39 8,1 °C 75 % 1016,8 hPa 0,0 mm 0,0 km/h (0 Bft) W-NW 287 ° 0 min 0,000 mm 0,0 UV-I 37 W/m² 3,9 °C 8,1 °C 0,0 km/h (0 Bft)
03.10.2019 17:40 8,1 °C 75 % 1016,8 hPa 0,0 mm 0,0 km/h (0 Bft) W-NW 287 ° 0 min 0,000 mm 0,0 UV-I 39 W/m² 3,9 °C 8,1 °C 0,0 km/h (0 Bft)
03.10.2019 17:41 8,0 °C 75 % 1016,8 hPa 0,0 mm 0,0 km/h (0 Bft) W-NW 287 ° 0 min 0,000 mm 0,0 UV-I 42 W/m² 3,8 °C 8,0 °C 0,0 km/h (0 Bft)
03.10.2019 17:42 8,0 °C 75 % 1016,8 hPa 0,0 mm 0,0 km/h (0 Bft) W-NW 287 ° 0 min 0,000 mm 0,0 UV-I 53 W/m² 3,8 °C 8,0 °C 0,0 km/h (0 Bft)
03.10.2019 17:43 7,9 °C 75 % 1016,9 hPa 0,0 mm 0,0 km/h (0 Bft) W-NW 287 ° 0 min 0,000 mm 0,0 UV-I 54 W/m² 3,7 °C 7,9 °C 0,0 km/h (0 Bft)
03.10.2019 17:44 7,9 °C 75 % 1016,8 hPa 0,0 mm 0,0 km/h (0 Bft) W-NW 287 ° 0 min 0,000 mm 0,0 UV-I 53 W/m² 3,7 °C 7,9 °C 0,0 km/h (0 Bft)
03.10.2019 17:45 7,9 °C 75 % 1016,8 hPa 0,0 mm 0,0 km/h (0 Bft) W-NW 287 ° 0 min 0,000 mm 0,0 UV-I 53 W/m² 3,7 °C 7,9 °C 0,0 km/h (0 Bft)
03.10.2019 17:46 8,0 °C 77 % 1016,9 hPa 0,0 mm 0,0 km/h (0 Bft) W-NW 287 ° 0 min 0,000 mm 0,0 UV-I 53 W/m² 4,2 °C 8,0 °C 0,0 km/h (0 Bft)
03.10.2019 17:47 7,9 °C 77 % 1016,9 hPa 0,0 mm 0,0 km/h (0 Bft) W-NW 287 ° 0 min 0,000 mm 0,0 UV-I 53 W/m² 4,1 °C 7,9 °C 0,0 km/h (0 Bft)
03.10.2019 17:48 7,9 °C 78 % 1016,9 hPa 0,0 mm 0,0 km/h (0 Bft) W-NW 287 ° 0 min 0,000 mm 0,0 UV-I 53 W/m² 4,3 °C 7,9 °C 0,0 km/h (0 Bft)
03.10.2019 17:49 7,9 °C 78 % 1016,9 hPa 0,0 mm 0,0 km/h (0 Bft) W-NW 287 ° 0 min 0,000 mm 0,0 UV-I 53 W/m² 4,3 °C 7,9 °C 0,0 km/h (0 Bft)
03.10.2019 17:50 7,9 °C 78 % 1016,9 hPa 0,0 mm 0,0 km/h (0 Bft) W-NW 287 ° 0 min 0,000 mm 0,0 UV-I 51 W/m² 4,3 °C 7,9 °C 0,0 km/h (0 Bft)
03.10.2019 17:51 7,9 °C 79 % 1017,0 hPa 0,0 mm 1,9 km/h (1 Bft) W-NW 287 ° 0 min 0,000 mm 0,0 UV-I 47 W/m² 4,5 °C 7,9 °C 3,2 km/h (1 Bft)
03.10.2019 17:52 7,9 °C 79 % 1016,9 hPa 0,0 mm 2,0 km/h (1 Bft) W-NW 287 ° 0 min 0,000 mm 0,0 UV-I 42 W/m² 4,5 °C 7,9 °C 3,2 km/h (1 Bft)
03.10.2019 17:53 7,9 °C 80 % 1016,9 hPa 0,0 mm 0,5 km/h (0 Bft) W-NW 287 ° 0 min 0,000 mm 0,0 UV-I 39 W/m² 4,7 °C 7,9 °C 3,2 km/h (1 Bft)
03.10.2019 17:54 7,9 °C 80 % 1016,9 hPa 0,0 mm 0,0 km/h (0 Bft) W-NW 287 ° 0 min 0,000 mm 0,0 UV-I 33 W/m² 4,7 °C 7,9 °C 0,0 km/h (0 Bft)
03.10.2019 17:55 7,9 °C 80 % 1017,0 hPa 0,0 mm 0,0 km/h (0 Bft) W-NW 287 ° 0 min 0,000 mm 0,0 UV-I 33 W/m² 4,7 °C 7,9 °C 0,0 km/h (0 Bft)
03.10.2019 17:56 7,8 °C 81 % 1016,9 hPa 0,0 mm 0,0 km/h (0 Bft) W-NW 287 ° 0 min 0,000 mm 0,0 UV-I 32 W/m² 4,7 °C 7,8 °C 0,0 km/h (0 Bft)
03.10.2019 17:57 7,8 °C 81 % 1016,9 hPa 0,0 mm 0,0 km/h (0 Bft) W-NW 287 ° 0 min 0,000 mm 0,0 UV-I 30 W/m² 4,7 °C 7,8 °C 0,0 km/h (0 Bft)
03.10.2019 17:58 7,8 °C 80 % 1017,0 hPa 0,0 mm 0,0 km/h (0 Bft) W-NW 287 ° 0 min 0,000 mm 0,0 UV-I 30 W/m² 4,6 °C 7,8 °C 0,0 km/h (0 Bft)
03.10.2019 17:59 7,7 °C 80 % 1017,0 hPa 0,0 mm 0,0 km/h (0 Bft) W-NW 287 ° 0 min 0,000 mm 0,0 UV-I 28 W/m² 4,5 °C 7,7 °C 0,0 km/h (0 Bft)
03.10.2019 18:00 7,7 °C 79 % 1017,0 hPa 0,0 mm 0,1 km/h (0 Bft) W-NW 287 ° 0 min 0,000 mm 0,0 UV-I 28 W/m² 4,3 °C 7,7 °C 1,6 km/h (1 Bft)
03.10.2019 18:01 7,7 °C 79 % 1017,0 hPa 0,0 mm 0,0 km/h (0 Bft) W-NW 287 ° 0 min 0,026 mm 0,0 UV-I 28 W/m² 4,3 °C 7,7 °C 0,0 km/h (0 Bft)
03.10.2019 18:02 7,7 °C 78 % 1016,9 hPa 0,0 mm 0,0 km/h (0 Bft) W-NW 287 ° 0 min 0,000 mm 0,0 UV-I 28 W/m² 4,1 °C 7,7 °C 0,0 km/h (0 Bft)
03.10.2019 18:03 7,8 °C 79 % 1017,0 hPa 0,0 mm 0,0 km/h (0 Bft) W-NW 287 ° 0 min 0,000 mm 0,0 UV-I 26 W/m² 4,4 °C 7,8 °C 0,0 km/h (0 Bft)
03.10.2019 18:04 7,7 °C 79 % 1017,0 hPa 0,0 mm 0,0 km/h (0 Bft) W-NW 287 ° 0 min 0,000 mm 0,0 UV-I 26 W/m² 4,3 °C 7,7 °C 0,0 km/h (0 Bft)
03.10.2019 18:05 7,7 °C 79 % 1017,0 hPa 0,0 mm 0,0 km/h (0 Bft) W-NW 287 ° 0 min 0,000 mm 0,0 UV-I 28 W/m² 4,3 °C 7,7 °C 0,0 km/h (0 Bft)
03.10.2019 18:06 7,7 °C 79 % 1017,0 hPa 0,0 mm 0,0 km/h (0 Bft) W-NW 287 ° 0 min 0,000 mm 0,0 UV-I 28 W/m² 4,3 °C 7,7 °C 0,0 km/h (0 Bft)
03.10.2019 18:07 7,7 °C 79 % 1016,9 hPa 0,0 mm 1,3 km/h (1 Bft) W-NW 287 ° 0 min 0,000 mm 0,0 UV-I 26 W/m² 4,3 °C 7,7 °C 3,2 km/h (1 Bft)
03.10.2019 18:08 7,6 °C 80 % 1016,9 hPa 0,0 mm 0,3 km/h (0 Bft) W-NW 287 ° 0 min 0,000 mm 0,0 UV-I 26 W/m² 4,4 °C 7,6 °C 1,6 km/h (1 Bft)
03.10.2019 18:09 7,6 °C 81 % 1016,9 hPa 0,0 mm 0,0 km/h (0 Bft) W-NW 286 ° 0 min 0,000 mm 0,0 UV-I 26 W/m² 4,6 °C 7,6 °C 0,0 km/h (0 Bft)
03.10.2019 18:10 7,6 °C 82 % 1017,0 hPa 0,0 mm 0,0 km/h (0 Bft) W-NW 286 ° 0 min 0,000 mm 0,0 UV-I 28 W/m² 4,7 °C 7,6 °C 0,0 km/h (0 Bft)
03.10.2019 18:11 7,4 °C 82 % 1017,0 hPa 0,0 mm 0,0 km/h (0 Bft) W-NW 286 ° 0 min 0,000 mm 0,0 UV-I 32 W/m² 4,5 °C 7,4 °C 0,0 km/h (0 Bft)
03.10.2019 18:12 7,3 °C 83 % 1017,0 hPa 0,0 mm 0,0 km/h (0 Bft) W-NW 286 ° 0 min 0,000 mm 0,0 UV-I 32 W/m² 4,6 °C 7,3 °C 0,0 km/h (0 Bft)
03.10.2019 18:13 7,2 °C 83 % 1017,0 hPa 0,0 mm 0,0 km/h (0 Bft) W-NW 286 ° 0 min 0,000 mm 0,0 UV-I 30 W/m² 4,5 °C 7,2 °C 0,0 km/h (0 Bft)
03.10.2019 18:14 7,2 °C 83 % 1017,0 hPa 0,0 mm 0,0 km/h (0 Bft) W-NW 286 ° 0 min 0,000 mm 0,0 UV-I 30 W/m² 4,5 °C 7,2 °C 0,0 km/h (0 Bft)
03.10.2019 18:15 7,1 °C 84 % 1016,9 hPa 0,0 mm 0,0 km/h (0 Bft) W-NW 286 ° 0 min 0,000 mm 0,0 UV-I 26 W/m² 4,6 °C 7,1 °C 0,0 km/h (0 Bft)
03.10.2019 18:16 7,1 °C 84 % 1017,0 hPa 0,0 mm 0,0 km/h (0 Bft) W-NW 286 ° 0 min 0,000 mm 0,0 UV-I 25 W/m² 4,6 °C 7,1 °C 0,0 km/h (0 Bft)
03.10.2019 18:17 7,1 °C 84 % 1017,0 hPa 0,0 mm 0,0 km/h (0 Bft) W-NW 286 ° 0 min 0,000 mm 0,0 UV-I 21 W/m² 4,6 °C 7,1 °C 0,0 km/h (0 Bft)
03.10.2019 18:18 7,1 °C 84 % 1017,0 hPa 0,0 mm 0,0 km/h (0 Bft) W-NW 286 ° 0 min 0,000 mm 0,0 UV-I 19 W/m² 4,6 °C 7,1 °C 0,0 km/h (0 Bft)
03.10.2019 18:19 7,0 °C 84 % 1017,0 hPa 0,0 mm 0,0 km/h (0 Bft) W-NW 286 ° 0 min 0,000 mm 0,0 UV-I 18 W/m² 4,5 °C 7,0 °C 0,0 km/h (0 Bft)
03.10.2019 18:20 7,0 °C 85 % 1017,0 hPa 0,0 mm 0,0 km/h (0 Bft) W-NW 286 ° 0 min 0,000 mm 0,0 UV-I 18 W/m² 4,7 °C 7,0 °C 0,0 km/h (0 Bft)
03.10.2019 18:21 6,9 °C 85 % 1017,0 hPa 0,0 mm 0,0 km/h (0 Bft) W-NW 286 ° 0 min 0,000 mm 0,0 UV-I 18 W/m² 4,6 °C 6,9 °C 0,0 km/h (0 Bft)
03.10.2019 18:22 6,9 °C 85 % 1017,0 hPa 0,0 mm 0,0 km/h (0 Bft) W-NW 286 ° 0 min 0,000 mm 0,0 UV-I 18 W/m² 4,6 °C 6,9 °C 0,0 km/h (0 Bft)
03.10.2019 18:23 6,8 °C 84 % 1017,0 hPa 0,0 mm 0,0 km/h (0 Bft) W-NW 286 ° 0 min 0,000 mm 0,0 UV-I 18 W/m² 4,3 °C 6,8 °C 0,0 km/h (0 Bft)
03.10.2019 18:24 6,7 °C 85 % 1017,1 hPa 0,0 mm 0,0 km/h (0 Bft) W-NW 286 ° 0 min 0,000 mm 0,0 UV-I 18 W/m² 4,4 °C 6,7 °C 0,0 km/h (0 Bft)
03.10.2019 18:25 6,7 °C 85 % 1017,1 hPa 0,0 mm 0,0 km/h (0 Bft) W-NW 286 ° 0 min 0,000 mm 0,0 UV-I 18 W/m² 4,4 °C 6,7 °C 0,0 km/h (0 Bft)
03.10.2019 18:26 6,7 °C 85 % 1017,1 hPa 0,0 mm 0,0 km/h (0 Bft) W-NW 286 ° 0 min 0,000 mm 0,0 UV-I 16 W/m² 4,4 °C 6,7 °C 0,0 km/h (0 Bft)
03.10.2019 18:27 6,7 °C 86 % 1017,0 hPa 0,0 mm 0,0 km/h (0 Bft) W-NW 286 ° 0 min 0,000 mm 0,0 UV-I 16 W/m² 4,5 °C 6,7 °C 0,0 km/h (0 Bft)
03.10.2019 18:28 6,7 °C 86 % 1017,0 hPa 0,0 mm 0,0 km/h (0 Bft) W-NW 286 ° 0 min 0,000 mm 0,0 UV-I 16 W/m² 4,5 °C 6,7 °C 0,0 km/h (0 Bft)
03.10.2019 18:29 6,7 °C 86 % 1017,1 hPa 0,0 mm 0,0 km/h (0 Bft) W-NW 286 ° 0 min 0,000 mm 0,0 UV-I 18 W/m² 4,5 °C 6,7 °C 0,0 km/h (0 Bft)
03.10.2019 18:30 6,7 °C 87 % 1017,0 hPa 0,0 mm 0,0 km/h (0 Bft) W-NW 286 ° 0 min 0,000 mm 0,0 UV-I 18 W/m² 4,7 °C 6,7 °C 0,0 km/h (0 Bft)
03.10.2019 18:31 6,7 °C 86 % 1017,1 hPa 0,0 mm 0,0 km/h (0 Bft) W-NW 286 ° 0 min 0,000 mm 0,0 UV-I 16 W/m² 4,5 °C 6,7 °C 0,0 km/h (0 Bft)
03.10.2019 18:32 6,7 °C 87 % 1017,1 hPa 0,0 mm 0,0 km/h (0 Bft) W-NW 286 ° 0 min 0,000 mm 0,0 UV-I 16 W/m² 4,7 °C 6,7 °C 0,0 km/h (0 Bft)
03.10.2019 18:33 6,7 °C 87 % 1017,1 hPa 0,0 mm 0,0 km/h (0 Bft) W-NW 286 ° 0 min 0,000 mm 0,0 UV-I 16 W/m² 4,7 °C 6,7 °C 0,0 km/h (0 Bft)
03.10.2019 18:34 6,7 °C 87 % 1017,0 hPa 0,0 mm 0,0 km/h (0 Bft) W-NW 286 ° 0 min 0,000 mm 0,0 UV-I 16 W/m² 4,7 °C 6,7 °C 0,0 km/h (0 Bft)
03.10.2019 18:35 6,7 °C 86 % 1017,0 hPa 0,0 mm 0,0 km/h (0 Bft) W-NW 286 ° 0 min 0,000 mm 0,0 UV-I 14 W/m² 4,5 °C 6,7 °C 0,0 km/h (0 Bft)
03.10.2019 18:36 6,7 °C 86 % 1017,0 hPa 0,0 mm 0,0 km/h (0 Bft) W-NW 286 ° 0 min 0,000 mm 0,0 UV-I 14 W/m² 4,5 °C 6,7 °C 0,0 km/h (0 Bft)
03.10.2019 18:37 6,7 °C 86 % 1017,0 hPa 0,0 mm 0,0 km/h (0 Bft) W-NW 286 ° 0 min 0,000 mm 0,0 UV-I 12 W/m² 4,5 °C 6,7 °C 0,0 km/h (0 Bft)
03.10.2019 18:38 6,7 °C 86 % 1017,0 hPa 0,0 mm 0,0 km/h (0 Bft) W-NW 286 ° 0 min 0,000 mm 0,0 UV-I 12 W/m² 4,5 °C 6,7 °C 0,0 km/h (0 Bft)
03.10.2019 18:39 6,7 °C 86 % 1017,0 hPa 0,0 mm 0,0 km/h (0 Bft) W-NW 286 ° 0 min 0,000 mm 0,0 UV-I 12 W/m² 4,5 °C 6,7 °C 0,0 km/h (0 Bft)
03.10.2019 18:40 6,7 °C 86 % 1017,1 hPa 0,0 mm 0,0 km/h (0 Bft) W-NW 286 ° 0 min 0,000 mm 0,0 UV-I 9 W/m² 4,5 °C 6,7 °C 0,0 km/h (0 Bft)
03.10.2019 18:41 6,7 °C 86 % 1017,1 hPa 0,0 mm 0,0 km/h (0 Bft) W-NW 286 ° 0 min 0,000 mm 0,0 UV-I 9 W/m² 4,5 °C 6,7 °C 0,0 km/h (0 Bft)
03.10.2019 18:42 6,6 °C 87 % 1017,1 hPa 0,0 mm 0,0 km/h (0 Bft) W-NW 286 ° 0 min 0,000 mm 0,0 UV-I 7 W/m² 4,6 °C 6,6 °C 0,0 km/h (0 Bft)
03.10.2019 18:43 6,6 °C 87 % 1017,1 hPa 0,0 mm 0,0 km/h (0 Bft) W-NW 287 ° 0 min 0,000 mm 0,0 UV-I 7 W/m² 4,6 °C 6,6 °C 0,0 km/h (0 Bft)
03.10.2019 18:44 6,6 °C 88 % 1017,2 hPa 0,0 mm 0,0 km/h (0 Bft) W-NW 287 ° 0 min 0,000 mm 0,0 UV-I 5 W/m² 4,8 °C 6,6 °C 0,0 km/h (0 Bft)
03.10.2019 18:45 6,5 °C 88 % 1017,2 hPa 0,0 mm 0,0 km/h (0 Bft) W-NW 286 ° 0 min 0,000 mm 0,0 UV-I 5 W/m² 4,7 °C 6,5 °C 0,0 km/h (0 Bft)
03.10.2019 18:46 6,5 °C 88 % 1017,2 hPa 0,0 mm 0,0 km/h (0 Bft) W-NW 286 ° 0 min 0,000 mm 0,0 UV-I 5 W/m² 4,7 °C 6,5 °C 0,0 km/h (0 Bft)
03.10.2019 18:47 6,5 °C 88 % 1017,2 hPa 0,0 mm 0,0 km/h (0 Bft) W-NW 286 ° 0 min 0,000 mm 0,0 UV-I 5 W/m² 4,7 °C 6,5 °C 0,0 km/h (0 Bft)
03.10.2019 18:48 6,5 °C 87 % 1017,2 hPa 0,0 mm 0,0 km/h (0 Bft) W-NW 286 ° 0 min 0,000 mm 0,0 UV-I 0 W/m² 4,5 °C 6,5 °C 0,0 km/h (0 Bft)
03.10.2019 18:49 6,6 °C 87 % 1017,2 hPa 0,0 mm 0,0 km/h (0 Bft) W-NW 286 ° 0 min 0,000 mm 0,0 UV-I 0 W/m² 4,6 °C 6,6 °C 0,0 km/h (0 Bft)
03.10.2019 18:50 6,7 °C 86 % 1017,2 hPa 0,0 mm 0,0 km/h (0 Bft) W-NW 286 ° 0 min 0,000 mm 0,0 UV-I 0 W/m² 4,5 °C 6,7 °C 0,0 km/h (0 Bft)
03.10.2019 18:51 6,7 °C 85 % 1017,2 hPa 0,0 mm 0,0 km/h (0 Bft) W-NW 286 ° 0 min 0,000 mm 0,0 UV-I 0 W/m² 4,4 °C 6,7 °C 0,0 km/h (0 Bft)
03.10.2019 18:52 6,8 °C 85 % 1017,2 hPa 0,0 mm 0,0 km/h (0 Bft) W-NW 286 ° 0 min 0,000 mm 0,0 UV-I 0 W/m² 4,5 °C 6,8 °C 0,0 km/h (0 Bft)
03.10.2019 18:53 6,8 °C 85 % 1017,2 hPa 0,0 mm 0,0 km/h (0 Bft) W-NW 286 ° 0 min 0,000 mm 0,0 UV-I 0 W/m² 4,5 °C 6,8 °C 0,0 km/h (0 Bft)
03.10.2019 18:54 6,8 °C 85 % 1017,2 hPa 0,0 mm 0,0 km/h (0 Bft) W-NW 286 ° 0 min 0,000 mm 0,0 UV-I 0 W/m² 4,5 °C 6,8 °C 0,0 km/h (0 Bft)
03.10.2019 18:55 6,8 °C 86 % 1017,2 hPa 0,0 mm 0,0 km/h (0 Bft) W-NW 286 ° 0 min 0,000 mm 0,0 UV-I 0 W/m² 4,6 °C 6,8 °C 0,0 km/h (0 Bft)
03.10.2019 18:56 6,8 °C 86 % 1017,2 hPa 0,0 mm 0,0 km/h (0 Bft) W-NW 286 ° 0 min 0,000 mm 0,0 UV-I 0 W/m² 4,6 °C 6,8 °C 0,0 km/h (0 Bft)
03.10.2019 18:57 6,7 °C 86 % 1017,3 hPa 0,0 mm 0,0 km/h (0 Bft) W-NW 286 ° 0 min 0,000 mm 0,0 UV-I 0 W/m² 4,5 °C 6,7 °C 0,0 km/h (0 Bft)
03.10.2019 18:58 6,6 °C 86 % 1017,2 hPa 0,0 mm 0,0 km/h (0 Bft) W-NW 286 ° 0 min 0,000 mm 0,0 UV-I 0 W/m² 4,4 °C 6,6 °C 0,0 km/h (0 Bft)
03.10.2019 18:59 6,6 °C 86 % 1017,2 hPa 0,0 mm 0,0 km/h (0 Bft) W-NW 286 ° 0 min 0,000 mm 0,0 UV-I 0 W/m² 4,4 °C 6,6 °C 0,0 km/h (0 Bft)
03.10.2019 19:00 6,6 °C 86 % 1017,3 hPa 0,0 mm 0,0 km/h (0 Bft) W-NW 286 ° 0 min 0,000 mm 0,0 UV-I 0 W/m² 4,4 °C 6,6 °C 0,0 km/h (0 Bft)
03.10.2019 19:01 6,6 °C 86 % 1017,2 hPa 0,0 mm 0,0 km/h (0 Bft) W-NW 286 ° 0 min 0,000 mm 0,0 UV-I 0 W/m² 4,4 °C 6,6 °C 0,0 km/h (0 Bft)
03.10.2019 19:02 6,6 °C 86 % 1017,2 hPa 0,0 mm 0,0 km/h (0 Bft) W-NW 286 ° 0 min 0,000 mm 0,0 UV-I 0 W/m² 4,4 °C 6,6 °C 0,0 km/h (0 Bft)
03.10.2019 19:03 6,6 °C 86 % 1017,2 hPa 0,0 mm 0,0 km/h (0 Bft) W-NW 286 ° 0 min 0,000 mm 0,0 UV-I 0 W/m² 4,4 °C 6,6 °C 0,0 km/h (0 Bft)
03.10.2019 19:04 6,6 °C 85 % 1017,2 hPa 0,0 mm 0,0 km/h (0 Bft) W-NW 286 ° 0 min 0,000 mm 0,0 UV-I 0 W/m² 4,3 °C 6,6 °C 0,0 km/h (0 Bft)
03.10.2019 19:05 6,7 °C 85 % 1017,2 hPa 0,0 mm 0,0 km/h (0 Bft) W-NW 286 ° 0 min 0,000 mm 0,0 UV-I 0 W/m² 4,4 °C 6,7 °C 0,0 km/h (0 Bft)
03.10.2019 19:06 6,6 °C 85 % 1017,2 hPa 0,0 mm 0,0 km/h (0 Bft) W-NW 286 ° 0 min 0,000 mm 0,0 UV-I 0 W/m² 4,3 °C 6,6 °C 0,0 km/h (0 Bft)
03.10.2019 19:07 6,7 °C 86 % 1017,3 hPa 0,0 mm 0,0 km/h (0 Bft) W-NW 286 ° 0 min 0,000 mm 0,0 UV-I 0 W/m² 4,5 °C 6,7 °C 0,0 km/h (0 Bft)
03.10.2019 19:08 6,7 °C 86 % 1017,3 hPa 0,0 mm 0,0 km/h (0 Bft) W-NW 286 ° 0 min 0,000 mm 0,0 UV-I 0 W/m² 4,5 °C 6,7 °C 0,0 km/h (0 Bft)
03.10.2019 19:09 6,6 °C 86 % 1017,3 hPa 0,0 mm 0,0 km/h (0 Bft) W-NW 286 ° 0 min 0,000 mm 0,0 UV-I 0 W/m² 4,4 °C 6,6 °C 0,0 km/h (0 Bft)
03.10.2019 19:10 6,6 °C 86 % 1017,3 hPa 0,0 mm 0,0 km/h (0 Bft) W-NW 286 ° 0 min 0,000 mm 0,0 UV-I 0 W/m² 4,4 °C 6,6 °C 0,0 km/h (0 Bft)
03.10.2019 19:11 6,6 °C 86 % 1017,3 hPa 0,0 mm 0,0 km/h (0 Bft) W-NW 286 ° 0 min 0,000 mm 0,0 UV-I 0 W/m² 4,4 °C 6,6 °C 0,0 km/h (0 Bft)
03.10.2019 19:12 6,6 °C 87 % 1017,3 hPa 0,0 mm 0,0 km/h (0 Bft) W-NW 286 ° 0 min 0,000 mm 0,0 UV-I 0 W/m² 4,6 °C 6,6 °C 0,0 km/h (0 Bft)
03.10.2019 19:13 6,6 °C 87 % 1017,3 hPa 0,0 mm 0,0 km/h (0 Bft) W-NW 286 ° 0 min 0,000 mm 0,0 UV-I 0 W/m² 4,6 °C 6,6 °C 0,0 km/h (0 Bft)
03.10.2019 19:14 6,6 °C 87 % 1017,3 hPa 0,0 mm 0,0 km/h (0 Bft) W-NW 286 ° 0 min 0,000 mm 0,0 UV-I 0 W/m² 4,6 °C 6,6 °C 0,0 km/h (0 Bft)
03.10.2019 19:15 6,6 °C 87 % 1017,3 hPa 0,0 mm 0,0 km/h (0 Bft) W-NW 286 ° 0 min 0,000 mm 0,0 UV-I 0 W/m² 4,6 °C 6,6 °C 0,0 km/h (0 Bft)
03.10.2019 19:16 6,6 °C 87 % 1017,2 hPa 0,0 mm 0,0 km/h (0 Bft) W-NW 286 ° 0 min 0,000 mm 0,0 UV-I 0 W/m² 4,6 °C 6,6 °C 0,0 km/h (0 Bft)
03.10.2019 19:17 6,5 °C 87 % 1017,2 hPa 0,0 mm 0,0 km/h (0 Bft) W-NW 286 ° 0 min 0,000 mm 0,0 UV-I 0 W/m² 4,5 °C 6,5 °C 0,0 km/h (0 Bft)
03.10.2019 19:18 6,4 °C 87 % 1017,2 hPa 0,0 mm 0,0 km/h (0 Bft) W-NW 286 ° 0 min 0,000 mm 0,0 UV-I 0 W/m² 4,4 °C 6,4 °C 0,0 km/h (0 Bft)
03.10.2019 19:19 6,5 °C 87 % 1017,2 hPa 0,0 mm 0,0 km/h (0 Bft) W-NW 286 ° 0 min 0,000 mm 0,0 UV-I 0 W/m² 4,5 °C 6,5 °C 0,0 km/h (0 Bft)
03.10.2019 19:20 6,4 °C 87 % 1017,3 hPa 0,0 mm 0,0 km/h (0 Bft) W-NW 286 ° 0 min 0,000 mm 0,0 UV-I 0 W/m² 4,4 °C 6,4 °C 0,0 km/h (0 Bft)
03.10.2019 19:21 6,4 °C 87 % 1017,2 hPa 0,0 mm 0,0 km/h (0 Bft) W-NW 286 ° 0 min 0,000 mm 0,0 UV-I 0 W/m² 4,4 °C 6,4 °C 0,0 km/h (0 Bft)
03.10.2019 19:22 6,4 °C 88 % 1017,3 hPa 0,0 mm 0,0 km/h (0 Bft) W-NW 286 ° 0 min 0,000 mm 0,0 UV-I 0 W/m² 4,6 °C 6,4 °C 0,0 km/h (0 Bft)
03.10.2019 19:23 6,4 °C 88 % 1017,3 hPa 0,0 mm 0,0 km/h (0 Bft) W-NW 286 ° 0 min 0,000 mm 0,0 UV-I 0 W/m² 4,6 °C 6,4 °C 0,0 km/h (0 Bft)
03.10.2019 19:24 6,4 °C 88 % 1017,3 hPa 0,0 mm 0,0 km/h (0 Bft) W-NW 286 ° 0 min 0,000 mm 0,0 UV-I 0 W/m² 4,6 °C 6,4 °C 0,0 km/h (0 Bft)
03.10.2019 19:25 6,4 °C 88 % 1017,4 hPa 0,0 mm 0,0 km/h (0 Bft) W-NW 286 ° 0 min 0,000 mm 0,0 UV-I 0 W/m² 4,6 °C 6,4 °C 0,0 km/h (0 Bft)
03.10.2019 19:26 6,4 °C 88 % 1017,3 hPa 0,0 mm 0,0 km/h (0 Bft) W-NW 286 ° 0 min 0,000 mm 0,0 UV-I 0 W/m² 4,6 °C 6,4 °C 0,0 km/h (0 Bft)
03.10.2019 19:27 6,3 °C 88 % 1017,4 hPa 0,0 mm 0,0 km/h (0 Bft) W-NW 286 ° 0 min 0,000 mm 0,0 UV-I 0 W/m² 4,5 °C 6,3 °C 0,0 km/h (0 Bft)
03.10.2019 19:28 6,3 °C 88 % 1017,4 hPa 0,0 mm 0,0 km/h (0 Bft) W-NW 286 ° 0 min 0,000 mm 0,0 UV-I 0 W/m² 4,5 °C 6,3 °C 0,0 km/h (0 Bft)
03.10.2019 19:29 6,3 °C 88 % 1017,4 hPa 0,0 mm 0,0 km/h (0 Bft) W-NW 286 ° 0 min 0,000 mm 0,0 UV-I 0 W/m² 4,5 °C 6,3 °C 0,0 km/h (0 Bft)
03.10.2019 19:30 6,2 °C 87 % 1017,4 hPa 0,0 mm 0,0 km/h (0 Bft) W-NW 286 ° 0 min 0,000 mm 0,0 UV-I 0 W/m² 4,2 °C 6,2 °C 0,0 km/h (0 Bft)
03.10.2019 19:31 6,1 °C 87 % 1017,4 hPa 0,0 mm 0,0 km/h (0 Bft) W-NW 286 ° 0 min 0,000 mm 0,0 UV-I 0 W/m² 4,1 °C 6,1 °C 0,0 km/h (0 Bft)
03.10.2019 19:32 6,1 °C 88 % 1017,4 hPa 0,0 mm 0,0 km/h (0 Bft) W-NW 286 ° 0 min 0,000 mm 0,0 UV-I 0 W/m² 4,3 °C 6,1 °C 0,0 km/h (0 Bft)
03.10.2019 19:33 6,1 °C 88 % 1017,4 hPa 0,0 mm 0,0 km/h (0 Bft) W-NW 286 ° 0 min 0,000 mm 0,0 UV-I 0 W/m² 4,3 °C 6,1 °C 0,0 km/h (0 Bft)
03.10.2019 19:34 6,0 °C 88 % 1017,4 hPa 0,0 mm 0,0 km/h (0 Bft) W-NW 286 ° 0 min 0,000 mm 0,0 UV-I 0 W/m² 4,2 °C 6,0 °C 0,0 km/h (0 Bft)
03.10.2019 19:35 6,0 °C 88 % 1017,5 hPa 0,0 mm 0,0 km/h (0 Bft) W-NW 286 ° 0 min 0,000 mm 0,0 UV-I 0 W/m² 4,2 °C 6,0 °C 0,0 km/h (0 Bft)
03.10.2019 19:36 5,9 °C 88 % 1017,4 hPa 0,0 mm 0,0 km/h (0 Bft) W-NW 286 ° 0 min 0,000 mm 0,0 UV-I 0 W/m² 4,1 °C 5,9 °C 0,0 km/h (0 Bft)
03.10.2019 19:37 5,9 °C 88 % 1017,4 hPa 0,0 mm 0,0 km/h (0 Bft) W-NW 286 ° 0 min 0,000 mm 0,0 UV-I 0 W/m² 4,1 °C 5,9 °C 0,0 km/h (0 Bft)
03.10.2019 19:38 5,9 °C 89 % 1017,5 hPa 0,0 mm 0,0 km/h (0 Bft) W-NW 286 ° 0 min 0,000 mm 0,0 UV-I 0 W/m² 4,2 °C 5,9 °C 0,0 km/h (0 Bft)
03.10.2019 19:39 5,9 °C 89 % 1017,5 hPa 0,0 mm 0,0 km/h (0 Bft) W-NW 286 ° 0 min 0,000 mm 0,0 UV-I 0 W/m² 4,2 °C 5,9 °C 0,0 km/h (0 Bft)
03.10.2019 19:40 5,9 °C 89 % 1017,4 hPa 0,0 mm 0,0 km/h (0 Bft) W-NW 286 ° 0 min 0,000 mm 0,0 UV-I 0 W/m² 4,2 °C 5,9 °C 0,0 km/h (0 Bft)
03.10.2019 19:41 5,9 °C 89 % 1017,4 hPa 0,0 mm 0,0 km/h (0 Bft) W-NW 286 ° 0 min 0,000 mm 0,0 UV-I 0 W/m² 4,2 °C 5,9 °C 0,0 km/h (0 Bft)
03.10.2019 19:42 5,9 °C 88 % 1017,4 hPa 0,0 mm 0,0 km/h (0 Bft) W-NW 286 ° 0 min 0,000 mm 0,0 UV-I 0 W/m² 4,1 °C 5,9 °C 0,0 km/h (0 Bft)
03.10.2019 19:43 5,8 °C 88 % 1017,4 hPa 0,0 mm 0,0 km/h (0 Bft) W-NW 286 ° 0 min 0,000 mm 0,0 UV-I 0 W/m² 4,0 °C 5,8 °C 0,0 km/h (0 Bft)
03.10.2019 19:44 5,9 °C 88 % 1017,4 hPa 0,0 mm 0,0 km/h (0 Bft) W-NW 286 ° 0 min 0,000 mm 0,0 UV-I 0 W/m² 4,1 °C 5,9 °C 0,0 km/h (0 Bft)
03.10.2019 19:45 5,8 °C 88 % 1017,4 hPa 0,0 mm 0,0 km/h (0 Bft) W-NW 286 ° 0 min 0,000 mm 0,0 UV-I 0 W/m² 4,0 °C 5,8 °C 0,0 km/h (0 Bft)
03.10.2019 19:46 5,8 °C 88 % 1017,4 hPa 0,0 mm 0,0 km/h (0 Bft) W-NW 286 ° 0 min 0,000 mm 0,0 UV-I 0 W/m² 4,0 °C 5,8 °C 0,0 km/h (0 Bft)
03.10.2019 19:47 5,8 °C 88 % 1017,4 hPa 0,0 mm 0,0 km/h (0 Bft) W-NW 286 ° 0 min 0,000 mm 0,0 UV-I 0 W/m² 4,0 °C 5,8 °C 0,0 km/h (0 Bft)
03.10.2019 19:48 5,8 °C 88 % 1017,4 hPa 0,0 mm 0,0 km/h (0 Bft) W-NW 286 ° 0 min 0,000 mm 0,0 UV-I 0 W/m² 4,0 °C 5,8 °C 0,0 km/h (0 Bft)
03.10.2019 19:49 5,7 °C 88 % 1017,4 hPa 0,0 mm 0,0 km/h (0 Bft) W-NW 286 ° 0 min 0,000 mm 0,0 UV-I 0 W/m² 3,9 °C 5,7 °C 0,0 km/h (0 Bft)
03.10.2019 19:50 5,7 °C 88 % 1017,4 hPa 0,0 mm 0,0 km/h (0 Bft) W-NW 286 ° 0 min 0,000 mm 0,0 UV-I 0 W/m² 3,9 °C 5,7 °C 0,0 km/h (0 Bft)
03.10.2019 19:51 5,7 °C 88 % 1017,4 hPa 0,0 mm 0,0 km/h (0 Bft) W-NW 286 ° 0 min 0,000 mm 0,0 UV-I 0 W/m² 3,9 °C 5,7 °C 0,0 km/h (0 Bft)
03.10.2019 19:52 5,6 °C 88 % 1017,4 hPa 0,0 mm 0,0 km/h (0 Bft) W-NW 286 ° 0 min 0,000 mm 0,0 UV-I 0 W/m² 3,8 °C 5,6 °C 0,0 km/h (0 Bft)
03.10.2019 19:53 5,6 °C 88 % 1017,4 hPa 0,0 mm 0,0 km/h (0 Bft) W-NW 286 ° 0 min 0,000 mm 0,0 UV-I 0 W/m² 3,8 °C 5,6 °C 0,0 km/h (0 Bft)
03.10.2019 19:54 5,5 °C 88 % 1017,4 hPa 0,0 mm 0,0 km/h (0 Bft) W-NW 286 ° 0 min 0,000 mm 0,0 UV-I 0 W/m² 3,7 °C 5,5 °C 0,0 km/h (0 Bft)
03.10.2019 19:55 5,5 °C 88 % 1017,4 hPa 0,0 mm 0,0 km/h (0 Bft) W-NW 286 ° 0 min 0,000 mm 0,0 UV-I 0 W/m² 3,7 °C 5,5 °C 0,0 km/h (0 Bft)
03.10.2019 19:56 5,4 °C 88 % 1017,4 hPa 0,0 mm 0,0 km/h (0 Bft) W-NW 286 ° 0 min 0,000 mm 0,0 UV-I 0 W/m² 3,6 °C 5,4 °C 0,0 km/h (0 Bft)
03.10.2019 19:57 5,3 °C 88 % 1017,4 hPa 0,0 mm 0,0 km/h (0 Bft) W-NW 286 ° 0 min 0,000 mm 0,0 UV-I 0 W/m² 3,5 °C 5,3 °C 0,0 km/h (0 Bft)
03.10.2019 19:58 5,3 °C 89 % 1017,4 hPa 0,0 mm 0,0 km/h (0 Bft) W-NW 286 ° 0 min 0,000 mm 0,0 UV-I 0 W/m² 3,6 °C 5,3 °C 0,0 km/h (0 Bft)
03.10.2019 19:59 5,2 °C 89 % 1017,4 hPa 0,0 mm 0,0 km/h (0 Bft) W-NW 286 ° 0 min 0,000 mm 0,0 UV-I 0 W/m² 3,5 °C 5,2 °C 0,0 km/h (0 Bft)
03.10.2019 20:00 5,2 °C 89 % 1017,5 hPa 0,0 mm 0,0 km/h (0 Bft) W-NW 286 ° 0 min 0,000 mm 0,0 UV-I 0 W/m² 3,5 °C 5,2 °C 0,0 km/h (0 Bft)
03.10.2019 20:01 5,2 °C 89 % 1017,5 hPa 0,0 mm 0,0 km/h (0 Bft) W-NW 286 ° 0 min 0,000 mm 0,0 UV-I 0 W/m² 3,5 °C 5,2 °C 0,0 km/h (0 Bft)
03.10.2019 20:02 5,1 °C 89 % 1017,5 hPa 0,0 mm 0,0 km/h (0 Bft) W-NW 286 ° 0 min 0,000 mm 0,0 UV-I 0 W/m² 3,4 °C 5,1 °C 0,0 km/h (0 Bft)
03.10.2019 20:03 5,1 °C 89 % 1017,5 hPa 0,0 mm 0,0 km/h (0 Bft) W-NW 286 ° 0 min 0,000 mm 0,0 UV-I 0 W/m² 3,4 °C 5,1 °C 0,0 km/h (0 Bft)
03.10.2019 20:04 5,1 °C 89 % 1017,4 hPa 0,0 mm 0,0 km/h (0 Bft) W-NW 286 ° 0 min 0,000 mm 0,0 UV-I 0 W/m² 3,4 °C 5,1 °C 0,0 km/h (0 Bft)
03.10.2019 20:05 5,1 °C 90 % 1017,4 hPa 0,0 mm 0,0 km/h (0 Bft) W-NW 286 ° 0 min 0,000 mm 0,0 UV-I 0 W/m² 3,6 °C 5,1 °C 0,0 km/h (0 Bft)
03.10.2019 20:06 5,1 °C 90 % 1017,5 hPa 0,0 mm 0,0 km/h (0 Bft) W-NW 286 ° 0 min 0,000 mm 0,0 UV-I 0 W/m² 3,6 °C 5,1 °C 0,0 km/h (0 Bft)
03.10.2019 20:07 5,2 °C 90 % 1017,5 hPa 0,0 mm 0,0 km/h (0 Bft) W-NW 286 ° 0 min 0,000 mm 0,0 UV-I 0 W/m² 3,7 °C 5,2 °C 0,0 km/h (0 Bft)
03.10.2019 20:08 5,2 °C 90 % 1017,6 hPa 0,0 mm 0,0 km/h (0 Bft) W-NW 286 ° 0 min 0,000 mm 0,0 UV-I 0 W/m² 3,7 °C 5,2 °C 0,0 km/h (0 Bft)
03.10.2019 20:09 5,2 °C 90 % 1017,6 hPa 0,0 mm 0,0 km/h (0 Bft) W-NW 286 ° 0 min 0,000 mm 0,0 UV-I 0 W/m² 3,7 °C 5,2 °C 0,0 km/h (0 Bft)
03.10.2019 20:10 5,2 °C 90 % 1017,6 hPa 0,0 mm 0,0 km/h (0 Bft) W-NW 286 ° 0 min 0,000 mm 0,0 UV-I 0 W/m² 3,7 °C 5,2 °C 0,0 km/h (0 Bft)
03.10.2019 20:11 5,2 °C 90 % 1017,6 hPa 0,0 mm 0,0 km/h (0 Bft) W-NW 286 ° 0 min 0,000 mm 0,0 UV-I 0 W/m² 3,7 °C 5,2 °C 0,0 km/h (0 Bft)
03.10.2019 20:12 5,2 °C 90 % 1017,5 hPa 0,0 mm 0,0 km/h (0 Bft) W-NW 286 ° 0 min 0,000 mm 0,0 UV-I 0 W/m² 3,7 °C 5,2 °C 0,0 km/h (0 Bft)
03.10.2019 20:13 5,2 °C 90 % 1017,6 hPa 0,0 mm 0,0 km/h (0 Bft) W-NW 286 ° 0 min 0,000 mm 0,0 UV-I 0 W/m² 3,7 °C 5,2 °C 0,0 km/h (0 Bft)
03.10.2019 20:14 5,2 °C 90 % 1017,6 hPa 0,0 mm 0,0 km/h (0 Bft) W-NW 286 ° 0 min 0,000 mm 0,0 UV-I 0 W/m² 3,7 °C 5,2 °C 0,0 km/h (0 Bft)
03.10.2019 20:15 5,2 °C 90 % 1017,6 hPa 0,0 mm 0,0 km/h (0 Bft) W-NW 286 ° 0 min 0,000 mm 0,0 UV-I 0 W/m² 3,7 °C 5,2 °C 0,0 km/h (0 Bft)
03.10.2019 20:16 5,3 °C 90 % 1017,6 hPa 0,0 mm 0,0 km/h (0 Bft) W-NW 286 ° 0 min 0,000 mm 0,0 UV-I 0 W/m² 3,8 °C 5,3 °C 0,0 km/h (0 Bft)
03.10.2019 20:17 5,2 °C 90 % 1017,6 hPa 0,0 mm 0,0 km/h (0 Bft) W-NW 286 ° 0 min 0,000 mm 0,0 UV-I 0 W/m² 3,7 °C 5,2 °C 0,0 km/h (0 Bft)
03.10.2019 20:18 5,3 °C 90 % 1017,6 hPa 0,0 mm 0,0 km/h (0 Bft) W-NW 286 ° 0 min 0,000 mm 0,0 UV-I 0 W/m² 3,8 °C 5,3 °C 0,0 km/h (0 Bft)
03.10.2019 20:19 5,2 °C 90 % 1017,6 hPa 0,2 mm 0,0 km/h (0 Bft) W-NW 286 ° 0 min 0,000 mm 0,0 UV-I 0 W/m² 3,7 °C 5,2 °C 0,0 km/h (0 Bft)
03.10.2019 20:20 5,3 °C 90 % 1017,6 hPa 0,0 mm 0,0 km/h (0 Bft) W-NW 286 ° 0 min 0,000 mm 0,0 UV-I 0 W/m² 3,8 °C 5,3 °C 0,0 km/h (0 Bft)
03.10.2019 20:21 5,3 °C 90 % 1017,6 hPa 0,0 mm 0,0 km/h (0 Bft) W-NW 286 ° 0 min 0,000 mm 0,0 UV-I 0 W/m² 3,8 °C 5,3 °C 0,0 km/h (0 Bft)
03.10.2019 20:22 5,3 °C 90 % 1017,6 hPa 0,0 mm 0,0 km/h (0 Bft) W-NW 286 ° 0 min 0,000 mm 0,0 UV-I 0 W/m² 3,8 °C 5,3 °C 0,0 km/h (0 Bft)
03.10.2019 20:23 5,3 °C 90 % 1017,6 hPa 0,0 mm 0,0 km/h (0 Bft) W-NW 286 ° 0 min 0,000 mm 0,0 UV-I 0 W/m² 3,8 °C 5,3 °C 0,0 km/h (0 Bft)
03.10.2019 20:24 5,3 °C 90 % 1017,6 hPa 0,0 mm 0,0 km/h (0 Bft) W-NW 286 ° 0 min 0,000 mm 0,0 UV-I 0 W/m² 3,8 °C 5,3 °C 0,0 km/h (0 Bft)
03.10.2019 20:25 5,3 °C 90 % 1017,6 hPa 0,0 mm 0,0 km/h (0 Bft) W-NW 286 ° 0 min 0,000 mm 0,0 UV-I 0 W/m² 3,8 °C 5,3 °C 0,0 km/h (0 Bft)
03.10.2019 20:26 5,3 °C 90 % 1017,6 hPa 0,0 mm 0,0 km/h (0 Bft) W-NW 286 ° 0 min 0,000 mm 0,0 UV-I 0 W/m² 3,8 °C 5,3 °C 0,0 km/h (0 Bft)
03.10.2019 20:27 5,3 °C 90 % 1017,6 hPa 0,0 mm 0,0 km/h (0 Bft) W-NW 286 ° 0 min 0,000 mm 0,0 UV-I 0 W/m² 3,8 °C 5,3 °C 0,0 km/h (0 Bft)
03.10.2019 20:28 5,2 °C 90 % 1017,6 hPa 0,0 mm 0,0 km/h (0 Bft) W-NW 286 ° 0 min 0,000 mm 0,0 UV-I 0 W/m² 3,7 °C 5,2 °C 0,0 km/h (0 Bft)
03.10.2019 20:29 5,2 °C 90 % 1017,6 hPa 0,0 mm 0,0 km/h (0 Bft) W-NW 286 ° 0 min 0,000 mm 0,0 UV-I 0 W/m² 3,7 °C 5,2 °C 0,0 km/h (0 Bft)
03.10.2019 20:30 5,2 °C 90 % 1017,7 hPa 0,0 mm 0,0 km/h (0 Bft) W-NW 286 ° 0 min 0,000 mm 0,0 UV-I 0 W/m² 3,7 °C 5,2 °C 0,0 km/h (0 Bft)
03.10.2019 20:31 5,1 °C 90 % 1017,6 hPa 0,0 mm 0,0 km/h (0 Bft) W-NW 286 ° 0 min 0,000 mm 0,0 UV-I 0 W/m² 3,6 °C 5,1 °C 0,0 km/h (0 Bft)
03.10.2019 20:32 5,1 °C 90 % 1017,6 hPa 0,0 mm 0,0 km/h (0 Bft) W-NW 286 ° 0 min 0,000 mm 0,0 UV-I 0 W/m² 3,6 °C 5,1 °C 0,0 km/h (0 Bft)
03.10.2019 20:33 5,1 °C 90 % 1017,6 hPa 0,0 mm 0,0 km/h (0 Bft) W-NW 286 ° 0 min 0,000 mm 0,0 UV-I 0 W/m² 3,6 °C 5,1 °C 0,0 km/h (0 Bft)
03.10.2019 20:34 4,9 °C 90 % 1017,6 hPa 0,0 mm 0,0 km/h (0 Bft) W-NW 286 ° 0 min 0,000 mm 0,0 UV-I 0 W/m² 3,4 °C 4,9 °C 0,0 km/h (0 Bft)
03.10.2019 20:35 4,9 °C 90 % 1017,6 hPa 0,0 mm 0,0 km/h (0 Bft) W-NW 286 ° 0 min 0,000 mm 0,0 UV-I 0 W/m² 3,4 °C 4,9 °C 0,0 km/h (0 Bft)
03.10.2019 20:36 4,9 °C 90 % 1017,6 hPa 0,0 mm 0,0 km/h (0 Bft) W-NW 286 ° 0 min 0,000 mm 0,0 UV-I 0 W/m² 3,4 °C 4,9 °C 0,0 km/h (0 Bft)
03.10.2019 20:37 4,8 °C 90 % 1017,6 hPa 0,0 mm 0,0 km/h (0 Bft) W-NW 286 ° 0 min 0,000 mm 0,0 UV-I 0 W/m² 3,3 °C 4,8 °C 0,0 km/h (0 Bft)
03.10.2019 20:38 4,7 °C 90 % 1017,6 hPa 0,0 mm 0,0 km/h (0 Bft) W-NW 286 ° 0 min 0,000 mm 0,0 UV-I 0 W/m² 3,2 °C 4,7 °C 0,0 km/h (0 Bft)
03.10.2019 20:39 4,7 °C 90 % 1017,6 hPa 0,0 mm 0,0 km/h (0 Bft) W-NW 286 ° 0 min 0,000 mm 0,0 UV-I 0 W/m² 3,2 °C 4,7 °C 0,0 km/h (0 Bft)
03.10.2019 20:40 4,7 °C 90 % 1017,6 hPa 0,0 mm 0,0 km/h (0 Bft) W-NW 286 ° 0 min 0,000 mm 0,0 UV-I 0 W/m² 3,2 °C 4,7 °C 0,0 km/h (0 Bft)
03.10.2019 20:41 4,6 °C 90 % 1017,6 hPa 0,0 mm 0,0 km/h (0 Bft) W-NW 286 ° 0 min 0,000 mm 0,0 UV-I 0 W/m² 3,1 °C 4,6 °C 0,0 km/h (0 Bft)
03.10.2019 20:42 4,6 °C 90 % 1017,6 hPa 0,0 mm 0,0 km/h (0 Bft) W-NW 286 ° 0 min 0,000 mm 0,0 UV-I 0 W/m² 3,1 °C 4,6 °C 0,0 km/h (0 Bft)
03.10.2019 20:43 4,6 °C 90 % 1017,7 hPa 0,0 mm 0,0 km/h (0 Bft) W-NW 286 ° 0 min 0,000 mm 0,0 UV-I 0 W/m² 3,1 °C 4,6 °C 0,0 km/h (0 Bft)
03.10.2019 20:44 4,6 °C 90 % 1017,6 hPa 0,0 mm 0,0 km/h (0 Bft) W-NW 286 ° 0 min 0,000 mm 0,0 UV-I 0 W/m² 3,1 °C 4,6 °C 0,0 km/h (0 Bft)
03.10.2019 20:45 4,5 °C 90 % 1017,6 hPa 0,0 mm 0,0 km/h (0 Bft) W-NW 286 ° 0 min 0,000 mm 0,0 UV-I 0 W/m² 3,0 °C 4,5 °C 0,0 km/h (0 Bft)
03.10.2019 20:46 4,4 °C 90 % 1017,7 hPa 0,0 mm 0,0 km/h (0 Bft) W-NW 286 ° 0 min 0,000 mm 0,0 UV-I 0 W/m² 2,9 °C 4,4 °C 0,0 km/h (0 Bft)
03.10.2019 20:47 4,3 °C 90 % 1017,6 hPa 0,0 mm 0,0 km/h (0 Bft) W-NW 286 ° 0 min 0,000 mm 0,0 UV-I 0 W/m² 2,8 °C 4,3 °C 0,0 km/h (0 Bft)
03.10.2019 20:48 4,3 °C 90 % 1017,6 hPa 0,0 mm 0,0 km/h (0 Bft) W-NW 286 ° 0 min 0,000 mm 0,0 UV-I 0 W/m² 2,8 °C 4,3 °C 0,0 km/h (0 Bft)
03.10.2019 20:49 4,3 °C 90 % 1017,7 hPa 0,0 mm 0,0 km/h (0 Bft) W-NW 286 ° 0 min 0,000 mm 0,0 UV-I 0 W/m² 2,8 °C 4,3 °C 0,0 km/h (0 Bft)
03.10.2019 20:50 4,2 °C 90 % 1017,7 hPa 0,0 mm 0,0 km/h (0 Bft) W-NW 286 ° 0 min 0,000 mm 0,0 UV-I 0 W/m² 2,7 °C 4,2 °C 0,0 km/h (0 Bft)
03.10.2019 20:51 4,2 °C 91 % 1017,6 hPa 0,0 mm 0,0 km/h (0 Bft) W-NW 286 ° 0 min 0,000 mm 0,0 UV-I 0 W/m² 2,9 °C 4,2 °C 0,0 km/h (0 Bft)
03.10.2019 20:52 4,2 °C 91 % 1017,7 hPa 0,0 mm 0,0 km/h (0 Bft) W-NW 286 ° 0 min 0,000 mm 0,0 UV-I 0 W/m² 2,9 °C 4,2 °C 0,0 km/h (0 Bft)
03.10.2019 20:53 4,2 °C 91 % 1017,7 hPa 0,0 mm 0,0 km/h (0 Bft) W-NW 286 ° 0 min 0,000 mm 0,0 UV-I 0 W/m² 2,9 °C 4,2 °C 0,0 km/h (0 Bft)
03.10.2019 20:54 4,2 °C 91 % 1017,7 hPa 0,0 mm 0,0 km/h (0 Bft) W-NW 286 ° 0 min 0,000 mm 0,0 UV-I 0 W/m² 2,9 °C 4,2 °C 0,0 km/h (0 Bft)
03.10.2019 20:55 4,2 °C 91 % 1017,7 hPa 0,0 mm 0,0 km/h (0 Bft) W-NW 286 ° 0 min 0,000 mm 0,0 UV-I 0 W/m² 2,9 °C 4,2 °C 0,0 km/h (0 Bft)
03.10.2019 20:56 4,2 °C 91 % 1017,7 hPa 0,0 mm 0,0 km/h (0 Bft) W-NW 286 ° 0 min 0,000 mm 0,0 UV-I 0 W/m² 2,9 °C 4,2 °C 0,0 km/h (0 Bft)
03.10.2019 20:57 4,2 °C 91 % 1017,7 hPa 0,0 mm 0,0 km/h (0 Bft) W-NW 286 ° 0 min 0,000 mm 0,0 UV-I 0 W/m² 2,9 °C 4,2 °C 0,0 km/h (0 Bft)
03.10.2019 20:58 4,1 °C 91 % 1017,7 hPa 0,0 mm 0,0 km/h (0 Bft) W-NW 286 ° 0 min 0,000 mm 0,0 UV-I 0 W/m² 2,8 °C 4,1 °C 0,0 km/h (0 Bft)
03.10.2019 20:59 4,1 °C 91 % 1017,6 hPa 0,0 mm 0,0 km/h (0 Bft) W-NW 286 ° 0 min 0,000 mm 0,0 UV-I 0 W/m² 2,8 °C 4,1 °C 0,0 km/h (0 Bft)
03.10.2019 21:00 4,0 °C 91 % 1017,7 hPa 0,0 mm 0,0 km/h (0 Bft) W-NW 286 ° 0 min 0,000 mm 0,0 UV-I 0 W/m² 2,7 °C 4,0 °C 0,0 km/h (0 Bft)
03.10.2019 21:01 4,0 °C 91 % 1017,7 hPa 0,0 mm 0,0 km/h (0 Bft) W-NW 286 ° 0 min 0,000 mm 0,0 UV-I 0 W/m² 2,7 °C 4,0 °C 0,0 km/h (0 Bft)
03.10.2019 21:02 3,9 °C 91 % 1017,7 hPa 0,0 mm 0,0 km/h (0 Bft) W-NW 286 ° 0 min 0,000 mm 0,0 UV-I 0 W/m² 2,6 °C 3,9 °C 0,0 km/h (0 Bft)
03.10.2019 21:03 3,9 °C 91 % 1017,7 hPa 0,0 mm 0,0 km/h (0 Bft) W-NW 286 ° 0 min 0,000 mm 0,0 UV-I 0 W/m² 2,6 °C 3,9 °C 0,0 km/h (0 Bft)
03.10.2019 21:04 3,9 °C 91 % 1017,7 hPa 0,0 mm 0,0 km/h (0 Bft) W-NW 286 ° 0 min 0,000 mm 0,0 UV-I 0 W/m² 2,6 °C 3,9 °C 0,0 km/h (0 Bft)
03.10.2019 21:05 3,8 °C 91 % 1017,7 hPa 0,0 mm 0,0 km/h (0 Bft) W-NW 286 ° 0 min 0,000 mm 0,0 UV-I 0 W/m² 2,5 °C 3,8 °C 0,0 km/h (0 Bft)
03.10.2019 21:06 3,7 °C 91 % 1017,6 hPa 0,0 mm 0,0 km/h (0 Bft) W-NW 286 ° 0 min 0,000 mm 0,0 UV-I 0 W/m² 2,4 °C 3,7 °C 0,0 km/h (0 Bft)
03.10.2019 21:07 3,7 °C 91 % 1017,7 hPa 0,0 mm 0,0 km/h (0 Bft) W-NW 286 ° 0 min 0,000 mm 0,0 UV-I 0 W/m² 2,4 °C 3,7 °C 0,0 km/h (0 Bft)
03.10.2019 21:08 3,6 °C 91 % 1017,7 hPa 0,0 mm 0,0 km/h (0 Bft) W-NW 286 ° 0 min 0,000 mm 0,0 UV-I 0 W/m² 2,3 °C 3,6 °C 0,0 km/h (0 Bft)
03.10.2019 21:09 3,6 °C 91 % 1017,7 hPa 0,0 mm 0,0 km/h (0 Bft) W-NW 286 ° 0 min 0,000 mm 0,0 UV-I 0 W/m² 2,3 °C 3,6 °C 0,0 km/h (0 Bft)
03.10.2019 21:10 3,5 °C 91 % 1017,7 hPa 0,0 mm 0,0 km/h (0 Bft) W-NW 286 ° 0 min 0,000 mm 0,0 UV-I 0 W/m² 2,2 °C 3,5 °C 0,0 km/h (0 Bft)
03.10.2019 21:11 3,4 °C 91 % 1017,7 hPa 0,0 mm 0,0 km/h (0 Bft) W-NW 286 ° 0 min 0,000 mm 0,0 UV-I 0 W/m² 2,1 °C 3,4 °C 0,0 km/h (0 Bft)
03.10.2019 21:12 3,4 °C 91 % 1017,8 hPa 0,0 mm 0,0 km/h (0 Bft) W-NW 286 ° 0 min 0,000 mm 0,0 UV-I 0 W/m² 2,1 °C 3,4 °C 0,0 km/h (0 Bft)
03.10.2019 21:13 3,4 °C 92 % 1017,8 hPa 0,0 mm 0,0 km/h (0 Bft) W-NW 286 ° 0 min 0,000 mm 0,0 UV-I 0 W/m² 2,2 °C 3,4 °C 0,0 km/h (0 Bft)
03.10.2019 21:14 3,4 °C 92 % 1017,8 hPa 0,0 mm 0,0 km/h (0 Bft) W-NW 286 ° 0 min 0,000 mm 0,0 UV-I 0 W/m² 2,2 °C 3,4 °C 0,0 km/h (0 Bft)
03.10.2019 21:15 3,4 °C 92 % 1017,8 hPa 0,0 mm 0,0 km/h (0 Bft) W-NW 286 ° 0 min 0,000 mm 0,0 UV-I 0 W/m² 2,2 °C 3,4 °C 0,0 km/h (0 Bft)
03.10.2019 21:16 3,4 °C 92 % 1017,8 hPa 0,0 mm 0,0 km/h (0 Bft) W-NW 286 ° 0 min 0,000 mm 0,0 UV-I 0 W/m² 2,2 °C 3,4 °C 0,0 km/h (0 Bft)
03.10.2019 21:17 3,3 °C 92 % 1017,8 hPa 0,0 mm 0,0 km/h (0 Bft) W-NW 286 ° 0 min 0,000 mm 0,0 UV-I 0 W/m² 2,1 °C 3,3 °C 0,0 km/h (0 Bft)
03.10.2019 21:18 3,3 °C 91 % 1017,8 hPa 0,0 mm 0,0 km/h (0 Bft) W-NW 286 ° 0 min 0,000 mm 0,0 UV-I 0 W/m² 2,0 °C 3,3 °C 0,0 km/h (0 Bft)
03.10.2019 21:19 3,3 °C 92 % 1017,9 hPa 0,0 mm 0,0 km/h (0 Bft) W-NW 286 ° 0 min 0,000 mm 0,0 UV-I 0 W/m² 2,1 °C 3,3 °C 0,0 km/h (0 Bft)
03.10.2019 21:20 3,3 °C 92 % 1017,9 hPa 0,0 mm 0,0 km/h (0 Bft) W-NW 286 ° 0 min 0,000 mm 0,0 UV-I 0 W/m² 2,1 °C 3,3 °C 0,0 km/h (0 Bft)
03.10.2019 21:21 3,4 °C 92 % 1017,9 hPa 0,0 mm 0,0 km/h (0 Bft) W-NW 286 ° 0 min 0,000 mm 0,0 UV-I 0 W/m² 2,2 °C 3,4 °C 0,0 km/h (0 Bft)
03.10.2019 21:22 3,4 °C 92 % 1017,9 hPa 0,0 mm 0,0 km/h (0 Bft) W-NW 286 ° 0 min 0,000 mm 0,0 UV-I 0 W/m² 2,2 °C 3,4 °C 0,0 km/h (0 Bft)
03.10.2019 21:23 3,5 °C 92 % 1018,0 hPa 0,0 mm 0,0 km/h (0 Bft) W-NW 286 ° 0 min 0,000 mm 0,0 UV-I 0 W/m² 2,3 °C 3,5 °C 0,0 km/h (0 Bft)
03.10.2019 21:24 3,6 °C 92 % 1018,0 hPa 0,0 mm 0,0 km/h (0 Bft) W-NW 286 ° 0 min 0,000 mm 0,0 UV-I 0 W/m² 2,4 °C 3,6 °C 0,0 km/h (0 Bft)
03.10.2019 21:25 3,6 °C 92 % 1018,0 hPa 0,0 mm 0,0 km/h (0 Bft) W-NW 286 ° 0 min 0,000 mm 0,0 UV-I 0 W/m² 2,4 °C 3,6 °C 0,0 km/h (0 Bft)
03.10.2019 21:26 3,6 °C 92 % 1018,0 hPa 0,0 mm 0,0 km/h (0 Bft) W-NW 286 ° 0 min 0,000 mm 0,0 UV-I 0 W/m² 2,4 °C 3,6 °C 0,0 km/h (0 Bft)
03.10.2019 21:27 3,4 °C 92 % 1018,0 hPa 0,0 mm 0,0 km/h (0 Bft) W-NW 286 ° 0 min 0,000 mm 0,0 UV-I 0 W/m² 2,2 °C 3,4 °C 0,0 km/h (0 Bft)
03.10.2019 21:28 3,3 °C 92 % 1018,0 hPa 0,0 mm 0,0 km/h (0 Bft) W-NW 286 ° 0 min 0,000 mm 0,0 UV-I 0 W/m² 2,1 °C 3,3 °C 0,0 km/h (0 Bft)
03.10.2019 21:29 3,3 °C 92 % 1018,0 hPa 0,0 mm 0,0 km/h (0 Bft) W-NW 286 ° 0 min 0,000 mm 0,0 UV-I 0 W/m² 2,1 °C 3,3 °C 0,0 km/h (0 Bft)
03.10.2019 21:30 3,3 °C 92 % 1018,0 hPa 0,0 mm 0,0 km/h (0 Bft) W-NW 286 ° 0 min 0,000 mm 0,0 UV-I 0 W/m² 2,1 °C 3,3 °C 0,0 km/h (0 Bft)
03.10.2019 21:31 3,3 °C 92 % 1018,0 hPa 0,0 mm 0,0 km/h (0 Bft) W-NW 286 ° 0 min 0,000 mm 0,0 UV-I 0 W/m² 2,1 °C 3,3 °C 0,0 km/h (0 Bft)
03.10.2019 21:32 3,3 °C 93 % 1018,0 hPa 0,0 mm 0,0 km/h (0 Bft) W-NW 286 ° 0 min 0,000 mm 0,0 UV-I 0 W/m² 2,3 °C 3,3 °C 0,0 km/h (0 Bft)
03.10.2019 21:33 3,4 °C 93 % 1018,0 hPa 0,0 mm 0,0 km/h (0 Bft) W-NW 286 ° 0 min 0,000 mm 0,0 UV-I 0 W/m² 2,4 °C 3,4 °C 0,0 km/h (0 Bft)
03.10.2019 21:34 3,4 °C 93 % 1018,0 hPa 0,0 mm 0,0 km/h (0 Bft) W-NW 286 ° 0 min 0,000 mm 0,0 UV-I 0 W/m² 2,4 °C 3,4 °C 0,0 km/h (0 Bft)
03.10.2019 21:35 3,5 °C 93 % 1018,0 hPa 0,0 mm 0,0 km/h (0 Bft) W-NW 286 ° 0 min 0,000 mm 0,0 UV-I 0 W/m² 2,5 °C 3,5 °C 0,0 km/h (0 Bft)
03.10.2019 21:36 3,5 °C 93 % 1018,0 hPa 0,0 mm 0,0 km/h (0 Bft) W-NW 286 ° 0 min 0,000 mm 0,0 UV-I 0 W/m² 2,5 °C 3,5 °C 0,0 km/h (0 Bft)
03.10.2019 21:37 3,6 °C 93 % 1018,0 hPa 0,0 mm 0,0 km/h (0 Bft) W-NW 286 ° 0 min 0,000 mm 0,0 UV-I 0 W/m² 2,6 °C 3,6 °C 0,0 km/h (0 Bft)
03.10.2019 21:38 3,6 °C 93 % 1018,0 hPa 0,0 mm 0,0 km/h (0 Bft) W-NW 286 ° 0 min 0,000 mm 0,0 UV-I 0 W/m² 2,6 °C 3,6 °C 0,0 km/h (0 Bft)
03.10.2019 21:39 3,6 °C 93 % 1018,0 hPa 0,0 mm 0,0 km/h (0 Bft) W-NW 286 ° 0 min 0,000 mm 0,0 UV-I 0 W/m² 2,6 °C 3,6 °C 0,0 km/h (0 Bft)
03.10.2019 21:40 3,6 °C 92 % 1018,1 hPa 0,0 mm 0,0 km/h (0 Bft) W-NW 286 ° 0 min 0,000 mm 0,0 UV-I 0 W/m² 2,4 °C 3,6 °C 0,0 km/h (0 Bft)
03.10.2019 21:41 3,6 °C 92 % 1018,0 hPa 0,0 mm 0,0 km/h (0 Bft) W-NW 286 ° 0 min 0,000 mm 0,0 UV-I 0 W/m² 2,4 °C 3,6 °C 0,0 km/h (0 Bft)
03.10.2019 21:42 3,5 °C 92 % 1018,0 hPa 0,0 mm 0,0 km/h (0 Bft) W-NW 286 ° 0 min 0,000 mm 0,0 UV-I 0 W/m² 2,3 °C 3,5 °C 0,0 km/h (0 Bft)
03.10.2019 21:43 3,5 °C 92 % 1018,0 hPa 0,0 mm 0,0 km/h (0 Bft) W-NW 286 ° 0 min 0,000 mm 0,0 UV-I 0 W/m² 2,3 °C 3,5 °C 0,0 km/h (0 Bft)
03.10.2019 21:44 3,5 °C 93 % 1018,0 hPa 0,0 mm 0,0 km/h (0 Bft) W-NW 286 ° 0 min 0,000 mm 0,0 UV-I 0 W/m² 2,5 °C 3,5 °C 0,0 km/h (0 Bft)
03.10.2019 21:45 3,5 °C 93 % 1018,0 hPa 0,0 mm 0,0 km/h (0 Bft) W-NW 286 ° 0 min 0,000 mm 0,0 UV-I 0 W/m² 2,5 °C 3,5 °C 0,0 km/h (0 Bft)
03.10.2019 21:46 3,5 °C 93 % 1017,9 hPa 0,0 mm 0,0 km/h (0 Bft) W-NW 286 ° 0 min 0,000 mm 0,0 UV-I 0 W/m² 2,5 °C 3,5 °C 0,0 km/h (0 Bft)
03.10.2019 21:47 3,6 °C 93 % 1017,9 hPa 0,0 mm 0,0 km/h (0 Bft) W-NW 286 ° 0 min 0,000 mm 0,0 UV-I 0 W/m² 2,6 °C 3,6 °C 0,0 km/h (0 Bft)
03.10.2019 21:48 3,6 °C 93 % 1017,9 hPa 0,0 mm 0,0 km/h (0 Bft) W-NW 286 ° 0 min 0,000 mm 0,0 UV-I 0 W/m² 2,6 °C 3,6 °C 0,0 km/h (0 Bft)
03.10.2019 21:49 3,6 °C 93 % 1018,0 hPa 0,0 mm 0,0 km/h (0 Bft) W-NW 286 ° 0 min 0,000 mm 0,0 UV-I 0 W/m² 2,6 °C 3,6 °C 0,0 km/h (0 Bft)
03.10.2019 21:50 3,5 °C 93 % 1018,0 hPa 0,0 mm 0,0 km/h (0 Bft) W-NW 286 ° 0 min 0,000 mm 0,0 UV-I 0 W/m² 2,5 °C 3,5 °C 0,0 km/h (0 Bft)
03.10.2019 21:51 3,5 °C 93 % 1017,9 hPa 0,0 mm 0,0 km/h (0 Bft) W-NW 286 ° 0 min 0,000 mm 0,0 UV-I 0 W/m² 2,5 °C 3,5 °C 0,0 km/h (0 Bft)
03.10.2019 21:52 3,6 °C 93 % 1018,0 hPa 0,0 mm 0,0 km/h (0 Bft) W-NW 286 ° 0 min 0,000 mm 0,0 UV-I 0 W/m² 2,6 °C 3,6 °C 0,0 km/h (0 Bft)
03.10.2019 21:53 3,5 °C 93 % 1018,0 hPa 0,0 mm 0,0 km/h (0 Bft) W-NW 286 ° 0 min 0,000 mm 0,0 UV-I 0 W/m² 2,5 °C 3,5 °C 0,0 km/h (0 Bft)
03.10.2019 21:54 3,6 °C 93 % 1017,9 hPa 0,0 mm 0,0 km/h (0 Bft) W-NW 286 ° 0 min 0,000 mm 0,0 UV-I 0 W/m² 2,6 °C 3,6 °C 0,0 km/h (0 Bft)
03.10.2019 21:55 3,6 °C 93 % 1018,0 hPa 0,0 mm 0,0 km/h (0 Bft) W-NW 286 ° 0 min 0,000 mm 0,0 UV-I 0 W/m² 2,6 °C 3,6 °C 0,0 km/h (0 Bft)
03.10.2019 21:56 3,6 °C 93 % 1018,0 hPa 0,0 mm 0,0 km/h (0 Bft) W-NW 286 ° 0 min 0,000 mm 0,0 UV-I 0 W/m² 2,6 °C 3,6 °C 0,0 km/h (0 Bft)
03.10.2019 21:57 3,6 °C 93 % 1018,0 hPa 0,0 mm 0,0 km/h (0 Bft) W-NW 286 ° 0 min 0,000 mm 0,0 UV-I 0 W/m² 2,6 °C 3,6 °C 0,0 km/h (0 Bft)
03.10.2019 21:58 3,6 °C 93 % 1018,1 hPa 0,0 mm 0,0 km/h (0 Bft) W-NW 286 ° 0 min 0,000 mm 0,0 UV-I 0 W/m² 2,6 °C 3,6 °C 0,0 km/h (0 Bft)
03.10.2019 21:59 3,5 °C 93 % 1018,1 hPa 0,0 mm 0,0 km/h (0 Bft) W-NW 286 ° 0 min 0,000 mm 0,0 UV-I 0 W/m² 2,5 °C 3,5 °C 0,0 km/h (0 Bft)
03.10.2019 22:00 3,5 °C 93 % 1018,0 hPa 0,0 mm 0,0 km/h (0 Bft) W-NW 286 ° 0 min 0,000 mm 0,0 UV-I 0 W/m² 2,5 °C 3,5 °C 0,0 km/h (0 Bft)
03.10.2019 22:01 3,4 °C 93 % 1018,1 hPa 0,0 mm 0,0 km/h (0 Bft) W-NW 286 ° 0 min 0,000 mm 0,0 UV-I 0 W/m² 2,4 °C 3,4 °C 0,0 km/h (0 Bft)
03.10.2019 22:02 3,3 °C 93 % 1018,0 hPa 0,0 mm 0,0 km/h (0 Bft) W-NW 286 ° 0 min 0,000 mm 0,0 UV-I 0 W/m² 2,3 °C 3,3 °C 0,0 km/h (0 Bft)
03.10.2019 22:03 3,2 °C 92 % 1018,0 hPa 0,0 mm 0,0 km/h (0 Bft) W-NW 286 ° 0 min 0,000 mm 0,0 UV-I 0 W/m² 2,0 °C 3,2 °C 0,0 km/h (0 Bft)
03.10.2019 22:04 3,2 °C 92 % 1018,1 hPa 0,0 mm 0,0 km/h (0 Bft) W-NW 286 ° 0 min 0,000 mm 0,0 UV-I 0 W/m² 2,0 °C 3,2 °C 0,0 km/h (0 Bft)
03.10.2019 22:05 3,2 °C 93 % 1018,0 hPa 0,0 mm 0,0 km/h (0 Bft) W-NW 286 ° 0 min 0,000 mm 0,0 UV-I 0 W/m² 2,2 °C 3,2 °C 0,0 km/h (0 Bft)
03.10.2019 22:06 3,2 °C 93 % 1018,1 hPa 0,0 mm 0,0 km/h (0 Bft) W-NW 286 ° 0 min 0,000 mm 0,0 UV-I 0 W/m² 2,2 °C 3,2 °C 0,0 km/h (0 Bft)
03.10.2019 22:07 3,2 °C 93 % 1018,1 hPa 0,0 mm 0,0 km/h (0 Bft) W-NW 286 ° 0 min 0,000 mm 0,0 UV-I 0 W/m² 2,2 °C 3,2 °C 0,0 km/h (0 Bft)
03.10.2019 22:08 3,2 °C 93 % 1018,0 hPa 0,0 mm 0,0 km/h (0 Bft) W-NW 286 ° 0 min 0,000 mm 0,0 UV-I 0 W/m² 2,2 °C 3,2 °C 0,0 km/h (0 Bft)
03.10.2019 22:09 3,2 °C 93 % 1018,0 hPa 0,0 mm 0,0 km/h (0 Bft) W-NW 286 ° 0 min 0,000 mm 0,0 UV-I 0 W/m² 2,2 °C 3,2 °C 0,0 km/h (0 Bft)
03.10.2019 22:10 3,3 °C 93 % 1018,0 hPa 0,0 mm 0,0 km/h (0 Bft) W-NW 286 ° 0 min 0,000 mm 0,0 UV-I 0 W/m² 2,3 °C 3,3 °C 0,0 km/h (0 Bft)
03.10.2019 22:11 3,3 °C 93 % 1018,0 hPa 0,0 mm 0,0 km/h (0 Bft) W-NW 286 ° 0 min 0,000 mm 0,0 UV-I 0 W/m² 2,3 °C 3,3 °C 0,0 km/h (0 Bft)
03.10.2019 22:12 3,3 °C 93 % 1018,0 hPa 0,0 mm 0,0 km/h (0 Bft) W-NW 286 ° 0 min 0,000 mm 0,0 UV-I 0 W/m² 2,3 °C 3,3 °C 0,0 km/h (0 Bft)
03.10.2019 22:13 3,3 °C 93 % 1018,0 hPa 0,0 mm 0,0 km/h (0 Bft) W-NW 286 ° 0 min 0,000 mm 0,0 UV-I 0 W/m² 2,3 °C 3,3 °C 0,0 km/h (0 Bft)
03.10.2019 22:14 3,3 °C 93 % 1018,0 hPa 0,0 mm 0,0 km/h (0 Bft) W-NW 286 ° 0 min 0,000 mm 0,0 UV-I 0 W/m² 2,3 °C 3,3 °C 0,0 km/h (0 Bft)
03.10.2019 22:15 3,3 °C 93 % 1017,9 hPa 0,0 mm 0,0 km/h (0 Bft) W-NW 286 ° 0 min 0,000 mm 0,0 UV-I 0 W/m² 2,3 °C 3,3 °C 0,0 km/h (0 Bft)
03.10.2019 22:16 3,3 °C 93 % 1017,9 hPa 0,0 mm 0,0 km/h (0 Bft) W-NW 286 ° 0 min 0,000 mm 0,0 UV-I 0 W/m² 2,3 °C 3,3 °C 0,0 km/h (0 Bft)
03.10.2019 22:17 3,3 °C 93 % 1017,9 hPa 0,0 mm 0,0 km/h (0 Bft) W-NW 286 ° 0 min 0,000 mm 0,0 UV-I 0 W/m² 2,3 °C 3,3 °C 0,0 km/h (0 Bft)
03.10.2019 22:18 3,3 °C 93 % 1017,9 hPa 0,0 mm 0,0 km/h (0 Bft) W-NW 286 ° 0 min 0,000 mm 0,0 UV-I 0 W/m² 2,3 °C 3,3 °C 0,0 km/h (0 Bft)
03.10.2019 22:19 3,2 °C 93 % 1017,9 hPa 0,0 mm 0,0 km/h (0 Bft) W-NW 286 ° 0 min 0,000 mm 0,0 UV-I 0 W/m² 2,2 °C 3,2 °C 0,0 km/h (0 Bft)
03.10.2019 22:20 3,1 °C 93 % 1017,9 hPa 0,0 mm 0,0 km/h (0 Bft) W-NW 286 ° 0 min 0,000 mm 0,0 UV-I 0 W/m² 2,1 °C 3,1 °C 0,0 km/h (0 Bft)
03.10.2019 22:21 3,0 °C 93 % 1017,9 hPa 0,0 mm 0,0 km/h (0 Bft) W-NW 286 ° 0 min 0,000 mm 0,0 UV-I 0 W/m² 2,0 °C 3,0 °C 0,0 km/h (0 Bft)
03.10.2019 22:22 2,9 °C 93 % 1017,9 hPa 0,0 mm 0,0 km/h (0 Bft) W-NW 286 ° 0 min 0,000 mm 0,0 UV-I 0 W/m² 1,9 °C 2,9 °C 0,0 km/h (0 Bft)
03.10.2019 22:23 2,8 °C 93 % 1017,9 hPa 0,0 mm 0,0 km/h (0 Bft) W-NW 286 ° 0 min 0,000 mm 0,0 UV-I 0 W/m² 1,8 °C 2,8 °C 0,0 km/h (0 Bft)
03.10.2019 22:24 2,8 °C 93 % 1017,9 hPa 0,0 mm 0,0 km/h (0 Bft) W-NW 286 ° 0 min 0,000 mm 0,0 UV-I 0 W/m² 1,8 °C 2,8 °C 0,0 km/h (0 Bft)
03.10.2019 22:25 2,7 °C 93 % 1017,9 hPa 0,0 mm 0,0 km/h (0 Bft) W-NW 286 ° 0 min 0,000 mm 0,0 UV-I 0 W/m² 1,7 °C 2,7 °C 0,0 km/h (0 Bft)
03.10.2019 22:26 2,7 °C 93 % 1017,9 hPa 0,0 mm 0,0 km/h (0 Bft) W-NW 286 ° 0 min 0,000 mm 0,0 UV-I 0 W/m² 1,7 °C 2,7 °C 0,0 km/h (0 Bft)
03.10.2019 22:27 2,6 °C 93 % 1017,9 hPa 0,0 mm 0,0 km/h (0 Bft) W-NW 286 ° 0 min 0,000 mm 0,0 UV-I 0 W/m² 1,6 °C 2,6 °C 0,0 km/h (0 Bft)
03.10.2019 22:28 2,6 °C 92 % 1017,8 hPa 0,0 mm 0,0 km/h (0 Bft) W-NW 286 ° 0 min 0,000 mm 0,0 UV-I 0 W/m² 1,4 °C 2,6 °C 0,0 km/h (0 Bft)
03.10.2019 22:29 2,4 °C 92 % 1017,8 hPa 0,0 mm 0,0 km/h (0 Bft) W-NW 286 ° 0 min 0,000 mm 0,0 UV-I 0 W/m² 1,2 °C 2,4 °C 0,0 km/h (0 Bft)
03.10.2019 22:30 2,4 °C 93 % 1017,8 hPa 0,0 mm 0,0 km/h (0 Bft) W-NW 286 ° 0 min 0,000 mm 0,0 UV-I 0 W/m² 1,4 °C 2,4 °C 0,0 km/h (0 Bft)
03.10.2019 22:31 2,4 °C 93 % 1017,8 hPa 0,0 mm 0,0 km/h (0 Bft) W-NW 286 ° 0 min 0,000 mm 0,0 UV-I 0 W/m² 1,4 °C 2,4 °C 0,0 km/h (0 Bft)
03.10.2019 22:32 2,4 °C 93 % 1017,8 hPa 0,0 mm 0,0 km/h (0 Bft) W-NW 286 ° 0 min 0,000 mm 0,0 UV-I 0 W/m² 1,4 °C 2,4 °C 0,0 km/h (0 Bft)
03.10.2019 22:33 2,6 °C 93 % 1017,9 hPa 0,0 mm 0,0 km/h (0 Bft) W-NW 286 ° 0 min 0,000 mm 0,0 UV-I 0 W/m² 1,6 °C 2,6 °C 0,0 km/h (0 Bft)
03.10.2019 22:34 2,6 °C 93 % 1017,9 hPa 0,0 mm 0,0 km/h (0 Bft) W-NW 286 ° 0 min 0,000 mm 0,0 UV-I 0 W/m² 1,6 °C 2,6 °C 0,0 km/h (0 Bft)
03.10.2019 22:35 2,6 °C 93 % 1017,9 hPa 0,0 mm 0,0 km/h (0 Bft) W-NW 286 ° 0 min 0,000 mm 0,0 UV-I 0 W/m² 1,6 °C 2,6 °C 0,0 km/h (0 Bft)
03.10.2019 22:36 2,6 °C 93 % 1017,9 hPa 0,0 mm 0,0 km/h (0 Bft) W-NW 286 ° 0 min 0,000 mm 0,0 UV-I 0 W/m² 1,6 °C 2,6 °C 0,0 km/h (0 Bft)
03.10.2019 22:37 2,6 °C 93 % 1017,9 hPa 0,0 mm 0,0 km/h (0 Bft) W-NW 286 ° 0 min 0,000 mm 0,0 UV-I 0 W/m² 1,6 °C 2,6 °C 0,0 km/h (0 Bft)
03.10.2019 22:38 2,6 °C 93 % 1017,8 hPa 0,0 mm 0,0 km/h (0 Bft) W-NW 286 ° 0 min 0,000 mm 0,0 UV-I 0 W/m² 1,6 °C 2,6 °C 0,0 km/h (0 Bft)
03.10.2019 22:39 2,6 °C 93 % 1017,7 hPa 0,0 mm 0,0 km/h (0 Bft) W-NW 286 ° 0 min 0,000 mm 0,0 UV-I 0 W/m² 1,6 °C 2,6 °C 0,0 km/h (0 Bft)
03.10.2019 22:40 2,7 °C 93 % 1017,8 hPa 0,0 mm 0,0 km/h (0 Bft) W-NW 286 ° 0 min 0,000 mm 0,0 UV-I 0 W/m² 1,7 °C 2,7 °C 0,0 km/h (0 Bft)
03.10.2019 22:41 2,7 °C 93 % 1017,8 hPa 0,0 mm 0,0 km/h (0 Bft) W-NW 286 ° 0 min 0,000 mm 0,0 UV-I 0 W/m² 1,7 °C 2,7 °C 0,0 km/h (0 Bft)
03.10.2019 22:42 2,7 °C 93 % 1017,8 hPa 0,0 mm 0,0 km/h (0 Bft) W-NW 286 ° 0 min 0,000 mm 0,0 UV-I 0 W/m² 1,7 °C 2,7 °C 0,0 km/h (0 Bft)
03.10.2019 22:43 2,7 °C 93 % 1017,8 hPa 0,0 mm 0,0 km/h (0 Bft) W-NW 286 ° 0 min 0,000 mm 0,0 UV-I 0 W/m² 1,7 °C 2,7 °C 0,0 km/h (0 Bft)
03.10.2019 22:44 2,7 °C 93 % 1017,8 hPa 0,0 mm 0,0 km/h (0 Bft) W-NW 286 ° 0 min 0,000 mm 0,0 UV-I 0 W/m² 1,7 °C 2,7 °C 0,0 km/h (0 Bft)
03.10.2019 22:45 2,7 °C 93 % 1017,8 hPa 0,0 mm 0,0 km/h (0 Bft) W-NW 286 ° 0 min 0,000 mm 0,0 UV-I 0 W/m² 1,7 °C 2,7 °C 0,0 km/h (0 Bft)
03.10.2019 22:46 2,6 °C 93 % 1017,8 hPa 0,0 mm 0,0 km/h (0 Bft) W-NW 286 ° 0 min 0,000 mm 0,0 UV-I 0 W/m² 1,6 °C 2,6 °C 0,0 km/h (0 Bft)
03.10.2019 22:47 2,6 °C 93 % 1017,8 hPa 0,0 mm 0,0 km/h (0 Bft) W-NW 286 ° 0 min 0,000 mm 0,0 UV-I 0 W/m² 1,6 °C 2,6 °C 0,0 km/h (0 Bft)
03.10.2019 22:48 2,6 °C 93 % 1017,8 hPa 0,0 mm 0,0 km/h (0 Bft) W-NW 286 ° 0 min 0,000 mm 0,0 UV-I 0 W/m² 1,6 °C 2,6 °C 0,0 km/h (0 Bft)
03.10.2019 22:49 2,6 °C 93 % 1017,8 hPa 0,0 mm 0,0 km/h (0 Bft) W-NW 286 ° 0 min 0,000 mm 0,0 UV-I 0 W/m² 1,6 °C 2,6 °C 0,0 km/h (0 Bft)
03.10.2019 22:50 2,6 °C 93 % 1017,8 hPa 0,0 mm 0,0 km/h (0 Bft) W-NW 286 ° 0 min 0,000 mm 0,0 UV-I 0 W/m² 1,6 °C 2,6 °C 0,0 km/h (0 Bft)
03.10.2019 22:51 2,6 °C 93 % 1017,8 hPa 0,0 mm 0,0 km/h (0 Bft) W-NW 286 ° 0 min 0,000 mm 0,0 UV-I 0 W/m² 1,6 °C 2,6 °C 0,0 km/h (0 Bft)
03.10.2019 22:52 2,6 °C 93 % 1017,7 hPa 0,0 mm 0,0 km/h (0 Bft) W-NW 286 ° 0 min 0,000 mm 0,0 UV-I 0 W/m² 1,6 °C 2,6 °C 0,0 km/h (0 Bft)
03.10.2019 22:53 2,6 °C 93 % 1017,7 hPa 0,0 mm 0,0 km/h (0 Bft) W-NW 286 ° 0 min 0,000 mm 0,0 UV-I 0 W/m² 1,6 °C 2,6 °C 0,0 km/h (0 Bft)
03.10.2019 22:54 2,6 °C 94 % 1017,8 hPa 0,0 mm 0,0 km/h (0 Bft) W-NW 286 ° 0 min 0,000 mm 0,0 UV-I 0 W/m² 1,7 °C 2,6 °C 0,0 km/h (0 Bft)
03.10.2019 22:55 2,5 °C 94 % 1017,7 hPa 0,0 mm 0,0 km/h (0 Bft) W-NW 286 ° 0 min 0,000 mm 0,0 UV-I 0 W/m² 1,6 °C 2,5 °C 0,0 km/h (0 Bft)
03.10.2019 22:56 2,4 °C 93 % 1017,7 hPa 0,0 mm 0,0 km/h (0 Bft) W-NW 286 ° 0 min 0,000 mm 0,0 UV-I 0 W/m² 1,4 °C 2,4 °C 0,0 km/h (0 Bft)
03.10.2019 22:57 2,4 °C 93 % 1017,8 hPa 0,0 mm 0,0 km/h (0 Bft) W-NW 286 ° 0 min 0,000 mm 0,0 UV-I 0 W/m² 1,4 °C 2,4 °C 0,0 km/h (0 Bft)
03.10.2019 22:58 2,4 °C 93 % 1017,7 hPa 0,0 mm 0,0 km/h (0 Bft) W-NW 286 ° 0 min 0,000 mm 0,0 UV-I 0 W/m² 1,4 °C 2,4 °C 0,0 km/h (0 Bft)
03.10.2019 22:59 2,3 °C 93 % 1017,8 hPa 0,0 mm 0,0 km/h (0 Bft) W-NW 286 ° 0 min 0,000 mm 0,0 UV-I 0 W/m² 1,3 °C 2,3 °C 0,0 km/h (0 Bft)
03.10.2019 23:00 2,4 °C 93 % 1017,8 hPa 0,0 mm 0,0 km/h (0 Bft) W-NW 286 ° 0 min 0,000 mm 0,0 UV-I 0 W/m² 1,4 °C 2,4 °C 0,0 km/h (0 Bft)
03.10.2019 23:01 2,3 °C 93 % 1017,8 hPa 0,0 mm 0,0 km/h (0 Bft) W-NW 286 ° 0 min 0,000 mm 0,0 UV-I 0 W/m² 1,3 °C 2,3 °C 0,0 km/h (0 Bft)
03.10.2019 23:02 2,3 °C 93 % 1017,8 hPa 0,0 mm 0,0 km/h (0 Bft) W-NW 286 ° 0 min 0,000 mm 0,0 UV-I 0 W/m² 1,3 °C 2,3 °C 0,0 km/h (0 Bft)
03.10.2019 23:03 2,4 °C 94 % 1017,8 hPa 0,0 mm 0,0 km/h (0 Bft) W-NW 286 ° 0 min 0,000 mm 0,0 UV-I 0 W/m² 1,5 °C 2,4 °C 0,0 km/h (0 Bft)
03.10.2019 23:04 2,5 °C 94 % 1017,9 hPa 0,0 mm 0,0 km/h (0 Bft) W-NW 286 ° 0 min 0,000 mm 0,0 UV-I 0 W/m² 1,6 °C 2,5 °C 0,0 km/h (0 Bft)
03.10.2019 23:05 2,6 °C 94 % 1017,8 hPa 0,0 mm 0,0 km/h (0 Bft) W-NW 286 ° 0 min 0,000 mm 0,0 UV-I 0 W/m² 1,7 °C 2,6 °C 0,0 km/h (0 Bft)
03.10.2019 23:06 2,6 °C 94 % 1017,8 hPa 0,0 mm 0,0 km/h (0 Bft) W-NW 286 ° 0 min 0,000 mm 0,0 UV-I 0 W/m² 1,7 °C 2,6 °C 0,0 km/h (0 Bft)
03.10.2019 23:07 2,7 °C 94 % 1017,8 hPa 0,0 mm 0,0 km/h (0 Bft) W-NW 286 ° 0 min 0,000 mm 0,0 UV-I 0 W/m² 1,8 °C 2,7 °C 0,0 km/h (0 Bft)
03.10.2019 23:08 2,7 °C 94 % 1017,7 hPa 0,0 mm 0,0 km/h (0 Bft) W-NW 286 ° 0 min 0,000 mm 0,0 UV-I 0 W/m² 1,8 °C 2,7 °C 0,0 km/h (0 Bft)
03.10.2019 23:09 2,7 °C 94 % 1017,7 hPa 0,0 mm 0,0 km/h (0 Bft) W-NW 286 ° 0 min 0,000 mm 0,0 UV-I 0 W/m² 1,8 °C 2,7 °C 0,0 km/h (0 Bft)
03.10.2019 23:10 2,7 °C 94 % 1017,7 hPa 0,0 mm 0,0 km/h (0 Bft) W-NW 286 ° 0 min 0,000 mm 0,0 UV-I 0 W/m² 1,8 °C 2,7 °C 0,0 km/h (0 Bft)
03.10.2019 23:11 2,7 °C 94 % 1017,8 hPa 0,0 mm 0,0 km/h (0 Bft) W-NW 286 ° 0 min 0,000 mm 0,0 UV-I 0 W/m² 1,8 °C 2,7 °C 0,0 km/h (0 Bft)
03.10.2019 23:12 2,7 °C 94 % 1017,8 hPa 0,0 mm 0,0 km/h (0 Bft) W-NW 286 ° 0 min 0,000 mm 0,0 UV-I 0 W/m² 1,8 °C 2,7 °C 0,0 km/h (0 Bft)
03.10.2019 23:13 2,6 °C 94 % 1017,8 hPa 0,0 mm 0,0 km/h (0 Bft) W-NW 286 ° 0 min 0,000 mm 0,0 UV-I 0 W/m² 1,7 °C 2,6 °C 0,0 km/h (0 Bft)
03.10.2019 23:14 2,5 °C 94 % 1017,8 hPa 0,0 mm 0,0 km/h (0 Bft) W-NW 286 ° 0 min 0,000 mm 0,0 UV-I 0 W/m² 1,6 °C 2,5 °C 0,0 km/h (0 Bft)
03.10.2019 23:15 2,5 °C 93 % 1017,8 hPa 0,0 mm 0,0 km/h (0 Bft) W-NW 286 ° 0 min 0,000 mm 0,0 UV-I 0 W/m² 1,5 °C 2,5 °C 0,0 km/h (0 Bft)
03.10.2019 23:16 2,6 °C 94 % 1017,7 hPa 0,0 mm 0,0 km/h (0 Bft) W-NW 286 ° 0 min 0,000 mm 0,0 UV-I 0 W/m² 1,7 °C 2,6 °C 0,0 km/h (0 Bft)
03.10.2019 23:17 2,6 °C 94 % 1017,8 hPa 0,0 mm 0,0 km/h (0 Bft) W-NW 286 ° 0 min 0,000 mm 0,0 UV-I 0 W/m² 1,7 °C 2,6 °C 0,0 km/h (0 Bft)
03.10.2019 23:18 2,7 °C 94 % 1017,7 hPa 0,0 mm 0,0 km/h (0 Bft) W-NW 286 ° 0 min 0,000 mm 0,0 UV-I 0 W/m² 1,8 °C 2,7 °C 0,0 km/h (0 Bft)
03.10.2019 23:19 2,6 °C 94 % 1017,7 hPa 0,0 mm 0,0 km/h (0 Bft) W-NW 286 ° 0 min 0,000 mm 0,0 UV-I 0 W/m² 1,7 °C 2,6 °C 0,0 km/h (0 Bft)
03.10.2019 23:20 2,6 °C 94 % 1017,7 hPa 0,0 mm 0,0 km/h (0 Bft) W-NW 286 ° 0 min 0,000 mm 0,0 UV-I 0 W/m² 1,7 °C 2,6 °C 0,0 km/h (0 Bft)
03.10.2019 23:21 2,5 °C 94 % 1017,7 hPa 0,0 mm 0,0 km/h (0 Bft) W-NW 286 ° 0 min 0,000 mm 0,0 UV-I 0 W/m² 1,6 °C 2,5 °C 0,0 km/h (0 Bft)
03.10.2019 23:22 2,4 °C 94 % 1017,7 hPa 0,0 mm 0,0 km/h (0 Bft) W-NW 286 ° 0 min 0,000 mm 0,0 UV-I 0 W/m² 1,5 °C 2,4 °C 0,0 km/h (0 Bft)
03.10.2019 23:23 2,4 °C 94 % 1017,7 hPa 0,0 mm 0,0 km/h (0 Bft) W-NW 286 ° 0 min 0,000 mm 0,0 UV-I 0 W/m² 1,5 °C 2,4 °C 0,0 km/h (0 Bft)
03.10.2019 23:24 2,4 °C 94 % 1017,7 hPa 0,0 mm 0,0 km/h (0 Bft) W-NW 286 ° 0 min 0,000 mm 0,0 UV-I 0 W/m² 1,5 °C 2,4 °C 0,0 km/h (0 Bft)
03.10.2019 23:25 2,3 °C 94 % 1017,7 hPa 0,0 mm 0,0 km/h (0 Bft) W-NW 286 ° 0 min 0,000 mm 0,0 UV-I 0 W/m² 1,4 °C 2,3 °C 0,0 km/h (0 Bft)
03.10.2019 23:26 2,3 °C 94 % 1017,6 hPa 0,0 mm 0,0 km/h (0 Bft) W-NW 286 ° 0 min 0,000 mm 0,0 UV-I 0 W/m² 1,4 °C 2,3 °C 0,0 km/h (0 Bft)
03.10.2019 23:27 2,2 °C 94 % 1017,7 hPa 0,0 mm 0,0 km/h (0 Bft) W-NW 286 ° 0 min 0,000 mm 0,0 UV-I 0 W/m² 1,3 °C 2,2 °C 0,0 km/h (0 Bft)
03.10.2019 23:28 2,2 °C 94 % 1017,7 hPa 0,0 mm 0,0 km/h (0 Bft) W-NW 286 ° 0 min 0,000 mm 0,0 UV-I 0 W/m² 1,3 °C 2,2 °C 0,0 km/h (0 Bft)
03.10.2019 23:29 2,2 °C 94 % 1017,7 hPa 0,0 mm 0,0 km/h (0 Bft) W-NW 286 ° 0 min 0,000 mm 0,0 UV-I 0 W/m² 1,3 °C 2,2 °C 0,0 km/h (0 Bft)
03.10.2019 23:30 2,1 °C 94 % 1017,6 hPa 0,0 mm 0,0 km/h (0 Bft) W-NW 286 ° 0 min 0,000 mm 0,0 UV-I 0 W/m² 1,2 °C 2,1 °C 0,0 km/h (0 Bft)
03.10.2019 23:31 2,1 °C 94 % 1017,6 hPa 0,0 mm 0,0 km/h (0 Bft) W-NW 286 ° 0 min 0,000 mm 0,0 UV-I 0 W/m² 1,2 °C 2,1 °C 0,0 km/h (0 Bft)
03.10.2019 23:32 2,2 °C 94 % 1017,6 hPa 0,0 mm 0,0 km/h (0 Bft) W-NW 286 ° 0 min 0,000 mm 0,0 UV-I 0 W/m² 1,3 °C 2,2 °C 0,0 km/h (0 Bft)
03.10.2019 23:33 2,2 °C 94 % 1017,5 hPa 0,0 mm 0,0 km/h (0 Bft) W-NW 286 ° 0 min 0,000 mm 0,0 UV-I 0 W/m² 1,3 °C 2,2 °C 0,0 km/h (0 Bft)
03.10.2019 23:34 2,2 °C 94 % 1017,5 hPa 0,0 mm 0,0 km/h (0 Bft) W-NW 286 ° 0 min 0,000 mm 0,0 UV-I 0 W/m² 1,3 °C 2,2 °C 0,0 km/h (0 Bft)
03.10.2019 23:35 2,2 °C 94 % 1017,6 hPa 0,0 mm 0,0 km/h (0 Bft) W-NW 286 ° 0 min 0,000 mm 0,0 UV-I 0 W/m² 1,3 °C 2,2 °C 0,0 km/h (0 Bft)
03.10.2019 23:36 2,2 °C 94 % 1017,5 hPa 0,0 mm 0,0 km/h (0 Bft) W-NW 286 ° 0 min 0,000 mm 0,0 UV-I 0 W/m² 1,3 °C 2,2 °C 0,0 km/h (0 Bft)
03.10.2019 23:37 2,1 °C 94 % 1017,5 hPa 0,0 mm 0,0 km/h (0 Bft) W-NW 286 ° 0 min 0,000 mm 0,0 UV-I 0 W/m² 1,2 °C 2,1 °C 0,0 km/h (0 Bft)
03.10.2019 23:38 2,1 °C 94 % 1017,5 hPa 0,0 mm 0,0 km/h (0 Bft) W-NW 286 ° 0 min 0,000 mm 0,0 UV-I 0 W/m² 1,2 °C 2,1 °C 0,0 km/h (0 Bft)
03.10.2019 23:39 2,2 °C 94 % 1017,5 hPa 0,0 mm 0,0 km/h (0 Bft) W-NW 286 ° 0 min 0,000 mm 0,0 UV-I 0 W/m² 1,3 °C 2,2 °C 0,0 km/h (0 Bft)
03.10.2019 23:40 2,2 °C 94 % 1017,5 hPa 0,0 mm 0,0 km/h (0 Bft) W-NW 286 ° 0 min 0,000 mm 0,0 UV-I 0 W/m² 1,3 °C 2,2 °C 0,0 km/h (0 Bft)
03.10.2019 23:41 2,2 °C 94 % 1017,5 hPa 0,0 mm 0,0 km/h (0 Bft) W-NW 286 ° 0 min 0,000 mm 0,0 UV-I 0 W/m² 1,3 °C 2,2 °C 0,0 km/h (0 Bft)
03.10.2019 23:42 2,2 °C 94 % 1017,5 hPa 0,0 mm 0,0 km/h (0 Bft) W-NW 286 ° 0 min 0,000 mm 0,0 UV-I 0 W/m² 1,3 °C 2,2 °C 0,0 km/h (0 Bft)
03.10.2019 23:43 2,1 °C 94 % 1017,4 hPa 0,0 mm 0,0 km/h (0 Bft) W-NW 286 ° 0 min 0,000 mm 0,0 UV-I 0 W/m² 1,2 °C 2,1 °C 0,0 km/h (0 Bft)
03.10.2019 23:44 2,0 °C 94 % 1017,4 hPa 0,0 mm 0,0 km/h (0 Bft) W-NW 286 ° 0 min 0,000 mm 0,0 UV-I 0 W/m² 1,1 °C 2,0 °C 0,0 km/h (0 Bft)
03.10.2019 23:45 1,9 °C 94 % 1017,4 hPa 0,0 mm 0,0 km/h (0 Bft) W-NW 286 ° 0 min 0,000 mm 0,0 UV-I 0 W/m² 1,0 °C 1,9 °C 0,0 km/h (0 Bft)
03.10.2019 23:46 2,0 °C 94 % 1017,4 hPa 0,0 mm 0,0 km/h (0 Bft) W-NW 286 ° 0 min 0,000 mm 0,0 UV-I 0 W/m² 1,1 °C 2,0 °C 0,0 km/h (0 Bft)
03.10.2019 23:47 2,0 °C 94 % 1017,3 hPa 0,0 mm 0,0 km/h (0 Bft) W-NW 286 ° 0 min 0,000 mm 0,0 UV-I 0 W/m² 1,1 °C 2,0 °C 0,0 km/h (0 Bft)
03.10.2019 23:48 2,0 °C 94 % 1017,3 hPa 0,0 mm 0,0 km/h (0 Bft) W-NW 286 ° 0 min 0,000 mm 0,0 UV-I 0 W/m² 1,1 °C 2,0 °C 0,0 km/h (0 Bft)
03.10.2019 23:49 2,0 °C 94 % 1017,3 hPa 0,0 mm 0,0 km/h (0 Bft) W-NW 286 ° 0 min 0,000 mm 0,0 UV-I 0 W/m² 1,1 °C 2,0 °C 0,0 km/h (0 Bft)
03.10.2019 23:50 1,9 °C 94 % 1017,2 hPa 0,0 mm 0,0 km/h (0 Bft) W-NW 286 ° 0 min 0,000 mm 0,0 UV-I 0 W/m² 1,0 °C 1,9 °C 0,0 km/h (0 Bft)
03.10.2019 23:51 1,9 °C 94 % 1017,2 hPa 0,0 mm 0,0 km/h (0 Bft) W-NW 286 ° 0 min 0,000 mm 0,0 UV-I 0 W/m² 1,0 °C 1,9 °C 0,0 km/h (0 Bft)
03.10.2019 23:52 1,9 °C 94 % 1017,2 hPa 0,0 mm 0,0 km/h (0 Bft) W-NW 286 ° 0 min 0,000 mm 0,0 UV-I 0 W/m² 1,0 °C 1,9 °C 0,0 km/h (0 Bft)
03.10.2019 23:53 1,9 °C 94 % 1017,2 hPa 0,0 mm 0,0 km/h (0 Bft) W-NW 286 ° 0 min 0,000 mm 0,0 UV-I 0 W/m² 1,0 °C 1,9 °C 0,0 km/h (0 Bft)
03.10.2019 23:54 1,9 °C 94 % 1017,2 hPa 0,0 mm 0,0 km/h (0 Bft) W-NW 286 ° 0 min 0,000 mm 0,0 UV-I 0 W/m² 1,0 °C 1,9 °C 0,0 km/h (0 Bft)
03.10.2019 23:55 2,0 °C 94 % 1017,2 hPa 0,0 mm 0,0 km/h (0 Bft) W-NW 286 ° 0 min 0,000 mm 0,0 UV-I 0 W/m² 1,1 °C 2,0 °C 0,0 km/h (0 Bft)
03.10.2019 23:56 2,0 °C 94 % 1017,2 hPa 0,0 mm 0,0 km/h (0 Bft) W-NW 286 ° 0 min 0,000 mm 0,0 UV-I 0 W/m² 1,1 °C 2,0 °C 0,0 km/h (0 Bft)
03.10.2019 23:57 2,0 °C 94 % 1017,1 hPa 0,0 mm 0,0 km/h (0 Bft) W-NW 286 ° 0 min 0,000 mm 0,0 UV-I 0 W/m² 1,1 °C 2,0 °C 0,0 km/h (0 Bft)
03.10.2019 23:58 2,0 °C 94 % 1017,1 hPa 0,0 mm 0,0 km/h (0 Bft) W-NW 286 ° 0 min 0,000 mm 0,0 UV-I 0 W/m² 1,1 °C 2,0 °C 0,0 km/h (0 Bft)
03.10.2019 23:59 2,0 °C 94 % 1017,1 hPa 0,0 mm 0,0 km/h (0 Bft) W-NW 286 ° 0 min 0,000 mm 0,0 UV-I 0 W/m² 1,1 °C 2,0 °C 0,0 km/h (0 Bft)
_ Min-Zeit 23:54 15:37 00:01 - 23:59 - - - - - - 23:54 01:03 23:59
Minimum _ 1,9 °C 65 % 1015,4 hPa - 0,0 km/h (0 Bft) - - - - - - 1,0 °C 1,3 °C 0,0 km/h (0 Bft)
_ Max-Zeit 14:24 23:59 11:23 20:19 10:15 - - 14:59 15:01 12:59 12:10 12:13 14:26 12:18
Maximum _ 10,4 °C 94 % 1019,1 hPa 0,2 mm 14,3 km/h
W-NW (3 Bft)
- - 1 min 0,279 mm 3,9 UV-I 830 W/m² 6,1 °C 10,3 °C 20,9 km/h
W-NW (4 Bft)
Durchschnitt _ 5,7 °C 87 % 1017,5 hPa #1,0 mm 3,3 km/h (1 Bft) W - #1:24 h #1,245 mm 2,0 UV-I 106 W/m² 3,5 °C 5,3 °C 5,8 km/h (2 Bft)